MPMG - Transparência

Contra-cheque - Remuneração de todos os servidores ativos - Pré Resolução CNMP 200/2019

Período: 2013 - Setembro

Ordem Matrícula Nome Cargo Efetivo Situação Unidade Administrativa Rendimentos Descontos Rendimento Líquido Total Indenizações Outras Remunerações Retroativas/Temporárias Data de Referência
Remuneração Básica Remuneração Eventual ou Temporária Total de Rendimentos Brutos Obrigatórios/Legais Total de Descontos
Remuneração do Cargo Efetivo Outras Verbas Remuneratórias Função de Confiança ou Cargo em Comissão Gratificação Natalina Férias Abono de Permanência Contribuição Previdenciária Imposto de Renda Retenção por Teto Constitucional
1 498900 ABDON MARCIO BARBOSA DA SILVA OFICIAL DO MP ATIVO ABRE CAMPO - COMARCA; ABRE CAMPO-PJ-02PJ 3.051,96 0,00 0,00 0,00 0,00 0,00 3.051,96 385,97 84,43 0,00 470,40 2.581,56 692,00 550,13 30/09/2013
2 177800 ADALBERTO MENEZES FARIA SAMORA COORDENADOR/OFICIAL ATIVO BELO HORIZONTE - COMARCA; DIRET DE PLANOS PROJETOS E PROGRAMAS INST 0,00 1.934,99 9.674,93 0,00 0,00 0,00 11.609,92 1.053,75 2.017,78 0,00 3.071,53 8.538,39 587,00 0,00 30/09/2013
3 306400 ADALBERTO MOREIRA GONCALVES ANALISTA DO MP ATIVO CONTAGEM - COMARCA; CONTAGEM-PJ-01PJ 8.788,36 878,84 0,00 0,00 0,00 0,00 9.667,20 1.063,39 1.575,47 0,00 2.638,86 7.028,34 457,00 0,00 30/09/2013
4 179300 ADENISE AUXILIADORA SOUZA SAD OFICIAL DO MP ATIVO BARBACENA - COMARCA; EXTINTA-BARBACENA - 06ª PJ EXECUÇÃO PENAL 7.731,26 1.546,25 0,00 0,00 0,00 0,00 9.277,51 1.020,53 1.385,51 0,00 2.406,04 6.871,47 457,00 0,00 30/09/2013
5 77700 ADIL EXPEDITO DE OLIVEIRA JUNIOR ASSESSOR ATIVO BELO HORIZONTE - COMARCA; CAO-CRIANCAS E ADOLESCENTES-SECRETARIA 0,00 5.989,97 7.487,46 0,00 0,00 0,00 13.477,43 1.482,52 2.413,44 0,00 3.895,96 9.581,47 457,00 131,99 30/09/2013
6 272200 ADILSON BATISTA ORNELAS OFICIAL DO MP ATIVO LAVRAS - COMARCA; LAVRAS-PJ-02PJ 3.698,79 369,88 0,00 0,00 0,00 0,00 4.068,67 447,55 145,18 0,00 592,73 3.475,94 457,00 8,94 30/09/2013
7 380100 ADILSON GONCALVES DE MELO JUNIOR ANALISTA DO MP ATIVO ARAXÁ - COMARCA; ARAXA-PJ-05PJ 6.075,32 607,53 0,00 0,00 0,00 0,00 6.682,85 735,11 750,47 0,00 1.485,58 5.197,27 692,00 0,00 30/09/2013
8 148800 ADILSON JANUARIO OFICIAL DO MP ATIVO BELO HORIZONTE - COMARCA; BH-22PJ PES COM DEF E IDOSOS-SECRETARIA 8.788,36 4.394,18 0,00 0,00 0,00 0,00 13.182,54 1.450,08 2.293,97 0,00 3.744,05 9.438,49 457,00 0,00 30/09/2013
9 322600 ADMILSON SILVEIRA OFICIAL DO MP ATIVO BOCAIÚVA - COMARCA; BOCAIUVA-PJ-01PJ 4.409,86 440,99 0,00 0,00 0,00 0,00 4.850,85 533,59 396,67 0,00 930,26 3.920,59 457,00 0,00 30/09/2013
10 333700 ADRIANA ABRITTA TEIXEIRA OFICIAL DO MP ATIVO BELO HORIZONTE - COMARCA; DIRET DE PESSOAL DO MINISTERIO PUBLICO - DPMP 5.344,58 534,46 0,00 0,00 0,00 0,00 5.879,04 702,12 771,65 0,00 1.473,77 4.405,27 457,00 503,90 30/09/2013
11 468500 ADRIANA APARECIDA FIRMINO ANALISTA DO MP ATIVO CARATINGA - COMARCA; CARATINGA-PJ-04PJ 5.698,20 0,00 0,00 0,00 0,00 0,00 5.698,20 626,80 509,47 0,00 1.136,27 4.561,93 692,00 0,00 30/09/2013
12 326100 ADRIANA AUGUSTA AMARAL BELO OFICIAL DO MP ATIVO BARBACENA - COMARCA; BARBACENA-PJ-08PJ 5.344,58 534,46 0,00 0,00 0,00 0,00 5.879,04 646,69 553,73 0,00 1.200,42 4.678,62 927,00 0,00 30/09/2013
13 541100 ADRIANA CRISTINA DE OLIVEIRA OFICIAL DO MP ATIVO GUAPÉ - COMARCA; GUAPE-PJ-UNPJ 2.684,83 0,00 0,00 0,00 0,00 0,00 2.684,83 295,33 38,00 0,00 333,33 2.351,50 692,00 0,00 30/09/2013
14 254800 ADRIANA DAS GRACAS FERNANDES ANALISTA DO MP ATIVO UBERABA - COMARCA; UBERABA-PJ-07PJ 9.074,45 4.537,23 0,00 0,00 0,00 0,00 13.611,68 1.497,28 2.493,59 0,00 3.990,87 9.620,81 457,00 0,00 30/09/2013
15 246900 ADRIANA DE ALMEIDA ANTONINI ASSESSOR ATIVO BELO HORIZONTE - COMARCA; PROCON-MG-SECRETARIA DE FISCALIZACOES 0,00 443,06 2.215,31 0,00 0,00 0,00 2.658,37 342,69 95,30 0,00 437,99 2.220,38 457,00 50,37 30/09/2013
16 217400 ADRIANA DE CARVALHO CATAO BRAGA ASSESSOR ATIVO BELO HORIZONTE - COMARCA; EXTINTA - DIRETORIA DE CONTRATOS E CONVÊNIOS 0,00 1.176,75 5.883,73 0,00 0,00 0,00 7.060,48 457,49 1.150,92 0,00 1.608,41 5.452,07 457,00 0,00 30/09/2013
17 434600 ADRIANA FERREIRA DA SILVA ANALISTA DO MP ATIVO BELO HORIZONTE - COMARCA; BH-19PJ SAUDE 5.883,73 353,02 0,00 0,00 0,00 0,00 6.236,75 686,04 735,87 0,00 1.421,91 4.814,84 457,00 0,00 30/09/2013
18 499800 ADRIANA FERREIRA TIAGO OFICIAL DO MP ATIVO SALINAS - COMARCA; SALINAS-PJ-02PJ 3.051,96 0,00 0,00 0,00 0,00 0,00 3.051,96 365,46 122,94 0,00 488,40 2.563,56 457,00 270,41 30/09/2013
19 543400 ADRIANA GUIMARAES NUNES DE PAULA ANALISTA DO MP ATIVO PATROCÍNIO - COMARCA; PATROCINIO-PJ-01PJ 4.553,46 0,00 0,00 0,00 0,00 0,00 4.553,46 500,88 334,83 0,00 835,71 3.717,75 457,00 0,00 30/09/2013
20 471500 ADRIANA HORTA DE CARVALHO RODRIGUES DE SOUSA ANALISTA DO MP ATIVO NOVA LIMA - COMARCA; NOVA LIMA-PJ-03PJ 5.698,20 0,00 0,00 0,00 0,00 0,00 5.698,20 626,80 556,76 0,00 1.183,56 4.514,64 927,00 0,00 30/09/2013
21 86400 ADRIANA MOREIRA CALDEIRA BRANT OFICIAL DO MP ATIVO BELO HORIZONTE - COMARCA; EXTINTA-TUTELA DAS FUNDACOES-21 PJ- GABINETE 7.731,26 3.865,63 0,00 0,00 0,00 0,00 11.596,89 1.275,66 2.000,47 0,00 3.276,13 8.320,76 457,00 2,89 30/09/2013
22 480700 ADRIANA MOREIRA DE AVELLAR CEZILIO OFICIAL DO MP ATIVO BELO HORIZONTE - COMARCA; EXTINTA - DIVISAO DE MATERIAL DE CONSUMO 3.051,96 0,00 0,00 0,00 0,00 0,00 3.051,96 335,72 49,61 0,00 385,33 2.666,63 927,00 0,00 30/09/2013
23 326000 ADRIANA PEREIRA CARNEIRO RESENDE OFICIAL DO MP ATIVO BELO HORIZONTE - COMARCA; BH-18PJ VIOLENCIA DOMESTICA 5.012,79 501,28 0,00 0,00 0,00 0,00 5.514,07 606,55 464,40 0,00 1.070,95 4.443,12 457,00 0,00 30/09/2013
24 502200 ADRIANA PETRUCCI DAVINA OFICIAL DO MP ATIVO PATROCÍNIO - COMARCA; PATROCINIO-PJ-03PJ 3.698,79 0,00 0,00 0,00 0,00 0,00 3.698,79 446,64 261,50 0,00 708,14 2.990,65 457,00 474,52 30/09/2013
25 201900 ADRIANA REIS PIMENTA OFICIAL DO MP ATIVO TEÓFILO OTONI - COMARCA; TEOFILO OTONI-PJ-03PJ 7.731,26 2.319,38 0,00 0,00 0,00 0,00 10.050,64 1.105,57 1.669,31 0,00 2.774,88 7.275,76 457,00 0,00 30/09/2013
26 278700 ADRIANA RODRIGUES PINTO COELHO AMARAL ANALISTA DO MP ATIVO BELO HORIZONTE - COMARCA; EXTINTA-MEIO AMB PATRIM HIST CULTURAL-15PJGAB 8.788,36 878,84 0,00 0,00 0,00 0,00 9.667,20 1.063,39 1.480,88 0,00 2.544,27 7.122,93 3.833,47 309,51 30/09/2013
27 468000 ADRIANA SANTOS DE SANTANA MOREIRA ANALISTA DO MP ATIVO ARAÇUAÍ - COMARCA; ARACUAI-PJ-01PJ 5.698,20 1.139,64 0,00 0,00 0,00 0,00 6.837,84 902,00 1.169,07 0,00 2.071,07 4.766,77 692,00 1.362,13 30/09/2013
28 194700 ADRIANA TSUKIDE OFICIAL DO MP ATIVO UBERABA - COMARCA; COORD REG BACIAS PARANAIBA BAIXO RIO GRANDE 7.731,26 1.546,25 0,00 0,00 0,00 0,00 9.277,51 1.020,53 1.432,80 0,00 2.453,33 6.824,18 457,00 0,00 30/09/2013
29 206400 ADRIANE MENDES DE SOUZA ANALISTA DO MP ATIVO BELO HORIZONTE - COMARCA; BH-23PJ CIVEL-FISC AC POL PUB II 10.315,17 5.157,58 0,00 0,00 0,00 0,00 15.472,75 1.702,00 2.949,08 0,00 4.651,08 10.821,67 457,00 0,00 30/09/2013
30 465500 ADRIANO CASSIANO MATOS ANALISTA DO MP ATIVO ARAXÁ - COMARCA; ARAXA-PJ-03PJ 4.701,73 0,00 0,00 0,00 0,00 0,00 4.701,73 517,19 364,52 0,00 881,71 3.820,02 457,00 0,00 30/09/2013
31 500500 ADRIANO DE ALMEIDA SILVA OFICIAL DO MP ATIVO UBERABA - COMARCA; UBERABA-PJ-12PJ 2.772,23 0,00 0,00 0,00 0,00 0,00 2.772,23 304,95 56,74 0,00 361,69 2.410,54 457,00 0,00 30/09/2013
32 187200 ADRIANO DE FREITAS MARON OFICIAL DO MP ATIVO PONTE NOVA - COMARCA; PONTE NOVA-PJ-03PJ 5.698,20 3.988,74 0,00 0,00 0,00 0,00 9.686,94 1.156,90 1.783,51 0,00 2.940,41 6.746,53 457,00 830,30 30/09/2013
33 477900 ADRIANO FERREIRA DE ALMEIDA OFICIAL DO MP ATIVO MONTES CLAROS - COMARCA; MONTES CLAROS-PJ-01PJ 3.051,96 0,00 0,00 0,00 0,00 0,00 3.051,96 335,72 49,61 0,00 385,33 2.666,63 457,00 0,00 30/09/2013
34 269101 ADRIANO PEREIRA SILVA ANALISTA DO MP ATIVO UBERABA - COMARCA; UBERABA-PJ-02PJ 5.698,20 0,00 0,00 0,00 0,00 0,00 5.698,20 626,80 509,47 0,00 1.136,27 4.561,93 692,00 0,00 30/09/2013
35 414200 ADRIANO RODRIGUES FERNANDES ANALISTA DO MP ATIVO CARANDAÍ - COMARCA; CARANDAI-PJ-UNPJ 5.344,58 320,67 0,00 0,00 0,00 0,00 5.665,25 676,59 572,97 0,00 1.249,56 4.415,69 692,00 485,60 30/09/2013
36 536700 ADRIELLE COSTA MARIA OFICIAL DO MP ATIVO SERRO - COMARCA; SERRO-PJ-SECRETARIA 2.684,83 0,00 0,00 0,00 0,00 0,00 2.684,83 295,33 50,90 0,00 346,23 2.338,60 457,00 0,00 30/09/2013
37 514300 ADRIENE DAMASCENO BRAGA ANALISTA DO MP ATIVO ALFENAS - COMARCA; ALFENAS-PJ-03PJ 5.176,02 0,00 0,00 0,00 0,00 0,00 5.176,02 666,98 693,44 0,00 1.360,42 3.815,60 457,00 887,40 30/09/2013
38 254600 ADRIENE DOMINGUES COSTA ANALISTA DO MP ATIVO BELO HORIZONTE - COMARCA; PROC. JUSTICA DIR. DIFUSOS E COLETIVOS-SEC 7.731,26 1.546,25 0,00 0,00 3.092,50 0,00 12.370,01 1.020,53 2.330,53 0,00 3.351,06 9.018,95 0,00 0,00 30/09/2013
39 252001 ADRIENE GOMES BARRETO ANALISTA DO MP ATIVO BELO HORIZONTE - COMARCA; BH-19PJ SAUDE-SECRETARIA 150PJ 6.586,88 1.976,06 0,00 0,00 0,00 0,00 8.562,94 941,92 1.305,20 0,00 2.247,12 6.315,82 3.833,47 309,51 30/09/2013
40 118100 AGENOR ALCIR RODRIGUES DA SILVA OFICIAL DO MP ATIVO SÃO JOÃO NEPOMUCENO - COMARCA; SAO JOAO NEPOMUCENO-PJ-01PJ 9.674,93 6.772,45 0,00 0,00 0,00 0,00 16.447,38 1.809,21 3.234,92 0,00 5.044,13 11.403,25 457,00 0,00 30/09/2013
41 302500 AGENOR JOSE DA SILVA JUNIOR ANALISTA DO MP ATIVO JUIZ DE FORA - COMARCA; JUIZ DE FORA-PJ-07PJ 8.788,36 878,84 0,00 0,00 0,00 0,00 9.667,20 1.063,39 1.480,88 0,00 2.544,27 7.122,93 457,00 0,00 30/09/2013
42 357500 AILSON WAGNER DE ALENCAR SILVA OFICIAL DO MP ATIVO BELO HORIZONTE - COMARCA; DIRETORIA DO COLEGIO E DA CAMARA DE PJ 4.854,78 970,96 0,00 0,00 0,00 0,00 5.825,74 695,77 662,91 0,00 1.358,68 4.467,06 692,00 509,46 30/09/2013
43 366400 AILTON ALEXSSANDRO ALVES OFICIAL DO MP ATIVO PARÁ DE MINAS - COMARCA; PARA DE MINAS-PJ-05PJ 4.270,85 854,17 0,00 0,00 0,00 0,00 5.125,02 563,75 463,77 0,00 1.027,52 4.097,50 457,00 0,00 30/09/2013
44 318900 AILTON DE CASTRO RIBEIRO JUNIOR OFICIAL DO MP ATIVO POUSO ALEGRE - COMARCA; POUSO ALEGRE-PJ-03PJ 4.409,86 440,99 0,00 0,00 0,00 0,00 4.850,85 533,59 278,30 0,00 811,89 4.038,96 457,00 0,00 30/09/2013
45 464400 ALAN MONTEIRO GASPAR ANALISTA DO MP ATIVO SETE LAGOAS - COMARCA; SETE LAGOAS-PJ-03PJ 5.698,20 0,00 0,00 0,00 0,00 0,00 5.698,20 626,80 604,06 0,00 1.230,86 4.467,34 457,00 0,00 30/09/2013
46 492000 ALANA DE CASTRO FREITAS OFICIAL DO MP ATIVO BOM SUCESSO - COMARCA; BOM SUCESSO-PJ-UNPJ 3.051,96 0,00 0,00 0,00 0,00 0,00 3.051,96 335,72 86,84 0,00 422,56 2.629,40 457,00 0,00 30/09/2013
47 306700 ALANA MARCIA DE OLIVEIRA OFICIAL DO MP ATIVO BELO HORIZONTE - COMARCA; DIRETORIA DE ADMINISTRACAO FINANCEIRA 5.176,02 517,60 0,00 0,00 0,00 0,00 5.693,62 626,30 602,93 0,00 1.229,23 4.464,39 457,00 0,00 30/09/2013
48 324500 ALANMAR COUTINHO COSTA OFICIAL DO MP ATIVO LEOPOLDINA - COMARCA; LEOPOLDINA-PJ-02PJ 4.409,86 440,99 0,00 0,00 0,00 0,00 4.850,85 533,59 174,47 0,00 708,06 4.142,79 692,00 0,00 30/09/2013
49 508200 ALBERTO DA SILVA VIEIRA ASSESSOR ATIVO BELO HORIZONTE - COMARCA; ASSESS ESPECIAL DO PGJ ATUACAO JUNTO A PGJAA 0,00 0,00 8.242,82 0,00 0,00 0,00 8.242,82 457,49 1.381,48 0,00 1.838,97 6.403,85 457,00 0,00 30/09/2013
50 407300 ALBERTO LUIZ SOARES DE OLIVEIRA ANALISTA DO MP ATIVO BELO HORIZONTE - COMARCA; SUPERINTENDÊNCIA DE ENGENHARIA E ARQUITETURA 5.883,73 353,02 0,00 0,00 0,00 0,00 6.236,75 686,04 735,87 0,00 1.421,91 4.814,84 457,00 0,00 30/09/2013
51 118200 ALBERTO PEREIRA DA COSTA OFICIAL DO MP ATIVO DORES DO INDAIÁ - COMARCA; DORES DO INDAIA-PJ-UNPJ 8.788,36 6.151,86 0,00 0,00 0,00 0,00 14.940,22 1.784,29 3.084,88 0,00 4.869,17 10.071,05 457,00 1.280,60 30/09/2013
52 282400 ALCILENE MARISE DE ARAUJO ANALISTA DO MP ATIVO BELO HORIZONTE - COMARCA; BH-23PJ INF-FISC MED SOC FEC 8.788,36 878,84 0,00 0,00 0,00 0,00 9.667,20 1.063,39 1.480,88 0,00 2.544,27 7.122,93 457,00 2,71 30/09/2013
53 112600 ALCIONE DA MOTA JARDIM OFICIAL DO MP ATIVO BELO HORIZONTE - COMARCA; CAO-CRIANCAS E ADOLESCENTES 6.586,88 2.634,75 0,00 0,00 0,00 0,00 9.221,63 1.014,38 1.419,12 0,00 2.433,50 6.788,13 692,00 0,00 30/09/2013
54 396400 ALCIONE DE FREITAS E SILVA ANALISTA DO MP ATIVO BELO HORIZONTE - COMARCA; DIRET DE PESSOAL DO MINISTERIO PUBLICO - DPMP 6.586,88 1.317,38 0,00 0,00 0,00 0,00 7.904,26 869,47 1.143,99 0,00 2.013,46 5.890,80 457,00 0,00 30/09/2013
55 161600 ALCIONE NERY SOUZA ASSESSOR ATIVO BELO HORIZONTE - COMARCA; BH-22PJ PES COM DEF E IDOSOS-ASS JURIDICA 0,00 1.765,12 5.883,73 0,00 0,00 0,00 7.648,85 457,49 1.312,72 0,00 1.770,21 5.878,64 457,00 0,00 30/09/2013
56 376000 ALDA GOMES LANA OFICIAL DO MP ATIVO BELO HORIZONTE - COMARCA; BH-18PJ VIOLENCIA DOMESTICA-SECRETARIA 4.701,73 470,17 0,00 0,00 0,00 0,00 5.171,90 568,91 427,95 0,00 996,86 4.175,04 3.833,47 309,51 30/09/2013
57 148000 ALDA MARTINS SIMOES OFICIAL DO MP ATIVO BELO HORIZONTE - COMARCA; BH-23PJ CIVEL- FISC ENT AB POL 8.788,36 3.515,34 0,00 0,00 0,00 0,00 12.303,70 1.353,41 2.220,75 0,00 3.574,16 8.729,54 457,00 0,00 30/09/2013
58 318400 ALDO CREPALDI JUNIOR OFICIAL DO MP ATIVO BELO HORIZONTE - COMARCA; EXTINTA - DIVISAO DE MATERIAL DE CONSUMO 5.012,79 501,28 0,00 0,00 0,00 0,00 5.514,07 606,55 511,70 0,00 1.118,25 4.395,82 4.068,47 309,51 30/09/2013
59 118400 ALECIO JOSE GUIMARAES DE OLIVEIRA ANALISTA DO MP ATIVO BOM SUCESSO - COMARCA; BOM SUCESSO-PJ-UNPJ 13.036,58 10.429,26 0,00 0,00 0,00 0,00 23.465,84 2.581,24 4.952,69 0,00 7.533,93 15.931,91 457,00 0,00 30/09/2013
60 197900 ALESSA DE SOUSA E SILVA OFICIAL DO MP ATIVO OLIVEIRA - COMARCA; OLIVEIRA-PJ-02PJ 7.982,93 1.596,59 0,00 0,00 0,00 0,00 9.579,52 1.053,75 1.459,42 0,00 2.513,17 7.066,35 457,00 0,00 30/09/2013
61 428500 ALESSANDRA ALVES DINIZ OFICIAL DO MP ATIVO BELO HORIZONTE - COMARCA; BH-14PJ DEFESA CONSUMIDOR-SECRETARIA 3.469,26 1.040,78 0,00 0,00 0,00 0,00 4.510,04 496,10 326,14 0,00 822,24 3.687,80 457,00 0,00 30/09/2013
62 286801 ALESSANDRA BOTELHO JUNQUEIRA DE MENEZES ANALISTA DO MP ATIVO PASSOS - COMARCA; PASSOS-PJ-05PJ 6.379,14 1.275,83 0,00 0,00 0,00 0,00 7.654,97 842,05 988,39 0,00 1.830,44 5.824,53 927,00 0,00 30/09/2013
63 307000 ALESSANDRA CRISTINA SANTOS MENDES ANALISTA DO MP ATIVO BELO HORIZONTE - COMARCA; BH-18PJ VIOLENCIA DOMESTICA 6.379,14 637,91 0,00 0,00 0,00 0,00 7.017,05 771,88 879,55 0,00 1.651,43 5.365,62 457,00 0,00 30/09/2013
64 264400 ALESSANDRA DE SOUZA SANTOS COORDENADOR/ANALISTA ATIVO BELO HORIZONTE - COMARCA; DIRETORIA DE PRODUCAO EDITORIAL 9.074,45 4.657,33 0,00 0,00 0,00 0,00 13.731,78 1.297,65 2.628,81 0,00 3.926,46 9.805,32 457,00 0,00 30/09/2013
65 441500 ALESSANDRA DRUMMOND DE FIGUEIREDO ROSSI ANALISTA DO MP ATIVO BELO HORIZONTE - COMARCA; DIVIS DE PROJETOS DE ENGENHARIA E ARQUITETURA 5.344,58 320,67 0,00 0,00 0,00 0,00 5.665,25 623,18 595,99 0,00 1.219,17 4.446,08 457,00 0,00 30/09/2013
66 524000 ALESSANDRA LUCIOLI DE BARROS GUERRA ANALISTA DO MP ATIVO BELO HORIZONTE - COMARCA; BH-12PJ JUIZO CRIMINAL 4.270,85 0,00 0,00 0,00 0,00 0,00 4.270,85 469,79 172,17 0,00 641,96 3.628,89 457,00 0,00 30/09/2013
67 479900 ALESSANDRA MARA ANDRADE DE FARIA OFICIAL DO MP ATIVO UBERABA - COMARCA; UBERABA-PJ-05PJ 3.698,79 0,00 0,00 0,00 0,00 0,00 3.698,79 406,87 173,19 0,00 580,06 3.118,73 692,00 0,00 30/09/2013
68 226700 ALESSANDRA MARA VASCONCELOS REZENDE OFICIAL DO MP ATIVO CONSELHEIRO LAFAIETE - COMARCA; CONSELHEIRO LAFAIETE-PJ-07PJ 4.854,78 970,96 0,00 0,00 0,00 0,00 5.825,74 640,83 635,27 0,00 1.276,10 4.549,64 457,00 0,00 30/09/2013
69 112100 ALESSANDRA MARCIA FERREIRA OFICIAL DO MP ATIVO BELO HORIZONTE - COMARCA; BELO HORIZONTE- SECRETARIA DAS PROMOTORIAS 7.022,72 2.809,09 0,00 0,00 0,00 0,00 9.831,81 1.081,50 1.568,46 0,00 2.649,96 7.181,85 457,00 0,00 30/09/2013
70 196500 ALESSANDRA MARIA RIBEIRO LUCIANO OFICIAL DO MP ATIVO RIO PARANAÍBA - COMARCA; RIO PARANAIBA-PJ-UNPJ 7.731,26 2.319,38 0,00 0,00 0,00 0,00 10.050,64 1.105,57 1.622,02 0,00 2.727,59 7.323,05 692,00 0,00 30/09/2013
71 91400 ALESSANDRA MENDES VASCONCELOS DE SOUZA OFICIAL DO MP ATIVO BELO HORIZONTE - COMARCA; BH-23PJ INF-FISC MED SOC AB 10.315,17 5.157,58 0,00 0,00 0,00 0,00 15.472,75 1.702,00 2.996,38 0,00 4.698,38 10.774,37 457,00 0,00 30/09/2013
72 384900 ALESSANDRA RODRIGUES ANALISTA DO MP ATIVO VISCONDE DO RIO BRANCO - COMARCA; VISCONDE DO RIO BRANCO-PJ-03PJ 6.586,88 658,69 0,00 0,00 0,00 0,00 7.245,57 865,32 1.040,18 0,00 1.905,50 5.340,07 457,00 621,00 30/09/2013
73 390000 ALESSANDRA SPADANO MASSARA VASCONCELOS OFICIAL DO MP ATIVO BETIM - COMARCA; BETIM-PJ-10PJ 4.553,46 455,35 0,00 0,00 0,00 0,00 5.008,81 550,97 435,33 0,00 986,30 4.022,51 457,00 0,00 30/09/2013
74 426500 ALESSANDRO CAMPOS DE PAIVA COORDENADOR/ANALISTA ATIVO BELO HORIZONTE - COMARCA; DIRETORIA DE PUBLICIDADE INSTITUCIONAL 0,00 580,50 9.674,93 0,00 0,00 0,00 10.255,43 743,81 1.825,12 0,00 2.568,93 7.686,50 457,00 0,00 30/09/2013
75 420600 ALESSANDRO SILVA OFICIAL DO MP ATIVO VISCONDE DO RIO BRANCO - COMARCA; VISCONDE DO RIO BRANCO-PJ-02PJ 3.469,26 693,85 0,00 0,00 0,00 0,00 4.163,11 497,20 144,27 0,00 641,47 3.521,64 457,00 356,90 30/09/2013
76 375301 ALETHEIA PATRICIA ASSIS MORAIS MOREIRA ANALISTA DO MP ATIVO ITABIRA - COMARCA; ITABIRA-PJ-02PJ 5.012,79 0,00 0,00 0,00 0,00 0,00 5.012,79 551,41 436,30 0,00 987,71 4.025,08 457,00 0,00 30/09/2013
77 382300 ALEX CARVALHO LIMA ANALISTA DO MP ATIVO UBERLÂNDIA - COMARCA; UBERLANDIA-PJ-14PJ 6.586,88 658,69 0,00 0,00 0,00 0,00 7.245,57 797,01 870,90 0,00 1.667,91 5.577,66 1.427,87 89,00 30/09/2013
78 195201 ALEX DE CASTRO PEREIRA ANALISTA DO MP ATIVO UBERABA - COMARCA; UBERABA-PJ-09PJ 8.788,36 1.757,67 0,00 0,00 0,00 0,00 10.546,03 1.160,06 1.695,98 0,00 2.856,04 7.689,99 457,00 0,00 30/09/2013
79 358900 ALEX DE PAULA LANZA ASSESSOR ATIVO BELO HORIZONTE - COMARCA; DIRETORIA DE IMPRENSA 0,00 0,00 5.883,73 0,00 0,00 0,00 5.883,73 457,49 827,31 0,00 1.284,80 4.598,93 457,00 0,00 30/09/2013
80 178400 ALEX RODRIGO SALDANHA GUIMARAES OFICIAL DO MP ATIVO BELO HORIZONTE - COMARCA; DIRETORIA DE SISTEMAS DE INFORMACAO 4.409,86 881,97 0,00 0,00 0,00 0,00 5.291,83 582,10 504,60 0,00 1.086,70 4.205,13 457,00 0,00 30/09/2013
81 289200 ALEX SANDRO PEREIRA DE MATOS OFICIAL DO MP ATIVO BELO HORIZONTE - COMARCA; PROCON-MG-SECRETARIA DE FISCALIZACOES 4.409,86 440,99 0,00 0,00 0,00 0,00 4.850,85 533,59 396,67 0,00 930,26 3.920,59 457,00 0,00 30/09/2013
82 413500 ALEX VILELA OLIVEIRA ANALISTA DO MP ATIVO GOVERNADOR VALADARES - COMARCA; COORD REG PJ DEF EDU DIR CRIANCA ADOL RIODOCE 6.379,14 382,75 0,00 0,00 0,00 0,00 6.761,89 743,81 864,39 0,00 1.608,20 5.153,69 457,00 0,00 30/09/2013
83 264300 ALEXANDRA FATIMA SARAIVA SOARES ANALISTA DO MP ATIVO BELO HORIZONTE - COMARCA; CENTRAL DE APOIO TECN-SETOR DE MEIO AMBIENTE 9.074,45 1.814,89 0,00 0,00 0,00 0,00 10.889,34 1.197,83 1.874,59 0,00 3.072,42 7.816,92 457,00 0,00 30/09/2013
84 488000 ALEXANDRA LARA PAIS DE CARVALHO ANALISTA DO MP ATIVO GUANHÃES - COMARCA; GUANHAES-PJ-SECRETARIA 5.176,02 0,00 0,00 0,00 0,00 0,00 5.176,02 569,36 382,11 0,00 951,47 4.224,55 927,00 0,00 30/09/2013
85 256300 ALEXANDRA SANTOS GOMES OFICIAL DO MP ATIVO BELO HORIZONTE - COMARCA; EXTINTA - DIVISÃO DE COMPRAS 5.344,58 1.068,92 0,00 0,00 0,00 0,00 6.413,50 826,44 1.048,25 0,00 1.874,69 4.538,81 457,00 1.099,60 30/09/2013
86 403300 ALEXANDRE AUGUSTO RODRIGUES ANALISTA DO MP ATIVO ÁGUAS FORMOSAS - COMARCA; AGUAS FORMOSAS-PJ-UNPJ 6.075,32 607,53 0,00 0,00 0,00 0,00 6.682,85 827,07 1.089,85 0,00 1.916,92 4.765,93 457,00 982,15 30/09/2013
87 311700 ALEXANDRE BARCELOS RESENDE OFICIAL DO MP ATIVO BELO HORIZONTE - COMARCA; BH-14PJ DEFESA CONSUMIDOR-SECRETARIA 4.005,77 400,58 0,00 0,00 0,00 0,00 4.406,35 502,54 337,84 0,00 840,38 3.565,97 457,00 162,16 30/09/2013
88 285600 ALEXANDRE CAMPOS DE OLIVEIRA OFICIAL DO MP ATIVO UBERABA - COMARCA; COORD REG BACIAS PARANAIBA BAIXO RIO GRANDE 5.518,54 551,85 0,00 0,00 0,00 0,00 6.070,39 724,99 680,64 0,00 1.405,63 4.664,76 927,00 520,40 30/09/2013
89 509200 ALEXANDRE CAPUANO DE REZENDE ANALISTA DO MP ATIVO BELO HORIZONTE - COMARCA; PROC. JUSTICA DE HABEAS CORPUS 5.176,02 0,00 0,00 0,00 0,00 0,00 5.176,02 569,36 428,96 0,00 998,32 4.177,70 457,00 0,00 30/09/2013
90 229400 ALEXANDRE CARLOS BOTREL DIRETOR/OFICIAL ATIVO BELO HORIZONTE - COMARCA; SUPERINTENDENCIA DOS ORGAOS COLEGIADOS 0,00 2.508,02 12.540,10 0,00 0,00 0,00 15.048,12 705,49 3.153,64 0,00 3.859,13 11.188,99 457,00 0,00 30/09/2013
91 411900 ALEXANDRE CARVALHO SANTOS RIBEIRO ANALISTA DO MP ATIVO PERDÕES - COMARCA; PERDOES-PJ-UNPJ 6.379,14 382,75 0,00 0,00 0,00 0,00 6.761,89 743,81 864,39 0,00 1.608,20 5.153,69 533,80 0,00 30/09/2013
92 201200 ALEXANDRE DE ALENCAR CORDEIRO OFICIAL DO MP ATIVO ÁGUAS FORMOSAS - COMARCA; AGUAS FORMOSAS-PJ-UNPJ 4.409,86 1.763,95 0,00 0,00 0,00 0,00 6.173,81 679,12 625,88 0,00 1.305,00 4.868,81 457,00 0,00 30/09/2013
93 288200 ALEXANDRE DE VASCONCELOS COSTA KER ANALISTA DO MP ATIVO BELO HORIZONTE - COMARCA; BH-03PJ EMPRESARIAL-SECRETARIA 8.788,36 878,84 0,00 0,00 0,00 0,00 9.667,20 1.063,39 1.528,18 0,00 2.591,57 7.075,63 457,00 0,00 30/09/2013
94 445000 ALEXANDRE DIOGENES OLIVEIRA ANALISTA DO MP ATIVO SALINAS - COMARCA; SALINAS-PJ-02PJ 5.883,73 353,02 0,00 0,00 0,00 0,00 6.236,75 686,04 735,87 0,00 1.421,91 4.814,84 457,00 0,00 30/09/2013
95 463400 ALEXANDRE LEAL WINKELSTROTER ANALISTA DO MP ATIVO TEÓFILO OTONI - COMARCA; TEOFILO OTONI-PJ-04PJ 5.176,02 0,00 0,00 0,00 0,00 0,00 5.176,02 569,36 428,96 0,00 998,32 4.177,70 457,00 0,00 30/09/2013
96 356900 ALEXANDRE MOISES MENDONCA E ARAUJO OFICIAL DO MP ATIVO UBERABA - COMARCA; UBERABA-PJ-13PJ 4.005,77 400,58 0,00 0,00 0,00 0,00 4.406,35 484,70 266,68 0,00 751,38 3.654,97 457,00 0,00 30/09/2013
97 469900 ALEXANDRE PEREIRA GUEDES ANALISTA DO MP ATIVO CATAGUASES - COMARCA; CATAGUASES-PJ-03PJ 5.698,20 0,00 0,00 0,00 0,00 0,00 5.698,20 626,80 604,06 0,00 1.230,86 4.467,34 457,00 0,00 30/09/2013
98 208700 ALEXANDRE RESENDE FRAGA ANALISTA DO MP ATIVO BELO HORIZONTE - COMARCA; BH-19PJ SAUDE 11.161,27 2.232,25 0,00 0,00 0,00 0,00 13.393,52 1.473,29 2.345,61 0,00 3.818,90 9.574,62 927,00 0,00 30/09/2013
99 216401 ALEXANDRE RIBEIRO DE LIMA MAIORINO ANALISTA DO MP ATIVO UBERABA - COMARCA; UBERABA-PJ-03PJ 8.788,36 1.757,67 0,00 0,00 0,00 0,00 10.546,03 1.160,06 1.743,27 0,00 2.903,33 7.642,70 692,00 0,00 30/09/2013
100 475100 ALEXANDRE TEOTONIO COSTA ANALISTA DO MP ATIVO ARAGUARI - COMARCA; ARAGUARI-PJ-01PJ 5.698,20 0,00 0,00 0,00 0,00 0,00 5.698,20 626,80 509,47 0,00 1.136,27 4.561,93 3.206,28 208,93 30/09/2013
101 339000 ALEXANDRE VITOR CARDOSO OFICIAL DO MP ATIVO BELO HORIZONTE - COMARCA; BH-17PJ PATRIMONIO PUBLICO 4.409,86 440,99 0,00 0,00 0,00 0,00 4.850,85 622,28 452,11 0,00 1.074,39 3.776,46 692,00 806,21 30/09/2013
102 513300 ALFSON MIRANDA BRAGA ANALISTA DO MP ATIVO BELO HORIZONTE - COMARCA; BH-12PJ JUIZO CRIMINAL-GAB 092PJ 4.701,73 0,00 0,00 0,00 0,00 0,00 4.701,73 517,19 364,52 0,00 881,71 3.820,02 457,00 0,00 30/09/2013
103 471000 ALICE TITONELI MOREIRA ANALISTA DO MP ATIVO MIRADOURO - COMARCA; MIRADOURO-PJ-UNPJ 5.698,20 0,00 0,00 0,00 0,00 0,00 5.698,20 648,29 604,58 0,00 1.252,87 4.445,33 692,00 195,36 30/09/2013
104 373000 ALINE BOTELHO RESENDE OFICIAL DO MP ATIVO PASSA QUATRO - COMARCA; PASSA QUATRO-PJ-SECRETARIA 3.879,42 387,94 0,00 0,00 0,00 0,00 4.267,36 469,41 277,54 0,00 746,95 3.520,41 457,00 0,00 30/09/2013
105 407700 ALINE CRISTINA RODRIGUES PEREIRA ANALISTA DO MP ATIVO BELO HORIZONTE - COMARCA; DIVIS DE PROJETOS DE ENGENHARIA E ARQUITETURA 5.344,58 320,67 0,00 0,00 0,00 0,00 5.665,25 623,18 595,99 0,00 1.219,17 4.446,08 692,00 0,00 30/09/2013
106 193100 ALINE CRISTINA SENA OLIVEIRA OFICIAL DO MP ATIVO UBERLÂNDIA - COMARCA; UBERLANDIA-PJ-03PJ 7.487,46 1.497,49 0,00 0,00 0,00 0,00 8.984,95 988,34 1.361,20 0,00 2.349,54 6.635,41 457,00 0,00 30/09/2013
107 554200 ALINE CRISTINA SILVA SOUZA OFICIAL DO MP ATIVO TIROS - COMARCA; TIROS-PJ-UNPJ 2.684,83 0,00 0,00 0,00 0,00 0,00 2.684,83 295,33 50,90 0,00 346,23 2.338,60 457,00 0,00 30/09/2013
108 505500 ALINE DA CUNHA MARREIROS OLIVEIRA ANALISTA DO MP ATIVO CARANGOLA - COMARCA; CARANGOLA-PJ-03PJ 5.176,02 0,00 0,00 0,00 0,00 0,00 5.176,02 569,36 428,96 0,00 998,32 4.177,70 692,00 0,00 30/09/2013
109 433500 ALINE DE MELO QUEIROZ OFICIAL DO MP ATIVO BELO HORIZONTE - COMARCA; PROCON-MG-SECRETARIA DE FISCALIZACOES 4.136,15 1.288,95 0,00 0,00 0,00 0,00 5.425,10 482,28 568,70 0,00 1.050,98 4.374,12 457,00 0,00 30/09/2013
110 542700 ALINE DE SOUSA ALBINO ANALISTA DO MP ATIVO CARMO DO PARANAÍBA - COMARCA; CARMO DO PARANAIBA-PJ-02PJ 4.136,15 0,00 0,00 0,00 0,00 0,00 4.136,15 454,98 251,26 0,00 706,24 3.429,91 457,00 0,00 30/09/2013
111 330000 ALINE DIORIO MAYRINK OFICIAL DO MP ATIVO BELO HORIZONTE - COMARCA; BH-12PJ JUIZO CRIMINAL 4.553,46 455,35 0,00 0,00 0,00 0,00 5.008,81 579,30 498,37 0,00 1.077,67 3.931,14 457,00 257,58 30/09/2013
112 499000 ALINE FERREIRA LOPES NEIVA ANALISTA DO MP ATIVO TEÓFILO OTONI - COMARCA; COORD. DE DEF. DO PAT. PUBLICO-JEQUIT./MUCURI 5.698,20 0,00 0,00 0,00 0,00 0,00 5.698,20 722,54 817,06 0,00 1.539,60 4.158,60 457,00 870,30 30/09/2013
113 405300 ALINE LAIA CARDOZO ANALISTA DO MP ATIVO BELO HORIZONTE - COMARCA; EXTINTA - DIRETORIA DE CONTRATOS E CONVÊNIOS 6.379,14 382,75 0,00 0,00 0,00 0,00 6.761,89 807,56 1.006,25 0,00 1.813,81 4.948,08 457,00 579,60 30/09/2013
114 278200 ALINE MARCIA FARIA BARBOSA OFICIAL DO MP ATIVO BARBACENA - COMARCA; BARBACENA-PJ-SECRETARIA 4.409,86 440,99 0,00 0,00 0,00 0,00 4.850,85 533,59 278,30 0,00 811,89 4.038,96 927,00 0,00 30/09/2013
115 389000 ALINE NERI NOBRE ANALISTA DO MP ATIVO MONTES CLAROS - COMARCA; COORD REG PJ DEF EDUC DIR CRIANCA ADOL NORTE 6.586,88 1.317,38 0,00 0,00 0,00 0,00 7.904,26 944,00 1.309,83 0,00 2.253,83 5.650,43 457,00 677,60 30/09/2013
116 294600 ALINE PATRICIA SILVA VIEIRA OFICIAL DO MP ATIVO UBERLÂNDIA - COMARCA; UBERLANDIA-PJ-03PJ 5.518,54 551,85 0,00 0,00 0,00 0,00 6.070,39 667,74 600,57 0,00 1.268,31 4.802,08 927,00 0,00 30/09/2013
117 420000 ALINE RODRIGUES CAMOROPIN ANALISTA DO MP ATIVO SABARÁ - COMARCA; SABARA-PJ-02PJ 6.379,14 382,75 0,00 0,00 0,00 0,00 6.761,89 743,81 864,39 0,00 1.608,20 5.153,69 457,00 0,00 30/09/2013
118 408300 ALINE SILVA ARAUJO DE PAULA ANALISTA DO MP ATIVO SÃO SEBASTIÃO DO PARAÍSO - COMARCA; SAO SEBASTIAO DO PARAISO-PJ-02PJ 6.379,14 382,75 0,00 0,00 0,00 0,00 6.761,89 743,81 864,39 0,00 1.608,20 5.153,69 457,00 0,00 30/09/2013
119 425400 ALINE TRINDADE DE FREITAS CAMPOS OFICIAL DO MP ATIVO BELO HORIZONTE - COMARCA; BH-14PJ DEFESA CONSUMIDOR-SECRETARIA 4.136,15 248,17 0,00 0,00 0,00 0,00 4.384,32 482,28 300,96 0,00 783,24 3.601,08 457,00 0,00 30/09/2013
120 517200 ALISSOM PEREIRA DA SILVA ANALISTA DO MP ATIVO BORDA DA MATA - COMARCA; BORDA DA MATA-PJ-UNPJ 4.701,73 0,00 0,00 0,00 0,00 0,00 4.701,73 517,19 364,52 0,00 881,71 3.820,02 457,00 0,00 30/09/2013
121 442400 ALISSON LABRE ANALISTA DO MP ATIVO VARGINHA - COMARCA; VARGINHA-PJ-02PJ 5.883,73 353,02 0,00 0,00 0,00 0,00 6.236,75 686,04 735,87 0,00 1.421,91 4.814,84 457,00 0,00 30/09/2013
122 349000 ALLEC RODRIGUES VIEIRA ASSESSOR/OFICIAL ATIVO BELO HORIZONTE - COMARCA; PROCURADOR-GERAL DE JUSTICA- GABINETE 0,00 824,28 8.242,82 0,00 0,00 0,00 9.067,10 997,38 1.428,59 0,00 2.425,97 6.641,13 457,00 0,00 30/09/2013
123 297300 ALLYSON SALIBA MONTEIRO LAIZO ANALISTA DO MP ATIVO CONSELHEIRO LAFAIETE - COMARCA; CONSELHEIRO LAFAIETE-PJ-03PJ 8.788,36 878,84 0,00 0,00 0,00 0,00 9.667,20 1.063,39 1.575,47 0,00 2.638,86 7.028,34 457,00 0,00 30/09/2013
124 303700 ALMIR LOPES LOURES ANALISTA DO MP ATIVO BELO HORIZONTE - COMARCA; CENTRAL DE APOIO TECN-SETOR DE MEIO AMBIENTE 9.674,93 967,49 0,00 0,00 0,00 0,00 10.642,42 1.170,67 1.719,57 0,00 2.890,24 7.752,18 457,00 0,00 30/09/2013
125 515900 ALTAIR NEVES JUNIOR OFICIAL DO MP ATIVO BELO HORIZONTE - COMARCA; BH-03PJ EMPRESARIAL-SECRETARIA 3.051,96 0,00 0,00 0,00 0,00 0,00 3.051,96 335,72 86,84 0,00 422,56 2.629,40 457,00 0,00 30/09/2013
126 233300 ALVARINDO BATISTA COORDENADOR/ANALISTA ATIVO BELO HORIZONTE - COMARCA; DIVISAO DE MULTIMIDIA 10.315,17 3.765,27 0,00 0,00 0,00 0,00 14.080,44 1.361,60 2.707,10 0,00 4.068,70 10.011,74 3.833,47 312,13 30/09/2013
127 274100 ALYSSON CARVALHO VIDAL DE LACERDA OFICIAL DO MP ATIVO MANHUAÇU - COMARCA; MANHUACU-PJ-01PJ 5.698,20 569,82 0,00 0,00 0,00 0,00 6.268,02 689,48 743,52 0,00 1.433,00 4.835,02 457,00 0,00 30/09/2013
128 558600 ALYSSON FRANCISCO ALVES GARCIA OFICIAL DO MP ATIVO VESPASIANO - COMARCA; VESPASIANO-PJ-SECRETARIA 2.684,83 0,00 0,00 0,00 0,00 0,00 2.684,83 295,33 50,90 0,00 346,23 2.338,60 457,00 0,00 30/09/2013
129 521700 AMANDA CRISTINA AGUIAR MACHADO OFICIAL DO MP ATIVO BARBACENA - COMARCA; BARBACENA-PJ-03PJ 2.772,23 0,00 0,00 0,00 0,00 0,00 2.772,23 304,95 43,84 0,00 348,79 2.423,44 457,00 0,00 30/09/2013
130 520800 AMANDA DE SOUZA MACHADO ANALISTA DO MP ATIVO BAEPENDI - COMARCA; BAEPENDI-PJ-UNPJ 4.701,73 0,00 0,00 0,00 0,00 0,00 4.701,73 517,19 287,14 0,00 804,33 3.897,40 692,00 0,00 30/09/2013
131 501800 AMANDA LIMA TEIXEIRA COSTA OFICIAL DO MP ATIVO CATAGUASES - COMARCA; CATAGUASES-PJ-04PJ 3.698,79 0,00 0,00 0,00 0,00 0,00 3.698,79 449,12 201,91 0,00 651,03 3.047,76 1.431,76 421,12 30/09/2013
132 543100 AMANDA VIEIRA FREITAS ANALISTA DO MP ATIVO PARAGUAÇU - COMARCA; PARAGUACU-PJ-UNPJ 4.136,15 0,00 0,00 0,00 0,00 0,00 4.136,15 454,98 251,26 0,00 706,24 3.429,91 457,00 0,00 30/09/2013
133 434400 AMARILIS ASSIS SIMAO CURCIO ANALISTA DO MP ATIVO BELO HORIZONTE - COMARCA; ASSESS TECNICO-JUR JUNTO AS PROC. DE JUST 6.379,14 382,75 0,00 0,00 0,00 0,00 6.761,89 743,81 864,39 0,00 1.608,20 5.153,69 927,00 0,00 30/09/2013
134 273700 AMBROLINA CARNEIRO DE VASCONCELOS OFICIAL DO MP ATIVO FRUTAL - COMARCA; FRUTAL-PJ-03PJ 5.883,73 2.353,49 0,00 0,00 0,00 0,00 8.237,22 906,09 1.178,19 0,00 2.084,28 6.152,94 457,00 0,00 30/09/2013
135 58000 AMELIA GUARIZE DE CASTRO OFICIAL DO MP ATIVO JUIZ DE FORA - COMARCA; JUIZ DE FORA-PJ-SECRETARIA 4.854,78 4.369,30 0,00 0,00 0,00 1.014,65 10.238,73 1.014,65 1.746,04 0,00 2.760,69 7.478,04 457,00 0,00 30/09/2013
136 324301 AMERICA SUELI FERREIRA DA SILVA ANALISTA DO MP ATIVO MONTE CARMELO - COMARCA; MONTE CARMELO-PJ-02PJ 5.698,20 0,00 0,00 0,00 0,00 0,00 5.698,20 626,80 604,06 0,00 1.230,86 4.467,34 457,00 0,00 30/09/2013
137 273300 AMUJACY DE BRITO ASSIZ OFICIAL DO MP ATIVO BELO HORIZONTE - COMARCA; BH-12PJ JUIZO CRIMINAL-SECRETARIA 5.176,02 517,60 0,00 0,00 0,00 0,00 5.693,62 626,30 461,06 0,00 1.087,36 4.606,26 3.009,15 212,41 30/09/2013
138 482200 ANA ALICE LOPES ACHTSCHIN ANALISTA DO MP ATIVO BELO HORIZONTE - COMARCA; PROC JUST RECURSOS ESP E EXTRAORD CRIMINAIS 5.698,20 0,00 0,00 0,00 0,00 0,00 5.698,20 626,80 604,06 0,00 1.230,86 4.467,34 457,00 61,77 30/09/2013
139 490400 ANA AMELIA PAULINO GARCIA OFICIAL DO MP ATIVO GRAO MOGOL - COMARCA; GRAO MOGOL-PJ-UNPJ 3.698,79 0,00 0,00 0,00 0,00 0,00 3.698,79 406,87 173,19 0,00 580,06 3.118,73 457,00 0,00 30/09/2013
140 279100 ANA CAROLINA ARAUJO PEREIRA ANALISTA DO MP ATIVO BELO HORIZONTE - COMARCA; DIVIS DE PROJETOS DE ENGENHARIA E ARQUITETURA 8.788,36 878,84 0,00 0,00 0,00 0,00 9.667,20 1.063,39 1.575,47 0,00 2.638,86 7.028,34 2.880,85 222,19 30/09/2013
141 359400 ANA CAROLINA DE ABREU FARIA ASSESSOR ATIVO BELO HORIZONTE - COMARCA; SUPERINTENDÊNCIA DE ENGENHARIA E ARQUITETURA 0,00 0,00 3.698,79 0,00 0,00 0,00 3.698,79 457,14 255,20 0,00 712,34 2.986,45 457,00 0,00 30/09/2013
142 408500 ANA CAROLINA DE CASTRO CARVALHO ANALISTA DO MP ATIVO BARBACENA - COMARCA; BARBACENA-PJ-SECRETARIA 6.379,14 382,75 0,00 0,00 0,00 0,00 6.761,89 743,81 864,39 0,00 1.608,20 5.153,69 457,00 0,00 30/09/2013
143 420200 ANA CAROLINA FERNANDES SILVA ANALISTA DO MP ATIVO BELO HORIZONTE - COMARCA; PROC. JUSTICA DE HABEAS CORPUS 5.883,73 353,02 0,00 0,00 0,00 0,00 6.236,75 686,04 735,87 0,00 1.421,91 4.814,84 457,00 0,00 30/09/2013
144 522100 ANA CAROLINA FERNANDINO VIDAL PEREIRA SANTOS OFICIAL DO MP ATIVO BELO HORIZONTE - COMARCA; EXTINTA - SECRETARIA ADMINISTRATIVA 2.772,23 0,00 0,00 0,00 0,00 0,00 2.772,23 304,95 56,74 0,00 361,69 2.410,54 692,00 0,00 30/09/2013
145 502400 ANA CAROLINA GONCALVES FERNANDES ANALISTA DO MP ATIVO ABRE CAMPO - COMARCA; ABRE CAMPO-PJ-01PJ 5.176,02 0,00 0,00 0,00 0,00 0,00 5.176,02 569,36 476,25 0,00 1.045,61 4.130,41 457,00 0,00 30/09/2013
146 529900 ANA CAROLINA GONCALVES PECANHA CHEQUER ANALISTA DO MP ATIVO MANHUAÇU - COMARCA; MANHUACU-PJ-04PJ 4.553,46 0,00 0,00 0,00 0,00 0,00 4.553,46 500,88 334,83 0,00 835,71 3.717,75 457,00 0,00 30/09/2013
147 431900 ANA CAROLINA MOTTA GUATIMOSIM ANALISTA DO MP ATIVO BELO HORIZONTE - COMARCA; PROC. JUSTICA DE HABEAS CORPUS 6.379,14 382,75 0,00 0,00 0,00 0,00 6.761,89 743,81 864,39 0,00 1.608,20 5.153,69 457,00 0,00 30/09/2013
148 539400 ANA CAROLINA REIS MACEDO ANALISTA DO MP ATIVO UBERABA - COMARCA; COORD REG PJ DEF EDUC DIR CRIANCA ADOL TRIANG 4.136,15 0,00 0,00 0,00 0,00 0,00 4.136,15 454,98 251,26 0,00 706,24 3.429,91 457,00 0,00 30/09/2013
149 490600 ANA CAROLINA XAVIER GODOY ANALISTA DO MP ATIVO BELO HORIZONTE - COMARCA; BH-18PJ VIOLENCIA DOMESTICA 5.698,20 0,00 0,00 0,00 0,00 0,00 5.698,20 626,80 604,06 0,00 1.230,86 4.467,34 457,00 0,00 30/09/2013
150 600300 ANA CAROLINE PEREIRA DINIZ ANALISTA DO MP ATIVO BELO HORIZONTE - COMARCA; COMB CRIMES PRAT POR AG POL MUN-SECRETARIA 4.136,15 0,00 0,00 0,00 0,00 0,00 4.136,15 454,98 251,26 0,00 706,24 3.429,91 457,00 0,00 30/09/2013
151 324800 ANA CECILIA MENDES DA SILVA OFICIAL DO MP ATIVO OURO FINO - COMARCA; OURO FINO-PJ-01PJ 5.344,58 1.068,92 0,00 0,00 0,00 0,00 6.413,50 705,49 731,83 0,00 1.437,32 4.976,18 692,00 0,00 30/09/2013
152 441300 ANA CLAUDIA ALKIMIM MIRANDA BOMTEMPO ANALISTA DO MP ATIVO MONTES CLAROS - COMARCA; MONTES CLAROS-PJ-11PJ 5.883,73 353,02 0,00 0,00 0,00 0,00 6.236,75 686,04 641,28 0,00 1.327,32 4.909,43 927,00 0,00 30/09/2013
153 379300 ANA CRISTINA ALVES FLAVIO ANALISTA DO MP ATIVO SÃO GOTARDO - COMARCA; SAO GOTARDO-PJ-01PJ 6.586,88 658,69 0,00 0,00 0,00 0,00 7.245,57 797,01 935,48 0,00 1.732,49 5.513,08 457,00 0,00 30/09/2013
154 461200 ANA CRISTINA ALVES PASCHOAL ANALISTA DO MP ATIVO SANTA LUZIA - COMARCA; SANTA LUZIA-PJ-03PJ 5.698,20 0,00 0,00 0,00 0,00 0,00 5.698,20 626,80 604,06 0,00 1.230,86 4.467,34 692,00 0,00 30/09/2013
155 514100 ANA CRISTINA ARAUJO ASSUNCAO ANALISTA DO MP ATIVO BELO HORIZONTE - COMARCA; ASSESS JUR DO CONS SUPERIOR DO MINISTERIO PUB 4.701,73 0,00 0,00 0,00 0,00 0,00 4.701,73 517,19 364,52 0,00 881,71 3.820,02 457,00 0,00 30/09/2013
156 113400 ANA CRISTINA BRAGA ALBUQUERQUE ANALISTA DO MP ATIVO BELO HORIZONTE - COMARCA; ASSESS ESP ADM E FINANCEIRA DO PGJ ADJ ADM 21.668,41 8.667,36 0,00 0,00 0,00 0,00 30.335,77 2.785,59 5.407,35 5.012,27 13.205,21 17.130,56 457,00 0,00 30/09/2013
157 233800 ANA CRISTINA BRAGA SOARES RIOS OFICIAL DO MP ATIVO CONTAGEM - COMARCA; CONTAGEM-PJ-SECRETARIA 4.761,94 1.035,20 0,00 0,00 0,00 0,00 5.797,14 683,23 615,75 0,00 1.298,98 4.498,16 457,00 0,00 30/09/2013
158 186400 ANA CRISTINA DE AZEVEDO LOPES OFICIAL DO MP ATIVO UBÁ - COMARCA; UBA-PJ-01PJ 7.731,26 1.546,25 0,00 0,00 0,00 0,00 9.277,51 1.020,53 1.432,80 0,00 2.453,33 6.824,18 457,00 0,00 30/09/2013
159 465100 ANA CRISTINA DE OLIVEIRA GUIMARAES ANALISTA DO MP ATIVO BRASÓPOLIS - COMARCA; BRASOPOLIS-PJ-UNPJ 5.698,20 0,00 0,00 0,00 0,00 0,00 5.698,20 626,80 604,06 0,00 1.230,86 4.467,34 457,00 0,00 30/09/2013
160 500600 ANA CRISTINA LATADO SUDARIO ANALISTA DO MP ATIVO UBERLÂNDIA - COMARCA; UBERLANDIA-PJ-07PJ 4.701,73 0,00 0,00 0,00 0,00 0,00 4.701,73 517,19 364,52 0,00 881,71 3.820,02 457,00 0,00 30/09/2013
161 331400 ANA CRISTINA RIBEIRO ALVES OFICIAL DO MP ATIVO BAMBUÍ - COMARCA; BAMBUI-PJ-UNPJ 4.854,78 485,48 0,00 0,00 0,00 0,00 5.340,26 637,79 628,49 0,00 1.266,28 4.073,98 457,00 457,80 30/09/2013
162 249300 ANA ELOINA MARTINS DO PINHO OFICIAL DO MP ATIVO BETIM - COMARCA; BETIM-PJ-06PJ 6.075,32 1.822,60 0,00 0,00 0,00 0,00 7.897,92 868,77 1.095,14 0,00 1.963,91 5.934,01 457,00 49,26 30/09/2013
163 257400 ANA FLAVIA CAMBRAIA ANALISTA DO MP ATIVO BELO HORIZONTE - COMARCA; BH-19PJ SAUDE-SECRETARIA 150PJ 9.074,45 1.814,89 0,00 0,00 0,00 0,00 10.889,34 1.197,83 1.827,29 0,00 3.025,12 7.864,22 457,00 0,00 30/09/2013
164 248201 ANA FLAVIA DE MORAIS SOUZA ANALISTA DO MP ATIVO DIVINÓPOLIS - COMARCA; DIVINOPOLIS-PJ-01PJ 5.698,20 1.139,64 0,00 0,00 0,00 0,00 6.837,84 752,16 882,98 0,00 1.635,14 5.202,70 457,00 0,00 30/09/2013
165 238600 ANA FLAVIA FRANCO CAMPOS OFICIAL DO MP ATIVO BELO HORIZONTE - COMARCA; DIRETORIA DE PESSOAL ADMINISTRATIVO - DPAD 6.075,32 1.215,06 0,00 0,00 0,00 0,00 7.290,38 801,94 993,74 0,00 1.795,68 5.494,70 457,00 0,00 30/09/2013
166 402900 ANA FLAVIA PORTES DE CARVALHO ANALISTA DO MP ATIVO BELO HORIZONTE - COMARCA; DIRET DE PLANOS PROJETOS E PROGRAMAS INST 6.586,88 658,69 0,00 0,00 0,00 0,00 7.245,57 898,84 1.162,06 0,00 2.060,90 5.184,67 692,00 925,74 30/09/2013
167 382700 ANA KARENINA SALDANHA GONTIJO ANALISTA DO MP ATIVO BELO HORIZONTE - COMARCA; ASSESS TECNICO-JUR JUNTO AS PROC. DE JUST 6.075,32 607,53 0,00 0,00 0,00 0,00 6.682,85 735,11 845,05 0,00 1.580,16 5.102,69 457,00 0,00 30/09/2013
168 220000 ANA LUCIA AMORIM OFICIAL DO MP ATIVO MARTINHO CAMPOS - COMARCA; MARTINHO CAMPOS-PJ-SECRETARIA 6.379,14 3.189,57 0,00 0,00 0,00 0,00 9.568,71 1.052,56 1.551,36 0,00 2.603,92 6.964,79 457,00 0,00 30/09/2013
169 462200 ANA LUCIA ANDRADE TOMICH OTTONI ANALISTA DO MP ATIVO TEÓFILO OTONI - COMARCA; TEOFILO OTONI-PJ-06PJ 5.698,20 0,00 0,00 0,00 0,00 0,00 5.698,20 626,80 509,47 0,00 1.136,27 4.561,93 692,00 0,00 30/09/2013
170 504100 ANA LUCIA CATAO DE CARVALHO OFICIAL DO MP ATIVO BELO HORIZONTE - COMARCA; BH-09PJ AUDITORIA MILITAR 3.051,96 0,00 0,00 0,00 0,00 0,00 3.051,96 335,72 62,51 0,00 398,23 2.653,73 692,00 0,00 30/09/2013
171 274700 ANA LUCIA DE ALENCAR BRAGATO OFICIAL DO MP ATIVO UBERABA - COMARCA; UBERABA-PJ-04PJ 5.883,73 588,37 0,00 0,00 0,00 0,00 6.472,10 711,93 746,18 0,00 1.458,11 5.013,99 457,00 0,00 30/09/2013
172 258600 ANA LUCIA DE FREITAS AZEVEDO ANALISTA DO MP ATIVO BELO HORIZONTE - COMARCA; BH-19PJ SAUDE-SECRETARIA 150PJ 9.674,93 1.934,99 0,00 0,00 0,00 0,00 11.609,92 1.375,61 2.270,14 0,00 3.645,75 7.964,17 457,00 895,59 30/09/2013
173 509400 ANA LUCIA DORNELAS MALLOSTO ANALISTA DO MP ATIVO JUIZ DE FORA - COMARCA; JUIZ DE FORA-PJ-18PJ 4.270,85 0,00 0,00 0,00 0,00 0,00 4.270,85 469,79 172,17 0,00 641,96 3.628,89 457,00 0,00 30/09/2013
174 524600 ANA LUCIA DOS SANTOS FERNANDES COELHO ASSESSOR ATIVO BELO HORIZONTE - COMARCA; CAO-MEIO AMBIENTE-SECRETARIA 0,00 0,00 3.698,79 0,00 0,00 0,00 3.698,79 123,28 330,31 0,00 453,59 3.245,20 457,00 0,00 30/09/2013
175 302600 ANA LUCIA LOPES SANTOS OFICIAL DO MP ATIVO BELO HORIZONTE - COMARCA; PROCON-MG-SECRETARIA DE FISCALIZACOES 5.344,58 1.575,24 0,00 0,00 0,00 0,00 6.919,82 685,84 974,33 0,00 1.660,17 5.259,65 457,00 390,60 30/09/2013
176 493400 ANA LUISA NOGUEIRA MOREIRA ANALISTA DO MP ATIVO BELO HORIZONTE - COMARCA; TRIBUNAL DO JURI-07 PJ-02 TRIBUNAL 5.698,20 0,00 0,00 0,00 0,00 0,00 5.698,20 626,80 604,06 0,00 1.230,86 4.467,34 457,00 0,00 30/09/2013
177 389300 ANA LUISA REUTER LIMA ANALISTA DO MP ATIVO BELO HORIZONTE - COMARCA; DIRETORIA DE SISTEMAS DE INFORMACAO 5.518,54 551,85 0,00 0,00 0,00 0,00 6.070,39 667,74 695,15 0,00 1.362,89 4.707,50 457,00 0,00 30/09/2013
178 480600 ANA LUIZA FERNANDES FRAGA E GRECO OFICIAL DO MP ATIVO SANTO ANTÔNIO DO MONTE - COMARCA; SANTO ANTONIO DO MONTE-PJ-UNPJ 3.359,85 0,00 0,00 0,00 0,00 0,00 3.359,85 369,58 127,94 0,00 497,52 2.862,33 457,00 0,00 30/09/2013
179 517800 ANA LUIZA MAGALHAES CIRINO PIOTO DE MELO OFICIAL DO MP ATIVO BELO HORIZONTE - COMARCA; DIRETORIA DE MANUTENCAO PREDIAL 2.772,23 0,00 0,00 0,00 0,00 0,00 2.772,23 304,95 56,74 0,00 361,69 2.410,54 457,00 0,00 30/09/2013
180 481400 ANA MARCIA CANDIDA FERREIRA OFICIAL DO MP ATIVO BRUMADINHO - COMARCA; BRUMADINHO-PJ-01PJ 3.051,96 0,00 0,00 0,00 0,00 0,00 3.051,96 335,72 86,84 0,00 422,56 2.629,40 457,00 0,00 30/09/2013
181 556400 ANA MARIA OLIVEIRA SOUZA OFICIAL DO MP ATIVO ITAPECERICA - COMARCA; ITAPECERICA-PJ-UNPJ 2.684,83 0,00 0,00 0,00 0,00 0,00 2.684,83 295,33 50,90 0,00 346,23 2.338,60 457,00 0,00 30/09/2013
182 409600 ANA OLIVIA FARIA ROSENBURG ANALISTA DO MP ATIVO BELO HORIZONTE - COMARCA; DIRETORIA DO COLEGIO E DA CAMARA DE PJ 6.379,14 1.275,83 0,00 0,00 0,00 0,00 7.654,97 842,05 1.082,97 0,00 1.925,02 5.729,95 692,00 0,00 30/09/2013
183 461500 ANA PAULA ALVES CARVALHO ANALISTA DO MP ATIVO UBERLÂNDIA - COMARCA; UBERLANDIA-PJ-08PJ 5.698,20 0,00 0,00 0,00 0,00 0,00 5.698,20 626,80 604,06 0,00 1.230,86 4.467,34 457,00 0,00 30/09/2013
184 523200 ANA PAULA ALVES DA SILVA OFICIAL DO MP ATIVO GOVERNADOR VALADARES - COMARCA; GOVERNADOR VALADARES-PJ-15PJ 3.359,85 0,00 0,00 0,00 0,00 0,00 3.359,85 369,58 127,94 0,00 497,52 2.862,33 457,00 0,00 30/09/2013
185 381200 ANA PAULA BARROS PEREIRA ASSESSOR/ANALISTA ATIVO BELO HORIZONTE - COMARCA; PROC JUST RECURSOS ESP E EXTRAORD CRIMINAIS 0,00 748,75 7.487,46 0,00 0,00 0,00 8.236,21 797,01 1.255,20 0,00 2.052,21 6.184,00 457,00 0,00 30/09/2013
186 227200 ANA PAULA DA SILVA CAMPOLINA ANALISTA DO MP ATIVO BELO HORIZONTE - COMARCA; SUPERINTENDENCIA DE FINANCAS 10.315,17 3.094,55 0,00 0,00 0,00 0,00 13.409,72 1.475,07 2.491,45 0,00 3.966,52 9.443,20 457,00 0,00 30/09/2013
187 84200 ANA PAULA DE SOUZA ROCHA OFICIAL DO MP ATIVO BELO HORIZONTE - COMARCA; ASSESS ESP ADM E FINANCEIRA DO PGJ ADJ ADM 20.365,45 8.146,19 0,00 0,00 0,00 0,00 28.511,64 2.785,59 5.312,76 3.188,14 11.286,49 17.225,15 457,00 15,10 30/09/2013
188 278500 ANA PAULA DIAS CAPANEMA COORDENADOR/OFICIAL ATIVO BELO HORIZONTE - COMARCA; EXTINTA - DIRETORIA DE MATERIAL E PATRIMONIO 0,00 967,49 9.674,93 0,00 0,00 0,00 10.642,42 711,93 1.940,30 0,00 2.652,23 7.990,19 457,00 0,00 30/09/2013
189 327300 ANA PAULA GARCIA MAXIMO OFICIAL DO MP ATIVO UNAÍ - COMARCA; UNAI-PJ-01PJ 5.344,58 1.603,37 0,00 0,00 0,00 0,00 6.947,95 764,27 768,06 0,00 1.532,33 5.415,62 692,00 0,00 30/09/2013
190 270000 ANA PAULA GOULART CRUZ DE MAGALHAES ANALISTA DO MP ATIVO BELO HORIZONTE - COMARCA; COMB CRIMES PRAT POR AG POL MUN-ASSESSORIA 7.022,72 702,27 0,00 0,00 0,00 0,00 7.724,99 849,75 1.100,11 0,00 1.949,86 5.775,13 457,00 0,00 30/09/2013
191 262100 ANA PAULA KOMATSUZAKI ABIJAUDI ANALISTA DO MP ATIVO BELO HORIZONTE - COMARCA; BH-17PJ PATRIMONIO PUBLICO-SECRETARIA 9.074,45 2.722,34 0,00 0,00 0,00 0,00 11.796,79 1.297,65 2.002,10 0,00 3.299,75 8.497,04 692,00 0,00 30/09/2013
192 278900 ANA PAULA MOREIRA GURGEL ANALISTA DO MP ATIVO BELO HORIZONTE - COMARCA; EXTINTA - DIRETORIA DE CONTRATOS E CONVÊNIOS 9.674,93 2.902,48 0,00 0,00 0,00 0,00 12.577,41 1.383,52 2.287,74 0,00 3.671,26 8.906,15 457,00 0,00 30/09/2013
193 425700 ANA PAULA ROCHA ASSESSOR/OFICIAL ATIVO BELO HORIZONTE - COMARCA; SUPERINTENDENCIA DE COMUNICACAO INTEGRADA 0,00 353,02 5.883,73 0,00 0,00 0,00 6.236,75 482,28 791,90 0,00 1.274,18 4.962,57 457,00 0,00 30/09/2013
194 395601 ANA PAULA SALGE OLIVEIRA ANALISTA DO MP ATIVO UBERABA - COMARCA; COORD REG PJ DEF EDUC DIR CRIANCA ADOL TRIANG 5.176,02 1.035,20 0,00 0,00 0,00 0,00 6.211,22 683,23 729,62 0,00 1.412,85 4.798,37 457,00 0,00 30/09/2013
195 473200 ANA PAULA SCOTTON BRASIL ANALISTA DO MP ATIVO JUIZ DE FORA - COMARCA; JUIZ DE FORA-PJ-09PJ 5.176,02 0,00 0,00 0,00 0,00 0,00 5.176,02 569,36 476,25 0,00 1.045,61 4.130,41 457,00 0,00 30/09/2013
196 558900 ANA PAULA TAVARES PONTELLO NEVES ANALISTA DO MP ATIVO BELO HORIZONTE - COMARCA; BH-19PJ SAUDE 4.136,15 0,00 0,00 0,00 0,00 0,00 4.136,15 454,98 251,26 0,00 706,24 3.429,91 457,00 0,00 30/09/2013
197 470900 ANA PAULA VALADARES ANALISTA DO MP ATIVO PITANGUI - COMARCA; PITANGUI-PJ-01PJ 5.698,20 0,00 0,00 0,00 0,00 0,00 5.698,20 626,80 509,47 0,00 1.136,27 4.561,93 692,00 0,00 30/09/2013
198 447000 ANA PAULA VALENTIM DE ARAUJO ANALISTA DO MP ATIVO BELO HORIZONTE - COMARCA; BH-08PJ JUIZADO ESPECIAL 5.883,73 353,02 0,00 0,00 0,00 0,00 6.236,75 686,04 735,87 0,00 1.421,91 4.814,84 457,00 0,00 30/09/2013
199 505400 ANA PAULA VIEIRA SOUTO OFICIAL DO MP ATIVO ALMENARA - COMARCA; COORD. PAT. PUBLICO-MUCURI/JEQUIT - ALMENARA 2.772,23 554,45 0,00 0,00 0,00 0,00 3.326,68 365,93 97,72 0,00 463,65 2.863,03 692,00 0,00 30/09/2013
200 280200 ANA RACHEL BRANDAO LADEIRA ROLAND COORDENADOR/ANALISTA ATIVO BELO HORIZONTE - COMARCA; ASSESSORIA JURIDICO-ADMINISTRATIVA 0,00 1.254,01 12.540,10 0,00 0,00 0,00 13.794,11 1.063,39 2.710,37 0,00 3.773,76 10.020,35 692,00 0,00 30/09/2013
201 601200 ANA REGINA RIBEIRO ANALISTA DO MP ATIVO BELO HORIZONTE - COMARCA; EXTINTA - DIVISAO DE SERVICOS GERAIS 4.136,15 0,00 0,00 0,00 0,00 0,00 4.136,15 818,96 1.031,60 0,00 1.850,56 2.285,59 830,91 3.308,92 30/09/2013
202 384700 ANA RODRIGUES PEREIRA MARRA ANALISTA DO MP ATIVO COROMANDEL - COMARCA; COROMANDEL-PJ-SECRETARIA 5.518,54 551,85 0,00 0,00 0,00 0,00 6.070,39 724,99 775,22 0,00 1.500,21 4.570,18 457,00 520,40 30/09/2013
203 232700 ANA SILVIA SEMBLANO NAKAMURA ASSESSOR/OFICIAL ATIVO BELO HORIZONTE - COMARCA; CENT DE APOIO TEC-SETOR DEF,IDOSO E INFANC 0,00 1.497,49 7.487,46 0,00 0,00 0,00 8.984,95 776,65 1.466,70 0,00 2.243,35 6.741,60 457,00 0,00 30/09/2013
204 326700 ANA TERCIA DE FATIMA COSTA OFICIAL DO MP ATIVO NOVA SERRANA - COMARCA; NOVA SERRANA-PJ-01PJ 5.344,58 534,46 0,00 0,00 0,00 646,69 6.525,73 646,69 778,86 0,00 1.425,55 5.100,18 457,00 0,00 30/09/2013
205 310400 ANADEJE DO CARMO DINIZ ARAUJO OFICIAL DO MP ATIVO BELO HORIZONTE - COMARCA; CENT DE ATENDIMENTO E ORIENTACAO DE PESSOAL 5.344,58 534,46 0,00 0,00 0,00 0,00 5.879,04 646,69 648,32 0,00 1.295,01 4.584,03 692,00 0,00 30/09/2013
206 337000 ANAILDES MARIA MENDES OFICIAL DO MP ATIVO JANAÚBA - COMARCA; JANAUBA-PJ-02PJ 4.409,86 440,99 0,00 0,00 0,00 0,00 4.850,85 533,59 396,67 0,00 930,26 3.920,59 457,00 0,00 30/09/2013
207 192900 ANATALIA CERQUEIRA LIMA PERES OFICIAL DO MP ATIVO UBERABA - COMARCA; COORD REG SAUDE MACROR SANIT TRIANGULO SUL 5.344,58 1.068,92 0,00 0,00 0,00 0,00 6.413,50 705,49 779,12 0,00 1.484,61 4.928,89 457,00 5,27 30/09/2013
208 377400 ANDEIRSON DA MATTA BARBOSA ANALISTA DO MP ATIVO POUSO ALEGRE - COMARCA; POUSO ALEGRE-PJ-01PJ 6.075,32 607,53 0,00 0,00 0,00 0,00 6.682,85 735,11 845,05 0,00 1.580,16 5.102,69 457,00 0,00 30/09/2013
209 317400 ANDERSON DA SILVA BICALHO OFICIAL DO MP ATIVO CONTAGEM - COMARCA; CONTAGEM-PJ-SECRETARIA 4.854,78 485,48 0,00 0,00 0,00 0,00 5.340,26 587,43 376,31 0,00 963,74 4.376,52 927,00 0,00 30/09/2013
210 506900 ANDERSON DE SOUZA DAMIANI ANALISTA DO MP ATIVO BELO HORIZONTE - COMARCA; DIRETORIA DE PAGAMENTO DE PESSOAL-DPAG 4.701,73 940,35 0,00 0,00 1.880,69 0,00 7.522,77 620,63 1.107,51 0,00 1.728,14 5.794,63 457,00 0,00 30/09/2013
211 410000 ANDERSON DE SOUZA NETO ASSESSOR ATIVO BELO HORIZONTE - COMARCA; DIRETORIA DE ADMINISTRACAO FINANCEIRA 0,00 0,00 3.698,79 0,00 0,00 0,00 3.698,79 457,14 255,20 0,00 712,34 2.986,45 457,00 0,00 30/09/2013
212 181900 ANDERSON FLAVIO DE OLIVEIRA OFICIAL DO MP ATIVO ITAGUARA - COMARCA; ITAGUARA-PJ-SECRETARIA 6.379,14 1.275,83 0,00 0,00 0,00 0,00 7.654,97 842,05 1.082,97 0,00 1.925,02 5.729,95 457,00 0,00 30/09/2013
213 119500 ANDERSON FUNGHI DE AZEVEDO ROCHA DIRETOR/OFICIAL ATIVO BELO HORIZONTE - COMARCA; SUPRIN DE PLANEJAMENTO E COORDENACAO 0,00 8.778,07 12.540,10 0,00 0,00 0,00 21.318,17 1.643,42 4.478,10 0,00 6.121,52 15.196,65 1.677,14 111,85 30/09/2013
214 333200 ANDERSON JOSE DE FREITAS OFICIAL DO MP ATIVO IPATINGA - COMARCA; IPATINGA-PJ-07PJ 4.409,86 440,99 0,00 0,00 0,00 0,00 4.850,85 533,59 317,00 0,00 850,59 4.000,26 457,00 0,00 30/09/2013
215 462100 ANDERSON LUIZ GUIMARAES CARDOSO ANALISTA DO MP ATIVO BARBACENA - COMARCA; BARBACENA-PJ-SECRETARIA 5.698,20 0,00 0,00 0,00 0,00 0,00 5.698,20 626,80 604,06 0,00 1.230,86 4.467,34 457,00 0,00 30/09/2013
216 429700 ANDERSON MELO DE SOUZA OFICIAL DO MP ATIVO BELO HORIZONTE - COMARCA; DIRET DE ESTAGIOS E CONVENIOS ACADEMICOS 3.469,26 208,16 0,00 0,00 0,00 0,00 3.677,42 404,52 170,34 0,00 574,86 3.102,56 457,00 0,00 30/09/2013
217 545600 ANDERSON MENDES PROCOPIO FERREIRA ANALISTA DO MP ATIVO BARBACENA - COMARCA; BARBACENA-PJ-SECRETARIA 4.136,15 0,00 0,00 0,00 0,00 0,00 4.136,15 454,98 251,26 0,00 706,24 3.429,91 457,00 0,00 30/09/2013
218 519900 ANDERSON MOREIRA DOEHLER ANALISTA DO MP ATIVO NOVO CRUZEIRO - COMARCA; NOVO CRUZEIRO-PJ-UNPJ 5.012,79 1.002,56 0,00 0,00 0,00 0,00 6.015,35 661,69 681,68 0,00 1.343,37 4.671,98 457,00 0,00 30/09/2013
219 103000 ANDERSON TADEU DE DEUS ASSESSOR ATIVO BELO HORIZONTE - COMARCA; EXTINTA - DIVISAO DE TRANSPORTES 0,00 1.849,40 3.698,79 0,00 0,00 0,00 5.548,19 457,49 735,04 0,00 1.192,53 4.355,66 692,00 0,00 30/09/2013
220 309200 ANDITYAS SOARES DE MOURA COSTA MATOS ANALISTA DO MP ATIVO BELO HORIZONTE - COMARCA; GABINETE DE PROCURADOR DE JUSTIÇA - SALA 909 7.487,46 1.497,49 0,00 0,00 0,00 0,00 8.984,95 988,34 1.408,49 0,00 2.396,83 6.588,12 457,00 0,00 30/09/2013
221 338701 ANDRE BARBUTO VITORINO ANALISTA DO MP ATIVO AIMORÉS - COMARCA; AIMORES-PJ-UNPJ 6.379,14 382,75 0,00 0,00 2.253,96 0,00 9.015,85 743,81 1.484,23 0,00 2.228,04 6.787,81 457,00 0,00 30/09/2013
222 519200 ANDRE BORJA LANA ANALISTA DO MP ATIVO BELO HORIZONTE - COMARCA; DIRETORIA DE IMPRENSA 4.701,73 0,00 0,00 0,00 0,00 0,00 4.701,73 517,19 364,52 0,00 881,71 3.820,02 457,00 0,00 30/09/2013
223 521900 ANDRE LUIS GOMES SILVA ANALISTA DO MP ATIVO FORMIGA - COMARCA; FORMIGA-PJ-01PJ 4.701,73 0,00 0,00 0,00 0,00 0,00 4.701,73 517,19 325,83 0,00 843,02 3.858,71 457,00 0,00 30/09/2013
224 534200 ANDRE LUIS PEREIRA OFICIAL DO MP ATIVO VARZEA DA PALMA - COMARCA; VARZEA DA PALMA-PJ-02PJ 2.684,83 0,00 0,00 0,00 0,00 0,00 2.684,83 295,33 50,90 0,00 346,23 2.338,60 457,00 0,00 30/09/2013
225 304300 ANDRE LUIZ AVELAR ANALISTA DO MP ATIVO BELO HORIZONTE - COMARCA; DIRETORIA DE REDES E BANCOS DE DADOS 5.883,73 588,37 0,00 0,00 0,00 0,00 6.472,10 730,24 834,19 0,00 1.564,43 4.907,67 457,00 166,41 30/09/2013
226 397400 ANDRE PATARO MYRRHA DE PAULA E SILVA ASSESSOR/ANALISTA ATIVO BELO HORIZONTE - COMARCA; ASSESSORIA JURIDICO-ADMINISTRATIVA 0,00 748,75 7.487,46 0,00 0,00 0,00 8.236,21 735,11 1.272,22 0,00 2.007,33 6.228,88 457,00 0,00 30/09/2013
227 548500 ANDRE VINICIUS CARVALHO MEIRA ANALISTA DO MP ATIVO JUIZ DE FORA - COMARCA; JUIZ DE FORA-PJ-19PJ 4.136,15 0,00 0,00 0,00 0,00 0,00 4.136,15 454,98 251,26 0,00 706,24 3.429,91 457,00 0,00 30/09/2013
228 297200 ANDRE WILLE ROSARIO ANALISTA DO MP ATIVO BELO HORIZONTE - COMARCA; ASSESSORIA ESPECIAL DO PGJ 8.788,36 878,84 0,00 0,00 0,00 0,00 9.667,20 1.063,39 1.433,59 0,00 2.496,98 7.170,22 927,00 0,00 30/09/2013
229 423600 ANDREA COSTA GUALBERTO ANALISTA DO MP ATIVO GOVERNADOR VALADARES - COMARCA; COORD REG PJ DEF EDU DIR CRIANCA ADOL RIODOCE 5.883,73 2.941,87 0,00 0,00 0,00 0,00 8.825,60 987,46 1.359,22 0,00 2.346,68 6.478,92 692,00 151,30 30/09/2013
230 198600 ANDREA CRISTINA ANDRADE COSTA E SOUZA OFICIAL DO MP ATIVO MONTES CLAROS - COMARCA; MONTES CLAROS-PJ-SECRETARIA 7.731,26 1.546,25 0,00 0,00 0,00 0,00 9.277,51 1.020,53 1.385,51 0,00 2.406,04 6.871,47 457,00 0,00 30/09/2013
231 467300 ANDREA DE CASSIA PENNA ALVERNAZ ANALISTA DO MP ATIVO PONTE NOVA - COMARCA; PONTE NOVA-PJ-SECRETARIA 5.698,20 0,00 0,00 0,00 0,00 0,00 5.698,20 626,80 556,76 0,00 1.183,56 4.514,64 692,00 0,00 30/09/2013
232 308000 ANDREA DE CASSIA SANTOS OLIVEIRA ANALISTA DO MP ATIVO BELO HORIZONTE - COMARCA; ASSESS TECNICO-JUR JUNTO AS PROC. DE JUST 8.788,36 878,84 0,00 0,00 0,00 0,00 9.667,20 1.063,39 1.528,18 0,00 2.591,57 7.075,63 692,00 0,00 30/09/2013
233 349500 ANDREA DE OLIVEIRA OFICIAL DO MP ATIVO IGUATAMA - COMARCA; IGUATAMA-PJ-UNPJ 5.012,79 501,28 0,00 0,00 0,00 0,00 5.514,07 606,55 511,70 0,00 1.118,25 4.395,82 692,00 0,00 30/09/2013
234 254700 ANDREA EMISE REIS DE AZEVEDO COORDENADOR/OFICIAL ATIVO BELO HORIZONTE - COMARCA; COMB CRIMES PRAT POR AG POL MUN-SECRETARIA 0,00 1.702,24 8.511,21 0,00 0,00 0,00 10.213,45 776,65 1.804,54 0,00 2.581,19 7.632,26 457,00 0,00 30/09/2013
235 287900 ANDREA FERNANDES PENA OFICIAL DO MP ATIVO MONTES CLAROS - COMARCA; MONTES CLAROS-PJ-09PJ 5.518,54 551,85 0,00 0,00 0,00 0,00 6.070,39 667,74 600,57 0,00 1.268,31 4.802,08 457,00 0,00 30/09/2013
236 300800 ANDREA FERREIRA ANALISTA DO MP ATIVO LAVRAS - COMARCA; LAVRAS-PJ-04PJ 7.982,93 798,29 0,00 0,00 0,00 0,00 8.781,22 965,93 1.358,62 0,00 2.324,55 6.456,67 457,00 0,00 30/09/2013
237 316700 ANDREA FRANCISCA DIAS DE SOUZA ASSESSOR ATIVO BELO HORIZONTE - COMARCA; BH-14PJ DEFESA CONSUMIDOR-SECRETARIA 0,00 0,00 2.215,31 0,00 0,00 0,00 2.215,31 293,95 50,07 0,00 344,02 1.871,29 457,00 0,00 30/09/2013
238 395100 ANDREA LANNA MENDES NOVAIS ANALISTA DO MP ATIVO BELO HORIZONTE - COMARCA; PROMOT ESTADUAL DE DEF PATRI CULT E TUR DE MG 6.586,88 658,69 0,00 0,00 0,00 0,00 7.245,57 797,01 935,48 0,00 1.732,49 5.513,08 927,00 0,00 30/09/2013
239 67300 ANDREA LEAO MAGALHAES ROQUE ASSESSOR ATIVO BELO HORIZONTE - COMARCA; COORD DE CONT. DA CONSTITUCIONALIDADE-SEC 0,00 3.743,73 7.487,46 0,00 0,00 0,00 11.231,19 457,49 2.203,28 0,00 2.660,77 8.570,42 457,00 0,00 30/09/2013
240 335700 ANDREA LOPES PEREIRA ANALISTA DO MP ATIVO GOVERNADOR VALADARES - COMARCA; COORD REG DO MA DA BACIA DO RIO DOCE 7.982,93 798,29 0,00 0,00 0,00 0,00 8.781,22 965,93 1.358,62 0,00 2.324,55 6.456,67 457,00 0,00 30/09/2013
241 389200 ANDREA TUPINI DOS SANTOS TRISTAO DA ROCHA OFICIAL DO MP ATIVO DIVINO - COMARCA; DIVINO-PJ-UNPJ 3.469,26 346,93 0,00 0,00 0,00 0,00 3.816,19 455,77 214,02 0,00 669,79 3.146,40 457,00 327,20 30/09/2013
242 419000 ANDREIA BARBOSA DE ALMEIDA ANALISTA DO MP ATIVO BELO HORIZONTE - COMARCA; PROC. JUSTICA DE HABEAS CORPUS 6.379,14 382,75 0,00 0,00 0,00 0,00 6.761,89 743,81 864,39 0,00 1.608,20 5.153,69 457,00 0,00 30/09/2013
243 281501 ANDREIA CARLA COSTA FILGUEIRAS ANALISTA DO MP ATIVO VISCONDE DO RIO BRANCO - COMARCA; VISCONDE DO RIO BRANCO-PJ-02PJ 6.379,14 382,75 0,00 0,00 0,00 0,00 6.761,89 807,56 911,67 0,00 1.719,23 5.042,66 457,00 579,60 30/09/2013
244 477100 ANDREIA DE ALMEIDA RIBEIRO MELO OFICIAL DO MP ATIVO CONTAGEM - COMARCA; CONTAGEM-PJ-07PJ 3.359,85 0,00 0,00 0,00 0,00 0,00 3.359,85 369,58 127,94 0,00 497,52 2.862,33 457,00 0,00 30/09/2013
245 100200 ANDREIA FERREIRA MATTOZINHOS COORDENADOR/ANALISTA ATIVO BELO HORIZONTE - COMARCA; DIRET DE ESTAGIOS E CONVENIOS ACADEMICOS 15.829,88 13.402,91 0,00 0,00 0,00 2.785,59 32.018,38 2.785,59 6.173,38 3.909,29 12.868,26 19.150,12 3.833,47 309,51 30/09/2013
246 424000 ANDREIA LUCIA COUTO ANALISTA DO MP ATIVO BELO HORIZONTE - COMARCA; BH-18PJ DIREITOS HUMANOS 6.379,14 382,75 0,00 0,00 0,00 0,00 6.761,89 743,81 864,39 0,00 1.608,20 5.153,69 692,00 0,00 30/09/2013
247 370100 ANDREIA MARIA SILVA PINTO OFICIAL DO MP ATIVO CORONEL FABRICIANO - COMARCA; CORONEL FABRICIANO-PJ-01PJ 4.701,73 470,17 0,00 0,00 0,00 0,00 5.171,90 568,91 475,24 0,00 1.044,15 4.127,75 457,00 0,00 30/09/2013
248 382100 ANDREIA NATALI PEREIRA OFICIAL DO MP ATIVO PRADOS - COMARCA; PRADOS-PJ-UNPJ 4.701,73 470,17 0,00 0,00 0,00 0,00 5.171,90 568,91 475,24 0,00 1.044,15 4.127,75 457,00 0,00 30/09/2013
249 198700 ANDREIA NUNES DURAES OFICIAL DO MP ATIVO MONTES CLAROS - COMARCA; MONTES CLAROS-PJ-06PJ 7.982,93 1.596,59 0,00 0,00 0,00 0,00 9.579,52 1.053,75 1.506,72 0,00 2.560,47 7.019,05 457,00 0,00 30/09/2013
250 275200 ANDREIA RIBEIRO FREITAS OFICIAL DO MP ATIVO VIÇOSA - COMARCA; VICOSA-PJ-03PJ 5.883,73 1.176,75 0,00 0,00 0,00 0,00 7.060,48 776,65 842,89 0,00 1.619,54 5.440,94 692,00 0,00 30/09/2013
251 352200 ANDREIA XAVIER PEREIRA OFICIAL DO MP ATIVO CLÁUDIO - COMARCA; CLAUDIO-PJ-UNPJ 5.012,79 501,28 0,00 0,00 0,00 0,00 5.514,07 606,55 558,99 0,00 1.165,54 4.348,53 457,00 0,00 30/09/2013
252 383700 ANDRESSA EDUARDO SOUZA ANALISTA DO MP ATIVO OURO BRANCO - COMARCA; OURO BRANCO-PJ-SECRETARIA 6.586,88 658,69 0,00 0,00 0,00 0,00 7.245,57 797,01 982,77 0,00 1.779,78 5.465,79 457,00 0,00 30/09/2013
253 426200 ANDRESSA MENDES CASAL ASSESSOR/OFICIAL ATIVO BELO HORIZONTE - COMARCA; BH-12PJ JUIZO CRIMINAL-SECRETARIA 0,00 353,02 5.883,73 0,00 0,00 0,00 6.236,75 438,08 804,05 0,00 1.242,13 4.994,62 457,00 0,00 30/09/2013
254 390100 ANDRESSA RIBEIRO PUCCI OFICIAL DO MP ATIVO UBERABA - COMARCA; UBERABA-PJ-14PJ 3.879,42 387,94 0,00 0,00 0,00 0,00 4.267,36 469,41 277,54 0,00 746,95 3.520,41 457,00 0,00 30/09/2013
255 462500 ANDREZA APARECIDA COSTA E SILVA ANALISTA DO MP ATIVO CONSELHEIRO LAFAIETE - COMARCA; CONSELHEIRO LAFAIETE-PJ-02PJ 5.698,20 0,00 0,00 0,00 0,00 0,00 5.698,20 626,80 604,06 0,00 1.230,86 4.467,34 457,00 0,00 30/09/2013
256 537800 ANDREZZA LUZIA DE OLIVEIRA ALVES ANALISTA DO MP ATIVO PATOS DE MINAS - COMARCA; COORD REG PJ DEF EDU DIR CRI ADO AL PAR NOROE 4.136,15 0,00 0,00 0,00 0,00 0,00 4.136,15 454,98 179,98 0,00 634,96 3.501,19 457,00 0,00 30/09/2013
257 491600 ANE PATRICIA RIBEIRO ANALISTA DO MP ATIVO SETE LAGOAS - COMARCA; SETE LAGOAS-PJ-10PJ 5.698,20 0,00 0,00 0,00 0,00 0,00 5.698,20 626,80 556,76 0,00 1.183,56 4.514,64 692,00 0,00 30/09/2013
258 465800 ANELISE GAMA ASSESSOR ATIVO BELO HORIZONTE - COMARCA; BH-18PJ VIOLENCIA DOMESTICA 0,00 0,00 3.698,79 0,00 1.232,93 0,00 4.931,72 457,14 565,60 0,00 1.022,74 3.908,98 457,00 0,00 30/09/2013
259 535200 ANELIZE FERNANDA ALVES VILARINHO OFICIAL DO MP ATIVO CAPINÓPOLIS - COMARCA; CAPINOPOLIS-PJ-UNPJ 2.684,83 0,00 0,00 0,00 0,00 0,00 2.684,83 320,64 68,54 0,00 389,18 2.295,65 746,66 230,10 30/09/2013
260 197200 ANGELA COELHO SALDANHA OLIVEIRA OFICIAL DO MP ATIVO PARÁ DE MINAS - COMARCA; PARA DE MINAS-PJ-03PJ 7.982,93 2.394,88 0,00 0,00 0,00 0,00 10.377,81 1.141,56 1.749,39 0,00 2.890,95 7.486,86 457,00 0,00 30/09/2013
261 307400 ANGELA CRISTINA GONCALVES MUNIZ ANALISTA DO MP ATIVO UBERLÂNDIA - COMARCA; UBERLANDIA-COORD CONJ-FAMÍLIA E JUIZ ESP CRIM 8.788,36 1.757,67 0,00 0,00 0,00 0,00 10.546,03 1.160,06 1.743,27 0,00 2.903,33 7.642,70 692,00 0,00 30/09/2013
262 191800 ANGELA MARIA DE OLIVEIRA OFICIAL DO MP ATIVO GUARANÉSIA - COMARCA; GUARANESIA-PJ-SECRETARIA 7.982,93 3.193,17 0,00 0,00 0,00 0,00 11.176,10 1.229,37 1.897,48 0,00 3.126,85 8.049,25 3.833,47 309,51 30/09/2013
263 69900 ANGELA MARIA DE PAULA CUNHA OFICIAL DO MP ATIVO JUIZ DE FORA - COMARCA; JUIZ DE FORA-PJ-11PJ 8.788,36 4.394,18 0,00 0,00 0,00 0,00 13.182,54 1.450,08 2.341,26 0,00 3.791,34 9.391,20 457,00 0,00 30/09/2013
264 497400 ANGELA MARIA HENRIQUES ANALISTA DO MP ATIVO BELO HORIZONTE - COMARCA; COORD REG BACIAS RIO VELHAS E PARAOPEBA 4.701,73 0,00 0,00 0,00 0,00 0,00 4.701,73 517,19 364,52 0,00 881,71 3.820,02 927,00 0,00 30/09/2013
265 260700 ANGELICA CRISTINA AZEVEDO MOREIRA MOUCO OFICIAL DO MP ATIVO UBÁ - COMARCA; UBA-PJ-02PJ 5.698,20 1.139,64 0,00 0,00 0,00 0,00 6.837,84 752,16 835,69 0,00 1.587,85 5.249,99 457,00 0,00 30/09/2013
266 334600 ANGELICA PANISSA DE FREITAS OFICIAL DO MP ATIVO GUAXUPÉ - COMARCA; GUAXUPE-PJ-02PJ 4.409,86 881,97 0,00 0,00 0,00 0,00 5.291,83 582,10 504,60 0,00 1.086,70 4.205,13 457,00 0,00 30/09/2013
267 521100 ANGELICA SALES MOREIRA OFICIAL DO MP ATIVO BELO HORIZONTE - COMARCA; BH-02PJ FAMILIA-SECRETARIA 3.051,96 0,00 0,00 0,00 0,00 0,00 3.051,96 366,49 124,18 0,00 490,67 2.561,29 457,00 279,73 30/09/2013
268 466500 ANGELLO MARQUES AGRELLI ANALISTA DO MP ATIVO MAR DE ESPANHA - COMARCA; MAR DE ESPANHA-PJ-UNPJ 5.698,20 0,00 0,00 0,00 0,00 0,00 5.698,20 626,80 604,06 0,00 1.230,86 4.467,34 585,00 0,00 30/09/2013
269 363300 ANGELO VERDOLIN HENRIQUES ANALISTA DO MP ATIVO SETE LAGOAS - COMARCA; SETE LAGOAS-PJ-04PJ 7.731,26 1.546,25 0,00 0,00 0,00 0,00 9.277,51 1.020,53 1.480,09 0,00 2.500,62 6.776,89 692,00 0,00 30/09/2013
270 250900 ANISIO APARECIDO SANTOS OFICIAL DO MP ATIVO CONTAGEM - COMARCA; CONTAGEM-PJ-19PJ 4.409,86 881,97 0,00 0,00 0,00 0,00 5.291,83 582,10 140,78 0,00 722,88 4.568,95 457,00 0,00 30/09/2013
271 253400 ANNA FLAVIA LEHMAN BATTAGLIA ASSESSOR ESPECIAL ATIVO BELO HORIZONTE - COMARCA; GABINETE DO PROCURADOR-GERAL DE JUSTICA 17.785,38 3.557,08 0,00 0,00 0,00 0,00 21.342,46 1.197,83 4.607,32 0,00 5.805,15 15.537,31 692,00 0,00 30/09/2013
272 447600 ANNGELUCE ALCANTARA DE CAMPOS OFICIAL DO MP ATIVO DIVINÓPOLIS - COMARCA; DIVINOPOLIS-PJ-10PJ 3.151,29 315,13 0,00 0,00 0,00 0,00 3.466,42 381,31 142,17 0,00 523,48 2.942,94 457,00 0,00 30/09/2013
273 119600 ANSELMO BORGES PARREIRAS OFICIAL DO MP ATIVO BONFIM - COMARCA; BONFIM-PJ-UNPJ 5.012,79 3.508,96 0,00 0,00 0,00 0,00 8.521,75 937,39 1.247,83 0,00 2.185,22 6.336,53 457,00 0,00 30/09/2013
274 194800 ANTONIA MARIA AFONSO DE SOUZA OFICIAL DO MP ATIVO ITAPAGIPE - COMARCA; ITAPAGIPE-PJ-SECRETARIA 7.487,46 3.743,73 0,00 0,00 0,00 0,00 11.231,19 1.235,43 1.910,96 0,00 3.146,39 8.084,80 457,00 0,00 30/09/2013
275 332400 ANTONIA MARIA MAMEDE OFICIAL DO MP ATIVO ARAGUARI - COMARCA; ARAGUARI-PJ-05PJ 5.176,02 517,60 0,00 0,00 0,00 0,00 5.693,62 626,30 555,64 0,00 1.181,94 4.511,68 457,00 0,00 30/09/2013
276 401600 ANTONIO CARLOS GUEDES AROUCA ANALISTA DO MP ATIVO BELO HORIZONTE - COMARCA; EXTINTA - CAO-IDOSOS PESSOAS DEFIC-SEC ADM 6.586,88 658,69 0,00 0,00 0,00 0,00 7.245,57 797,01 982,77 0,00 1.779,78 5.465,79 457,00 0,00 30/09/2013
277 7100 ANTONIO DO NASCIMENTO OLIVEIRA ASSESSOR ATIVO BELO HORIZONTE - COMARCA; GAECO - SECRETARIA 0,00 1.993,78 2.215,31 0,00 0,00 0,00 4.209,09 457,49 369,94 0,00 827,43 3.381,66 457,00 0,00 30/09/2013
278 59400 ANTONIO GOBIRA DE ALCANTARA AGENTE DO MP ATIVO BELO HORIZONTE - COMARCA; EXTINTA - DIVISAO DE TRANSPORTES 4.854,78 3.398,34 0,00 0,00 0,00 0,00 8.253,12 1.296,91 2.095,05 0,00 3.391,96 4.861,16 457,00 3.537,00 30/09/2013
279 333900 ANTONIO GONCALVES DE SOUZA FILHO OFICIAL DO MP ATIVO BELO HORIZONTE - COMARCA; ARQUIVO DO MINISTERIO PUBLICO DO ESTADO DE MG 5.012,79 501,28 0,00 0,00 0,00 0,00 5.514,07 606,55 558,99 0,00 1.165,54 4.348,53 457,00 0,00 30/09/2013
280 119700 ANTONIO LISBOA MACIEL OFICIAL DO MP ATIVO JABOTICATUBAS - COMARCA; JABOTICATUBAS-PJ-SECRETARIA 4.005,77 3.204,62 0,00 0,00 0,00 0,00 7.210,39 793,14 832,29 0,00 1.625,43 5.584,96 457,00 0,00 30/09/2013
281 176100 ANTONIO MARCELO CAMPOS CAMPANELLA OFICIAL DO MP ATIVO BELO HORIZONTE - COMARCA; SUPERINTENDENCIA DE RECURSOS HUMANOS 7.982,93 2.394,88 0,00 0,00 0,00 0,00 10.377,81 1.141,56 1.749,39 0,00 2.890,95 7.486,86 4.068,47 309,51 30/09/2013
282 119800 ANTONIO MARCIANO DE PAULA AGENTE DO MP ATIVO BELO HORIZONTE - COMARCA; DIRETORIA DE MANUTENCAO PREDIAL 3.879,42 3.491,48 0,00 0,00 0,00 810,80 8.181,70 810,80 1.094,54 0,00 1.905,34 6.276,36 1.074,96 200,64 30/09/2013
283 321001 ANTONIO OLINTO VIEIRA MACHADO ANALISTA DO MP ATIVO BELO HORIZONTE - COMARCA; CENTRAL DE APOIO TECN-SETOR DE MEIO AMBIENTE 6.586,88 658,69 0,00 0,00 0,00 0,00 7.245,57 797,01 840,90 0,00 1.637,91 5.607,66 457,00 0,00 30/09/2013
284 356200 ANTONIO PAULA DA SILVA OFICIAL DO MP ATIVO JUIZ DE FORA - COMARCA; JUIZ DE FORA-PJ-20PJ 4.409,86 881,97 0,00 0,00 0,00 0,00 5.291,83 582,10 504,60 0,00 1.086,70 4.205,13 457,00 0,00 30/09/2013
285 119900 ANTONIO RODRIGUES DE PINHO OFICIAL DO MP ATIVO GUANHÃES - COMARCA; GUANHAES-PJ-01PJ 7.731,26 3.865,63 0,00 0,00 0,00 0,00 11.596,89 1.275,66 1.953,17 0,00 3.228,83 8.368,06 457,00 0,00 30/09/2013
286 373300 ANTONIO SERGIO ANANIAS OFICIAL DO MP ATIVO AIURUOCA - COMARCA; AIURUOCA-PJ-UNPJ 4.270,85 427,09 0,00 0,00 0,00 0,00 4.697,94 516,77 286,38 0,00 803,15 3.894,79 692,00 0,00 30/09/2013
287 374700 ANTONIO SILVA NETO OFICIAL DO MP ATIVO BELO HORIZONTE - COMARCA; GAECO - SECRETARIA 4.553,46 455,35 0,00 0,00 0,00 0,00 5.008,81 550,97 435,33 0,00 986,30 4.022,51 457,00 0,00 30/09/2013
288 413200 ANY PEREIRA SILVA ANALISTA DO MP ATIVO TRÊS PONTAS - COMARCA; TRES PONTAS-PJ-01PJ 6.379,14 382,75 0,00 0,00 0,00 0,00 6.761,89 807,56 911,67 0,00 1.719,23 5.042,66 457,00 579,60 30/09/2013
289 151401 APARECIDA DE FATIMA MENDES DE ALMEIDA ASSESSOR ATIVO JUIZ DE FORA - COMARCA; JUIZ DE FORA-PJ-SECRETARIA 0,00 0,00 3.698,79 0,00 0,00 0,00 3.698,79 457,14 255,20 0,00 712,34 2.986,45 457,00 0,00 30/09/2013
290 329300 APARECIDA MARIA MELO DE ASSIS OFICIAL DO MP ATIVO BELO HORIZONTE - COMARCA; BH-18PJ DIREITOS HUMANOS-SECRETARIA 5.344,58 534,46 0,00 0,00 0,00 0,00 5.879,04 646,69 648,32 0,00 1.295,01 4.584,03 457,00 0,00 30/09/2013
291 475300 APARECIDA MARLENE FREIRE ROSA ANALISTA DO MP ATIVO BELO HORIZONTE - COMARCA; BH-02PJ FAMILIA 5.698,20 4.558,56 0,00 0,00 0,00 0,00 10.256,76 1.128,24 1.719,76 0,00 2.848,00 7.408,76 457,00 0,00 30/09/2013
292 240300 APARECIDA PEREIRA DO NASCIMENTO OFICIAL DO MP ATIVO ITURAMA - COMARCA; ITURAMA-PJ-01PJ 6.075,32 3.037,66 0,00 0,00 0,00 0,00 9.112,98 1.088,35 1.631,00 0,00 2.719,35 6.393,63 475,00 781,10 30/09/2013
293 354500 APARECIDA VIEIRA DE CARVALHO OFICIAL DO MP ATIVO BELO HORIZONTE - COMARCA; PROCON-MG-SEC DE EDUCACAO PARA O CONSUMO 4.005,77 400,58 0,00 0,00 0,00 0,00 4.406,35 484,70 266,68 0,00 751,38 3.654,97 457,00 0,00 30/09/2013
294 551000 ARACELES BICALHO FELIX ANALISTA DO MP ATIVO MANHUAÇU - COMARCA; MANHUACU-PJ-02PJ 4.553,46 0,00 0,00 0,00 0,00 0,00 4.553,46 500,88 334,83 0,00 835,71 3.717,75 457,00 0,00 30/09/2013
295 286200 ARACELI MEDRADO DOS SANTOS LIMA OFICIAL DO MP ATIVO PARACATU - COMARCA; PARACATU-PJ-03PJ 4.409,86 440,99 0,00 0,00 0,00 0,00 4.850,85 533,59 396,67 0,00 930,26 3.920,59 457,00 0,00 30/09/2013
296 189000 ARAHY MARQUES SILVA OFICIAL DO MP ATIVO BELO HORIZONTE - COMARCA; BH-15PJ M AMB 16PJ HAB URB-SECRETARIA 4.409,86 881,97 0,00 0,00 0,00 0,00 5.291,83 582,10 504,60 0,00 1.086,70 4.205,13 457,00 0,00 30/09/2013
297 112200 ARAQUEM AUGUSTO DE MATOS AGENTE DO MP ATIVO BELO HORIZONTE - COMARCA; BH-23PJ INFRACIONAL-SEC EXP 4.409,86 3.086,91 0,00 0,00 0,00 0,00 7.496,77 909,47 1.091,11 0,00 2.000,58 5.496,19 692,00 868,35 30/09/2013
298 280600 ARDUINO FRATTEZI ANALISTA DO MP ATIVO BELO HORIZONTE - COMARCA; CENTRAL DE APOIO TECNICO-SETOR CONTABIL 8.788,36 878,84 0,00 0,00 0,00 0,00 9.667,20 1.063,39 1.480,88 0,00 2.544,27 7.122,93 457,00 47,39 30/09/2013
299 520200 ARIANE DE FATIMA CARVALHO ALMEIDA OFICIAL DO MP ATIVO BELO HORIZONTE - COMARCA; BH-19PJ SAUDE-SECRETARIA 129PJ 2.772,23 0,00 0,00 0,00 0,00 0,00 2.772,23 304,95 43,84 0,00 348,79 2.423,44 457,00 0,00 30/09/2013
300 537600 ARIELA FREIRE MONTIJO ANALISTA DO MP ATIVO ARCOS - COMARCA; ARCOS-PJ-01PJ 4.136,15 0,00 0,00 0,00 0,00 0,00 4.136,15 454,98 212,57 0,00 667,55 3.468,60 457,00 0,00 30/09/2013
301 182000 ARILSON ALEXANDRE MARTINS MAGALHAES OFICIAL DO MP ATIVO JOÃO MONLEVADE - COMARCA; JOAO MONLEVADE-PJ-02PJ 7.487,46 2.246,24 0,00 0,00 0,00 0,00 9.733,70 1.070,71 1.497,16 0,00 2.567,87 7.165,83 655,14 0,00 30/09/2013
302 511000 ARISLANE CAROLINA DA SILVA ANALISTA DO MP ATIVO CAMPINA VERDE - COMARCA; CAMPINA VERDE-PJ-UNPJ 4.701,73 0,00 0,00 0,00 0,00 0,00 4.701,73 561,53 458,83 0,00 1.020,36 3.681,37 457,00 403,10 30/09/2013
303 170000 ARLEY BRITES DA SILVA ASSESSOR ATIVO BELO HORIZONTE - COMARCA; EXTINTA - DIVISÃO DE MATERIAL PERMANENTE 0,00 739,76 3.698,79 0,00 0,00 0,00 4.438,55 457,49 305,48 0,00 762,97 3.675,58 927,00 0,00 30/09/2013
304 120400 ARLINDO CASSIO DA CRUZ OFICIAL DO MP ATIVO SÃO GONÇALO DO SAPUCAÍ - COMARCA; SAO GONCALO DO SAPUCAI-PJ-01PJ 11.161,27 7.812,89 0,00 0,00 0,00 0,00 18.974,16 2.087,16 3.711,47 0,00 5.798,63 13.175,53 1.032,43 0,00 30/09/2013
305 243700 ARLINDO MARCIO LACERDA OFICIAL DO MP ATIVO CONTAGEM - COMARCA; CONTAGEM-PJ-03PJ 6.177,98 1.853,39 0,00 0,00 0,00 0,00 8.031,37 883,45 1.175,10 0,00 2.058,55 5.972,82 457,00 0,00 30/09/2013
306 392100 ARNALDO DE ANDRADE OFICIAL DO MP ATIVO DIVINÓPOLIS - COMARCA; DIVINOPOLIS-PJ-02PJ 4.701,73 470,17 0,00 0,00 0,00 0,00 5.171,90 568,91 475,24 0,00 1.044,15 4.127,75 457,00 0,00 30/09/2013
307 352801 ARTHUR JONAS MENDONCA E ARAUJO ANALISTA DO MP ATIVO UBERABA - COMARCA; UBERABA-PJ-12PJ 5.344,58 320,67 0,00 0,00 0,00 0,00 5.665,25 623,18 501,41 0,00 1.124,59 4.540,66 692,00 0,00 30/09/2013
308 302100 AUGUSTO ROUSSEAU DE CASTRO ANALISTA DO MP ATIVO CATAGUASES - COMARCA; CATAGUASES-PJ-02PJ 9.674,93 967,49 0,00 0,00 0,00 0,00 10.642,42 1.170,67 1.814,15 0,00 2.984,82 7.657,60 457,00 0,00 30/09/2013
309 540200 AUREA AVELAR OFICIAL DO MP ATIVO RIO VERMELHO - COMARCA; RIO VERMELHO-PJ-UNPJ 2.684,83 0,00 0,00 0,00 0,00 0,00 2.684,83 295,33 25,11 0,00 320,44 2.364,39 457,00 0,00 30/09/2013
310 183200 AURELIANO MAGELA DE REZENDE COORDENADOR/OFICIAL ATIVO BELO HORIZONTE - COMARCA; COORD DE GABINETE DO PGJ 0,00 1.934,99 9.674,93 0,00 0,00 0,00 11.609,92 897,77 2.155,26 0,00 3.053,03 8.556,89 457,00 0,00 30/09/2013
311 436800 BARBARA ROCHA LADEIA COLEN OFICIAL DO MP ATIVO BELO HORIZONTE - COMARCA; ASSESS TECNICO-JUR JUNTO AS PROC. DE JUST 4.136,15 248,17 0,00 0,00 0,00 0,00 4.384,32 542,68 416,87 0,00 959,55 3.424,77 457,00 549,10 30/09/2013
312 546500 BARBARA ZACARONI GOULART OFICIAL DO MP ATIVO BETIM - COMARCA; BETIM-PJ-02PJ 2.684,83 0,00 0,00 0,00 0,00 0,00 2.684,83 310,52 60,12 0,00 370,64 2.314,19 457,00 816,06 30/09/2013
313 316500 BEATRIZ ABILVIA DA SILVA ANALISTA DO MP ATIVO GOVERNADOR VALADARES - COMARCA; GOVERNADOR VALADARES-PJ-13PJ 8.788,36 878,84 0,00 0,00 0,00 0,00 9.667,20 1.063,39 1.575,47 0,00 2.638,86 7.028,34 457,00 0,00 30/09/2013
314 311800 BEATRIZ APARECIDA SOARES GANEM OFICIAL DO MP ATIVO ITAMBACURI - COMARCA; ITAMBACURI-PJ-02PJ 5.344,58 1.068,92 0,00 0,00 0,00 0,00 6.413,50 765,96 771,81 0,00 1.537,77 4.875,73 692,00 549,80 30/09/2013
315 266800 BEATRIZ AUGUSTA VILACA GOMES DA SILVA OFICIAL DO MP ATIVO BELO HORIZONTE - COMARCA; BH-05PJ-JUÍZO SUCESSÕES-SEC 4.701,73 940,35 0,00 0,00 0,00 0,00 5.642,08 620,63 590,32 0,00 1.210,95 4.431,13 2.713,83 206,88 30/09/2013
316 235200 BEATRIZ BOTELHO BATISTA OFICIAL DO MP ATIVO BELO HORIZONTE - COMARCA; CGMP-DIVISAO DE APOIO ADMINISTRATIVO 5.883,73 1.176,75 0,00 0,00 0,00 0,00 7.060,48 776,65 937,47 0,00 1.714,12 5.346,36 457,00 0,00 30/09/2013
317 113500 BEATRIZ DE LOURDES SOUZA ASSESSOR ATIVO BELO HORIZONTE - COMARCA; BH-02PJ FAMILIA-PROM DEC PAT 0,00 2.941,86 5.883,73 0,00 0,00 0,00 8.825,59 457,49 1.114,33 0,00 1.571,82 7.253,77 457,00 0,00 30/09/2013
318 182300 BEATRIZ PAULA SOUSA RAMOS OFICIAL DO MP ATIVO MARIANA - COMARCA; MARIANA-PJ-01PJ 7.487,46 2.246,24 0,00 0,00 0,00 0,00 9.733,70 1.070,71 1.497,16 0,00 2.567,87 7.165,83 457,00 17,16 30/09/2013
319 507000 BELCHIOR FRANKLIN AMARAL LEITE ANALISTA DO MP ATIVO BELO HORIZONTE - COMARCA; CENTRAL DE APOIO TECNICO 5.176,02 0,00 0,00 0,00 0,00 0,00 5.176,02 569,36 382,11 0,00 951,47 4.224,55 692,00 0,00 30/09/2013
320 345100 BENITO ELIAS RODRIGUES ANALISTA DO MP ATIVO BARBACENA - COMARCA; BARBACENA-PJ-SECRETARIA 7.982,93 798,29 0,00 0,00 0,00 0,00 8.781,22 1.048,73 1.542,85 0,00 2.591,58 6.189,64 457,00 752,70 30/09/2013
321 207300 BENITO VIEIRA DOS SANTOS ANALISTA DO MP ATIVO BELO HORIZONTE - COMARCA; COMB CRIMES PRAT POR AG POL MUN-ASSESSORIA 12.062,58 3.618,77 0,00 0,00 0,00 1.724,95 17.406,30 1.724,95 2.416,24 0,00 4.141,19 13.265,11 457,00 0,00 30/09/2013
322 480200 BERNADETE NUNES DOS SANTOS ANALISTA DO MP ATIVO GUANHÃES - COMARCA; GUANHAES-PJ-02PJ 5.698,20 0,00 0,00 0,00 0,00 0,00 5.698,20 626,80 604,06 0,00 1.230,86 4.467,34 457,00 0,00 30/09/2013
323 378400 BETANIA FARNESI DE SOUZA E SILVA OFICIAL DO MP ATIVO SETE LAGOAS - COMARCA; SETE LAGOAS-PJ-03PJ 4.553,46 910,69 0,00 0,00 0,00 0,00 5.464,15 601,06 499,48 0,00 1.100,54 4.363,61 692,00 0,00 30/09/2013
324 546400 BETANIA GONCALVES GONTIJO OFICIAL DO MP ATIVO PATOS DE MINAS - COMARCA; PATOS DE MINAS-PJ-02PJ 2.684,83 0,00 0,00 0,00 0,00 0,00 2.684,83 295,33 50,90 0,00 346,23 2.338,60 457,00 0,00 30/09/2013
325 387400 BETANIA MENDONCA DE ASSIS ANALISTA DO MP ATIVO BELO HORIZONTE - COMARCA; BH-08PJ JUIZADO ESPECIAL-SECRETARIA 6.586,88 658,69 0,00 0,00 0,00 0,00 7.245,57 838,00 1.073,97 0,00 1.911,97 5.333,60 457,00 372,60 30/09/2013
326 450300 BIANCA OLIVEIRA DE ALBUQUERQUE ANALISTA DO MP ATIVO BELO HORIZONTE - COMARCA; BH-10PJ EXECUÇÃO PENAL-SECRETARIA 5.344,58 320,67 0,00 0,00 0,00 0,00 5.665,25 623,18 595,99 0,00 1.219,17 4.446,08 457,00 0,00 30/09/2013
327 535400 BIANCA SALOTO ROSSI ANALISTA DO MP ATIVO SANTOS DUMONT - COMARCA; SANTOS DUMONT-PJ-01PJ 4.136,15 0,00 0,00 0,00 0,00 0,00 4.136,15 454,98 251,26 0,00 706,24 3.429,91 457,00 0,00 30/09/2013
328 120800 BRAS MARQUES DE SOUZA ANALISTA DO MP ATIVO BELO HORIZONTE - COMARCA; EXTINTA - SUPERINTENDENCIA ADMINISTRATIVA-SAD 17.108,05 11.975,65 0,00 0,00 0,00 0,00 29.083,70 2.785,59 5.265,47 3.760,20 11.811,26 17.272,44 692,00 0,00 30/09/2013
329 460900 BRENO CRISTIANO DE SOUZA REZENDE ANALISTA DO MP ATIVO ITAÚNA - COMARCA; ITAUNA-PJ-02PJ 4.701,73 0,00 0,00 0,00 0,00 0,00 4.701,73 517,19 364,52 0,00 881,71 3.820,02 457,00 0,00 30/09/2013
330 239000 BRENO VENANCIO ROMANINI OFICIAL DO MP ATIVO BELO HORIZONTE - COMARCA; BH-20PJ ORD ECON TRIBUTARIA-SECRETARIA 5.344,58 1.068,92 0,00 0,00 0,00 0,00 6.413,50 705,49 779,12 0,00 1.484,61 4.928,89 457,00 0,00 30/09/2013
331 513600 BRUNA KARLA MARTINS CARVALHO ANALISTA DO MP ATIVO GOVERNADOR VALADARES - COMARCA; GOVERNADOR VALADARES-PJ-01PJ 4.701,73 0,00 0,00 0,00 0,00 0,00 4.701,73 517,19 364,52 0,00 881,71 3.820,02 457,00 0,00 30/09/2013
332 415100 BRUNA MARIA SOARES OLIVEIRA COSTA RAMOS ANALISTA DO MP ATIVO UBÁ - COMARCA; COORD REG BACIA DO RIO PARAIBA DO SUL 6.379,14 382,75 0,00 0,00 0,00 0,00 6.761,89 743,81 864,39 0,00 1.608,20 5.153,69 457,00 0,00 30/09/2013
333 470000 BRUNA MORAES MARQUES ANALISTA DO MP ATIVO TOMBOS - COMARCA; TOMBOS-PJ-UNPJ 5.698,20 0,00 0,00 0,00 0,00 0,00 5.698,20 680,53 723,59 0,00 1.404,12 4.294,08 457,00 488,40 30/09/2013
334 463800 BRUNO ALVES TEIXEIRA ANALISTA DO MP ATIVO UBERLÂNDIA - COMARCA; UBERLANDIA-PJ-04PJ 5.698,20 0,00 0,00 0,00 0,00 0,00 5.698,20 626,80 604,06 0,00 1.230,86 4.467,34 457,00 0,00 30/09/2013
335 538500 BRUNO AUGUSTO DA SILVA OFICIAL DO MP ATIVO SANTA LUZIA - COMARCA; SANTA LUZIA-PJ-03PJ 2.684,83 0,00 0,00 0,00 0,00 0,00 2.684,83 320,64 68,54 0,00 389,18 2.295,65 457,00 230,10 30/09/2013
336 318200 BRUNO BARROS DE SOUZA OFICIAL DO MP ATIVO UBÁ - COMARCA; UBA-PJ-04PJ 5.344,58 534,46 0,00 0,00 0,00 0,00 5.879,04 646,69 333,41 0,00 980,10 4.898,94 457,00 0,00 30/09/2013
337 459600 BRUNO CASTELAR LUGAO MENDES OFICIAL DO MP ATIVO GOVERNADOR VALADARES - COMARCA; GOVERNADOR VALADARES-PJ-SECRETARIA 3.698,79 0,00 0,00 0,00 0,00 0,00 3.698,79 406,87 173,19 0,00 580,06 3.118,73 457,00 0,00 30/09/2013
338 427400 BRUNO CESAR RIBEIRO DE PAIVA ASSESSOR/ANALISTA ATIVO BELO HORIZONTE - COMARCA; ASSESS JUR DO CONS SUPERIOR DO MINISTERIO PUB 0,00 449,25 7.487,46 0,00 0,00 0,00 7.936,71 743,81 1.187,47 0,00 1.931,28 6.005,43 457,00 0,00 30/09/2013
339 380900 BRUNO CIRILO ANTUNES OFICIAL DO MP ATIVO VARGINHA - COMARCA; VARGINHA-PJ-05PJ 3.582,21 358,22 0,00 0,00 0,00 0,00 3.940,43 433,45 212,07 0,00 645,52 3.294,91 457,00 0,00 30/09/2013
340 329000 BRUNO DE MELO REIS ANALISTA DO MP ATIVO PATROCÍNIO - COMARCA; PATROCINIO-PJ-02PJ 7.982,93 1.596,59 0,00 0,00 0,00 0,00 9.579,52 1.053,75 1.554,01 0,00 2.607,76 6.971,76 457,00 0,00 30/09/2013
341 378300 BRUNO HERDY LOPES DE OLIVEIRA ANALISTA DO MP ATIVO MANTENA - COMARCA; MANTENA-PJ-SECRETARIA 6.586,88 658,69 0,00 0,00 0,00 0,00 7.245,57 797,01 982,77 0,00 1.779,78 5.465,79 457,00 0,00 30/09/2013
342 529700 BRUNO JOSE BUENO DIAS OFICIAL DO MP ATIVO SÃO SEBASTIÃO DO PARAÍSO - COMARCA; SAO SEBASTIAO DO PARAISO-PJ-02PJ 2.684,83 0,00 0,00 0,00 0,00 0,00 2.684,83 295,33 38,00 0,00 333,33 2.351,50 692,00 0,00 30/09/2013
343 350100 BRUNO LAUD SERRANO DOS REIS OFICIAL DO MP ATIVO UBÁ - COMARCA; UBA-PJ-03PJ 4.553,46 910,69 0,00 0,00 0,00 0,00 5.464,15 601,06 452,19 0,00 1.053,25 4.410,90 692,00 0,00 30/09/2013
344 373800 BRUNO MARTINO DE ALBUQUERQUE ANALISTA DO MP ATIVO PONTE NOVA - COMARCA; PONTE NOVA-PJ-SECRETARIA 6.586,88 658,69 0,00 0,00 0,00 0,00 7.245,57 844,83 994,58 0,00 1.839,41 5.406,16 692,00 434,70 30/09/2013
345 470400 BRUNO NOVAIS CABRAL ANALISTA DO MP ATIVO RESPLENDOR - COMARCA; RESPLENDOR-PJ-UNPJ 5.698,20 0,00 0,00 0,00 0,00 0,00 5.698,20 626,80 604,06 0,00 1.230,86 4.467,34 457,00 0,00 30/09/2013
346 369200 BRUNO ROBERTO DIAS DE OLIVEIRA OFICIAL DO MP ATIVO BELO HORIZONTE - COMARCA; BH-23PJ CIVEL-SETOR JURIDICO 4.854,78 485,48 0,00 0,00 0,00 0,00 5.340,26 587,43 516,45 0,00 1.103,88 4.236,38 457,00 0,00 30/09/2013
347 547700 BRUNO ROBERTO SOUZA GONCALVES ANALISTA DO MP ATIVO PARACATU - COMARCA; PARACATU-PJ-03PJ 4.553,46 0,00 0,00 0,00 0,00 0,00 4.553,46 543,81 419,41 0,00 963,22 3.590,24 457,00 390,30 30/09/2013
348 546100 BRUNO SA VIEIRA ANALISTA DO MP ATIVO ERVÁLIA - COMARCA; ERVALIA-PJ-UNPJ 4.136,15 0,00 0,00 0,00 0,00 0,00 4.136,15 454,98 251,26 0,00 706,24 3.429,91 457,00 0,00 30/09/2013
349 438200 BRUNO SALES PEREIRA ANALISTA DO MP ATIVO BELO HORIZONTE - COMARCA; CENTRAL DE APOIO TECNICO-SETOR CONTABIL 5.883,73 353,02 0,00 0,00 0,00 0,00 6.236,75 686,04 688,57 0,00 1.374,61 4.862,14 457,00 0,00 30/09/2013
350 537400 BRUNO SANT'ANA CESAR ANALISTA DO MP ATIVO CONTAGEM - COMARCA; CONTAGEM-PJ-09PJ 4.136,15 0,00 0,00 0,00 0,00 0,00 4.136,15 454,98 251,26 0,00 706,24 3.429,91 457,00 0,00 30/09/2013
351 405800 CAIO FERNANDO RODRIGUES DE OLIVEIRA ANALISTA DO MP ATIVO BELO HORIZONTE - COMARCA; ASSESS TECNICO-JUR JUNTO AS PROC. DE JUST 6.379,14 382,75 0,00 0,00 0,00 0,00 6.761,89 743,81 864,39 0,00 1.608,20 5.153,69 457,00 0,00 30/09/2013
352 530000 CAIO GUEDES DE OLIVEIRA ANALISTA DO MP ATIVO DIAMANTINA - COMARCA; DIAMANTINA-PJ-03PJ 4.553,46 0,00 0,00 0,00 0,00 0,00 4.553,46 500,88 296,14 0,00 797,02 3.756,44 692,00 0,00 30/09/2013
353 491400 CAIO MIRANDA JUNQUEIRA ANALISTA DO MP ATIVO BUENO BRANDAO - COMARCA; BUENO BRANDAO-PJ-UNPJ 5.176,02 0,00 0,00 0,00 0,00 0,00 5.176,02 569,36 428,96 0,00 998,32 4.177,70 692,00 0,00 30/09/2013
354 415800 CAMILA ALVES DA SILVA ANALISTA DO MP ATIVO CAETÉ - COMARCA; CAETE-PJ-01PJ 6.379,14 382,75 0,00 0,00 0,00 0,00 6.761,89 743,81 864,39 0,00 1.608,20 5.153,69 457,00 0,00 30/09/2013
355 555800 CAMILA CAROLINE ROCHA CHAVES OFICIAL DO MP ATIVO SALINAS - COMARCA; SALINAS-PJ-01PJ 2.684,83 0,00 0,00 0,00 0,00 0,00 2.684,83 295,33 50,90 0,00 346,23 2.338,60 457,00 0,00 30/09/2013
356 445200 CAMILA CONDE ROCHA ANALISTA DO MP ATIVO CONTAGEM - COMARCA; CONTAGEM-PJ-08PJ 5.883,73 353,02 0,00 0,00 0,00 0,00 6.236,75 686,04 735,87 0,00 1.421,91 4.814,84 457,00 0,00 30/09/2013
357 419900 CAMILA CUNNINGHAM PIMENTA DE PADUA ANALISTA DO MP ATIVO BELO HORIZONTE - COMARCA; ASSESSORIA PSICOSSOCIAL 6.379,14 382,75 0,00 0,00 0,00 0,00 6.761,89 743,81 864,39 0,00 1.608,20 5.153,69 457,00 0,00 30/09/2013
358 507700 CAMILA ELIZABETH RODRIGUES ANALISTA DO MP ATIVO BELO HORIZONTE - COMARCA; BH-02PJ FAMILIA 5.176,02 0,00 0,00 0,00 0,00 0,00 5.176,02 569,36 476,25 0,00 1.045,61 4.130,41 457,00 0,00 30/09/2013
359 372700 CAMILA FONSECA LIMONGE ANALISTA DO MP ATIVO BETIM - COMARCA; BETIM-PJ-01PJ 6.586,88 658,69 0,00 0,00 0,00 0,00 7.245,57 797,01 982,77 0,00 1.779,78 5.465,79 457,00 0,00 30/09/2013
360 409800 CAMILA GONCALVES COSTA RIBEIRO ANALISTA DO MP ATIVO INHAPIM - COMARCA; INHAPIM-PJ-02PJ 6.379,14 382,75 0,00 0,00 0,00 0,00 6.761,89 743,81 817,10 0,00 1.560,91 5.200,98 692,00 0,00 30/09/2013
361 335000 CAMILA GONTIJO DE PAIVA ANALISTA DO MP ATIVO BELO HORIZONTE - COMARCA; COORD DE CONTROLE DA CONSTITUCIONALIDADE 8.242,82 824,28 0,00 0,00 0,00 0,00 9.067,10 997,38 1.381,30 0,00 2.378,68 6.688,42 3.833,47 309,51 30/09/2013
362 547800 CAMILA MATTARELLI DE ABREU E SILVA ANALISTA DO MP ATIVO BELO HORIZONTE - COMARCA; DIR ANALISES TECNOLOGIA INTELIGENCIA 4.136,15 0,00 0,00 0,00 0,00 0,00 4.136,15 454,98 251,26 0,00 706,24 3.429,91 457,00 0,00 30/09/2013
363 430000 CANDIDA MARINA COSTA ANALISTA DO MP ATIVO BELO HORIZONTE - COMARCA; DIVISAO DE DOCUMENTACAO JURIDICA 6.379,14 382,75 0,00 0,00 0,00 0,00 6.761,89 743,81 864,39 0,00 1.608,20 5.153,69 457,00 0,00 30/09/2013
364 380400 CARINA DIAS FACANHA DE SOUZA ANALISTA DO MP ATIVO SANTA RITA DO SAPUCAÍ - COMARCA; SANTA RITA DO SAPUCAI-PJ-SECRETARIA 6.586,88 658,69 0,00 0,00 0,00 0,00 7.245,57 797,01 982,77 0,00 1.779,78 5.465,79 457,00 0,00 30/09/2013
365 255000 CARLA ADRIANA DE MENEZES ASSESSOR/OFICIAL ATIVO BELO HORIZONTE - COMARCA; CENT DE APOIO TEC-SETOR DEF,IDOSO E INFANC 0,00 1.176,75 5.883,73 0,00 0,00 0,00 7.060,48 776,65 937,47 0,00 1.714,12 5.346,36 457,00 0,00 30/09/2013
366 425100 CARLA ADRIANA DINIZ AMARAL OFICIAL DO MP ATIVO CONTAGEM - COMARCA; CONTAGEM-PJ-08PJ 4.136,15 248,17 0,00 0,00 0,00 0,00 4.384,32 482,28 262,27 0,00 744,55 3.639,77 457,00 0,00 30/09/2013
367 508100 CARLA ALESSANDRA FONSECA ANALISTA DO MP ATIVO BELO HORIZONTE - COMARCA; CAO-ORDEM ECONOMICA E TRIBUTARIA-SECRETARIA 5.176,02 0,00 0,00 0,00 0,00 0,00 5.176,02 569,36 476,25 0,00 1.045,61 4.130,41 457,00 0,00 30/09/2013
368 351500 CARLA APARECIDA MENDES RAMIRIO OFICIAL DO MP ATIVO PASSOS - COMARCA; PASSOS-PJ-07PJ 4.701,73 470,17 0,00 0,00 0,00 0,00 5.171,90 568,91 427,95 0,00 996,86 4.175,04 692,00 0,00 30/09/2013
369 206200 CARLA BORGES DA COSTA COORDENADOR/ANALISTA ATIVO BELO HORIZONTE - COMARCA; DIVIS DE PROJETOS DE ENGENHARIA E ARQUITETURA 12.062,58 6.760,02 0,00 0,00 0,00 0,00 18.822,60 2.077,64 3.874,78 0,00 5.952,42 12.870,18 3.833,47 2.309,51 30/09/2013
370 442800 CARLA GONCALVES COSTA SOALHEIRO ANALISTA DO MP ATIVO GOVERNADOR VALADARES - COMARCA; GOVERNADOR VALADARES-PJ-11PJ 5.883,73 353,02 0,00 0,00 0,00 0,00 6.236,75 686,04 688,57 0,00 1.374,61 4.862,14 692,00 0,00 30/09/2013
371 321500 CARLA GONCALVES MASSOTE OFICIAL DO MP ATIVO CAMPO BELO - COMARCA; CAMPO BELO-PJ-01PJ 5.344,58 534,46 0,00 0,00 0,00 0,00 5.879,04 646,69 648,32 0,00 1.295,01 4.584,03 457,00 0,00 30/09/2013
372 429200 CARLA HAUTEQUESTT BECHARA ANALISTA DO MP ATIVO BELO HORIZONTE - COMARCA; DIVISAO DE DOCUMENTACAO JURIDICA 6.379,14 382,75 0,00 0,00 0,00 0,00 6.761,89 743,81 1.112,99 0,00 1.856,80 4.905,09 457,00 904,00 30/09/2013
373 247500 CARLA MATILDE GUIMARAES DE OLIVEIRA OFICIAL DO MP ATIVO ITAJUBA - COMARCA; ITAJUBA-PJ-03PJ 5.883,73 1.176,75 0,00 0,00 0,00 0,00 7.060,48 776,65 890,18 0,00 1.666,83 5.393,65 457,00 0,00 30/09/2013
374 226100 CARLA MERLI DA CONCEICAO ANALISTA DO MP ATIVO BELO HORIZONTE - COMARCA; CENTRAL DE APOIO TECNICO-SETOR CONTABIL 10.315,17 2.063,03 0,00 0,00 0,00 0,00 12.378,20 1.361,60 2.191,69 0,00 3.553,29 8.824,91 457,00 0,00 30/09/2013
375 181401 CARLO MICHEL GAUDENSI COELHO ANALISTA DO MP ATIVO BELO HORIZONTE - COMARCA; BH-08PJ JUIZADO ESPECIAL-SECRETARIA 6.379,14 1.275,83 0,00 0,00 0,00 0,00 7.654,97 842,05 1.082,97 0,00 1.925,02 5.729,95 457,00 0,00 30/09/2013
376 375801 CARLOS ALBERTO ROCHA ANALISTA DO MP ATIVO ELOI MENDES - COMARCA; ELOI MENDES-PJ-SECRETARIA 5.012,79 0,00 0,00 0,00 0,00 0,00 5.012,79 598,66 541,45 0,00 1.140,11 3.872,68 457,00 429,60 30/09/2013
377 462800 CARLOS ANDREI SOARES FAGUNDES ANALISTA DO MP ATIVO MONTES CLAROS - COMARCA; MONTES CLAROS-PJ-09PJ 5.698,20 0,00 0,00 0,00 0,00 0,00 5.698,20 626,80 604,06 0,00 1.230,86 4.467,34 457,00 0,00 30/09/2013
378 370300 CARLOS AUGUSTO BUENO DIAS ASSESSOR ATIVO BELO HORIZONTE - COMARCA; DIRETORIA DE FISCALIZACAO DE OBRAS 0,00 0,00 7.487,46 0,00 0,00 0,00 7.487,46 457,49 650,62 0,00 1.108,11 6.379,35 457,00 0,00 30/09/2013
379 505100 CARLOS CEZAR CARVALHO ANALISTA DO MP ATIVO RIBEIRÃO DAS NEVES - COMARCA; RIBEIRAO DAS NEVES-PJ-09PJ 4.701,73 1.410,52 0,00 0,00 0,00 0,00 6.112,25 729,99 739,06 0,00 1.469,05 4.643,20 457,00 524,00 30/09/2013
380 195900 CARLOS DE SOUZA FERREIRA OFICIAL DO MP ATIVO COROMANDEL - COMARCA; COROMANDEL-PJ-UNPJ 6.801,32 3.400,66 0,00 0,00 0,00 0,00 10.201,98 1.199,17 1.830,29 0,00 3.029,46 7.172,52 457,00 699,60 30/09/2013
381 196800 CARLOS EDUARDO DE OLIVEIRA MARINHO OFICIAL DO MP ATIVO ALPINÓPOLIS - COMARCA; ALPINOPOLIS-PJ-UNPJ 7.731,26 3.092,51 0,00 0,00 0,00 0,00 10.823,77 1.190,61 1.811,25 0,00 3.001,86 7.821,91 692,00 0,00 30/09/2013
382 491800 CARLOS EDUARDO ROMAN OFICIAL DO MP ATIVO BARBACENA - COMARCA; BARBACENA-PJ-01PJ 3.698,79 369,88 0,00 0,00 0,00 0,00 4.068,67 485,92 307,60 0,00 793,52 3.275,15 2.084,47 470,86 30/09/2013
383 299300 CARLOS HENRIQUE BICALHO ANALISTA DO MP ATIVO BELO HORIZONTE - COMARCA; BH-17PJ PATRIMONIO PUBLICO-SECRETARIA 8.788,36 2.636,51 0,00 0,00 0,00 0,00 11.424,87 1.256,74 2.005,66 0,00 3.262,40 8.162,47 457,00 0,00 30/09/2013
384 205100 CARLOS HENRIQUE ESTEVES OFICIAL DO MP ATIVO ITAMBACURI - COMARCA; ITAMBACURI-PJ-01PJ 7.982,93 1.596,59 0,00 0,00 0,00 0,00 9.579,52 1.144,07 1.707,68 0,00 2.851,75 6.727,77 457,00 821,10 30/09/2013
385 351600 CARLOS HENRIQUE FELICIO DA FONSECA OFICIAL DO MP ATIVO LIMA DUARTE - COMARCA; LIMA DUARTE-PJ-UNPJ 5.012,79 1.002,56 0,00 0,00 0,00 0,00 6.015,35 661,69 681,68 0,00 1.343,37 4.671,98 457,00 0,00 30/09/2013
386 85400 CARLOS JOSE VIEIRA OFICIAL DO MP ATIVO BELO HORIZONTE - COMARCA; DIRETORIA DO CONSELHO SUPERIOR DO MP 17.108,05 8.554,03 0,00 0,00 0,00 0,00 25.662,08 2.785,59 5.407,35 338,58 8.531,52 17.130,56 457,00 0,00 30/09/2013
387 229100 CARLOS MERCES DE OLIVEIRA ANALISTA DO MP ATIVO BELO HORIZONTE - COMARCA; CENTRAL DE APOIO TECN-SETOR DE MEIO AMBIENTE 10.315,17 2.063,03 0,00 0,00 0,00 0,00 12.378,20 1.361,60 1.650,01 0,00 3.011,61 9.366,59 457,00 0,00 30/09/2013
388 538300 CARLOS RANGEL SILVA DE MELO ANALISTA DO MP ATIVO BELO HORIZONTE - COMARCA; SUPERINTENDÊNCIA DE ENGENHARIA E ARQUITETURA 4.136,15 827,23 0,00 0,00 0,00 0,00 4.963,38 545,97 424,21 0,00 970,18 3.993,20 457,00 0,00 30/09/2013
389 265100 CARLOS REIFF MIRANDA ANALISTA DO MP ATIVO BELO HORIZONTE - COMARCA; BH-19PJ SAUDE-SECRETARIA 150PJ 8.788,36 1.757,67 0,00 0,00 0,00 0,00 10.546,03 1.160,06 1.790,56 0,00 2.950,62 7.595,41 457,00 0,00 30/09/2013
390 305400 CARLOS ROCHA DE SOUZA OFICIAL DO MP ATIVO MONTALVÂNIA - COMARCA; MONTALVANIA-PJ-SECRETARIA 4.409,86 440,99 0,00 0,00 0,00 0,00 4.850,85 533,59 239,61 0,00 773,20 4.077,65 1.162,00 0,00 30/09/2013
391 365100 CARLOS WAGNER SANDER MORAIS COORDENADOR/OFICIAL ATIVO BELO HORIZONTE - COMARCA; DIRETORIA DE ADMINISTRACAO FINANCEIRA 0,00 967,49 9.674,93 0,00 0,00 0,00 10.642,42 606,55 1.969,28 0,00 2.575,83 8.066,59 457,00 0,00 30/09/2013
392 399900 CARMELITA EVANGELISTA DE SOUZA OFICIAL DO MP ATIVO JOÃO PINHEIRO - COMARCA; JOAO PINHEIRO-PJ-01PJ 3.582,21 358,22 0,00 0,00 0,00 0,00 3.940,43 433,45 212,07 0,00 645,52 3.294,91 457,00 0,00 30/09/2013
393 390400 CARMEM APARECIDA ANTUNES RESENDE OFICIAL DO MP ATIVO IGARAPÉ - COMARCA; IGARAPE-PJ-SECRETARIA 4.270,85 3.416,69 0,00 0,00 0,00 845,63 8.533,17 845,63 1.276,20 0,00 2.121,83 6.411,34 457,00 0,00 30/09/2013
394 202000 CARMEN LUCIA MARIZ DE MACEDO OFICIAL DO MP ATIVO BELO HORIZONTE - COMARCA; COORD COMB REPRES TRAFICO ILICITO ENTORPECEN 7.731,26 3.092,51 0,00 0,00 0,00 0,00 10.823,77 1.394,73 2.218,11 0,00 3.612,84 7.210,93 3.833,47 2.165,11 30/09/2013
395 228500 CAROLINA CHIARELLA DOS SANTOS RIBEIRO OFICIAL DO MP ATIVO BELO HORIZONTE - COMARCA; BH-13ª PJ JUÍXO DE TÓXICOS 4.409,86 881,97 0,00 0,00 0,00 0,00 5.291,83 582,10 410,01 0,00 992,11 4.299,72 927,00 0,00 30/09/2013
396 446500 CAROLINA COSTA VAL RODRIGUES ANALISTA DO MP ATIVO CONTAGEM - COMARCA; CONTAGEM-PJ-05PJ 5.883,73 588,37 0,00 0,00 0,00 0,00 6.472,10 711,93 793,47 0,00 1.505,40 4.966,70 457,00 0,00 30/09/2013
397 404300 CAROLINA DOS SANTOS VIEIRA ANALISTA DO MP ATIVO BELO HORIZONTE - COMARCA; BH-08PJ JUIZADO ESPECIAL-SECRETARIA 6.379,14 637,91 0,00 0,00 0,00 0,00 7.017,05 799,94 894,71 0,00 1.694,65 5.322,40 927,00 255,17 30/09/2013
398 551200 CAROLINA LOPES ARANTES MASCARENHAS ANALISTA DO MP ATIVO BELO HORIZONTE - COMARCA; EXTINTA - COORD DEFESA DO DIREITO DE FAMILIA 4.553,46 0,00 0,00 0,00 0,00 0,00 4.553,46 500,88 334,83 0,00 835,71 3.717,75 457,00 0,00 30/09/2013
399 382200 CAROLINA MENDES CHAVES LIN ANALISTA DO MP ATIVO BELO HORIZONTE - COMARCA; SUPERINTENDENCIA DE RECURSOS HUMANOS 5.518,54 551,85 0,00 0,00 0,00 0,00 6.070,39 667,74 647,86 0,00 1.315,60 4.754,79 0,00 0,00 30/09/2013
400 461900 CAROLINA MURTA TEIXEIRA DIAS ANALISTA DO MP ATIVO BELO HORIZONTE - COMARCA; DIRET DE FORMACAO, APERFEIC. E POS-GRADUACAO 5.698,20 0,00 0,00 0,00 0,00 0,00 5.698,20 626,80 604,06 0,00 1.230,86 4.467,34 457,00 0,00 30/09/2013
401 509600 CAROLINA PINTO DE OLIVEIRA SOUZA ANALISTA DO MP ATIVO MURIAÉ - COMARCA; MURIAE-PJ-01PJ 5.176,02 0,00 0,00 0,00 0,00 0,00 5.176,02 569,36 428,96 0,00 998,32 4.177,70 692,00 0,00 30/09/2013
402 502600 CAROLINA RODRIGUES RUBEN ANALISTA DO MP ATIVO BELO HORIZONTE - COMARCA; BH-18PJ VIOLENCIA DOMESTICA-SECRETARIA 5.176,02 0,00 0,00 0,00 0,00 0,00 5.176,02 569,36 476,25 0,00 1.045,61 4.130,41 457,00 0,00 30/09/2013
403 529600 CAROLINA VAZ DE MELO MAMBRINI ANALISTA DO MP ATIVO MINAS NOVAS - COMARCA; MINAS NOVAS-PJ-UNPJ 4.553,46 0,00 0,00 0,00 0,00 0,00 4.553,46 500,88 334,83 0,00 835,71 3.717,75 457,00 0,00 30/09/2013
404 517600 CAROLINE ALVES DE OLIVEIRA MULLER ANALISTA DO MP ATIVO VISCONDE DO RIO BRANCO - COMARCA; VISCONDE DO RIO BRANCO-PJ-01PJ 5.176,02 0,00 0,00 0,00 0,00 0,00 5.176,02 569,36 428,96 0,00 998,32 4.177,70 692,00 0,00 30/09/2013
405 373200 CAROLINE ANTUNES RIBEIRO OFICIAL DO MP ATIVO JACUI - COMARCA; JACUI-PJ-UNPJ 4.701,73 470,17 0,00 0,00 0,00 0,00 5.171,90 568,91 342,59 0,00 911,50 4.260,40 692,00 0,00 30/09/2013
406 556800 CAROLINE DE SOUZA CARDOSO OFICIAL DO MP ATIVO BRASÍLIA DE MINAS - COMARCA; BRASILIA DE MINAS-PJ-02PJ 2.684,83 0,00 0,00 0,00 0,00 0,00 2.684,83 320,64 68,54 0,00 389,18 2.295,65 457,00 230,10 30/09/2013
407 499400 CAROLINE MARQUES DE LOURDES MARZULLO OFICIAL DO MP ATIVO JUIZ DE FORA - COMARCA; JUIZ DE FORA-PJ-20PJ 3.359,85 0,00 0,00 0,00 0,00 0,00 3.359,85 369,58 127,94 0,00 497,52 2.862,33 457,00 0,00 30/09/2013
408 268800 CASSIA BEATRIZ TEIXEIRA OFICIAL DO MP ATIVO BELO HORIZONTE - COMARCA; COMB CRIMES PRAT POR AG POL MUN-SECRETARIA 5.883,73 1.176,75 0,00 0,00 2.353,49 0,00 9.413,97 776,65 1.584,68 0,00 2.361,33 7.052,64 457,00 0,00 30/09/2013
409 500000 CASSIA DE OLIVEIRA COSTA VIANA ANALISTA DO MP ATIVO SETE LAGOAS - COMARCA; SETE LAGOAS-PJ-01PJ 5.698,20 0,00 0,00 0,00 0,00 0,00 5.698,20 714,88 847,89 0,00 1.562,77 4.135,43 457,00 974,74 30/09/2013
410 368800 CASSIA LUISA BATISTA MENDONCA WEBER OFICIAL DO MP ATIVO BELO HORIZONTE - COMARCA; PROCON-MG-SEC DE EDUCACAO PARA O CONSUMO 4.005,77 400,58 0,00 0,00 0,00 0,00 4.406,35 484,70 305,37 0,00 790,07 3.616,28 927,00 0,00 30/09/2013
411 121000 CASSIO HENRIQUE AFONSO DA SILVA COORDENADOR/OFICIAL ATIVO BELO HORIZONTE - COMARCA; DIR ANALISES TECNOLOGIA INTELIGENCIA 9.674,93 7.159,46 0,00 0,00 0,00 0,00 16.834,39 1.596,36 3.305,29 0,00 4.901,65 11.932,74 927,00 0,00 30/09/2013
412 121100 CASSIO MOREIRA DE MIRANDA AGENTE DO MP ATIVO BELO HORIZONTE - COMARCA; PROCON-MG-SECRETARIA DE FISCALIZACOES 3.151,29 3.246,69 0,00 0,00 0,00 0,00 6.397,98 589,29 158,67 0,00 747,96 5.650,02 457,00 0,00 30/09/2013
413 512000 CATARINA NATALINO CALIXTO OFICIAL DO MP ATIVO BELO HORIZONTE - COMARCA; EXTINTA - DIVISÃO DE APOIO À LICITAÇÃO 3.051,96 0,00 0,00 0,00 0,00 0,00 3.051,96 341,47 93,82 0,00 435,29 2.616,67 457,00 52,32 30/09/2013
414 71800 CATIA EFIGENIA CARNEIRO DE FREITAS OFICIAL DO MP ATIVO BELO HORIZONTE - COMARCA; ASSESSORIA JURIDICO-ADMINISTRATIVA 19.713,97 13.799,78 0,00 0,00 0,00 0,00 33.513,75 2.785,59 5.360,05 8.190,25 16.335,89 17.177,86 457,00 0,00 30/09/2013
415 538000 CECILIA FONTES DE MATOS ANALISTA DO MP ATIVO PALMA - COMARCA; PALMA-PJ-SECRETARIA 4.553,46 0,00 0,00 0,00 0,00 0,00 4.553,46 500,88 334,83 0,00 835,71 3.717,75 457,00 0,00 30/09/2013
416 261300 CECILIO ANTONIO CAMPOS DOS REIS ANALISTA DO MP ATIVO BELO HORIZONTE - COMARCA; CENTRAL DE APOIO TECNICO-SETOR CONTABIL 9.074,45 1.814,89 0,00 0,00 3.629,78 0,00 14.519,12 1.197,83 2.872,77 0,00 4.070,60 10.448,52 457,00 0,00 30/09/2013
417 386400 CEFAS AMORELI DE FIGUEIREDO OFICIAL DO MP ATIVO CABO VERDE - COMARCA; CABO VERDE-PJ-SECRETARIA 3.582,21 358,22 0,00 0,00 0,00 0,00 3.940,43 433,45 212,07 0,00 645,52 3.294,91 457,00 0,00 30/09/2013
418 149000 CELIA MAGALHAES CLAROS SOSSI OFICIAL DO MP ATIVO GOVERNADOR VALADARES - COMARCA; GOVERNADOR VALADARES-PJ-01PJ 8.788,36 3.515,35 0,00 0,00 0,00 0,00 12.303,71 1.353,41 2.220,75 0,00 3.574,16 8.729,55 457,00 0,00 30/09/2013
419 113100 CELIA MARIA ALVES PINTO OFICIAL DO MP ATIVO BELO HORIZONTE - COMARCA; PROCON-MG-SEC DE EDUCACAO PARA O CONSUMO 6.075,32 4.252,73 0,00 0,00 0,00 0,00 10.328,05 1.136,09 1.737,21 0,00 2.873,30 7.454,75 457,00 0,00 30/09/2013
420 421000 CELINA BENEDITA DE SOUZA ALMEIDA OFICIAL DO MP ATIVO CAMBUÍ - COMARCA; CAMBUI-PJ-01PJ 4.136,15 1.654,47 0,00 0,00 0,00 0,00 5.790,62 691,57 700,88 0,00 1.392,45 4.398,17 457,00 496,40 30/09/2013
421 252900 CELIO DE MELO CASTOR ANALISTA DO MP ATIVO BELO HORIZONTE - COMARCA; BH-20PJ ORD ECON TRIBUTARIA-SECRETARIA 9.074,45 1.814,89 0,00 0,00 0,00 0,00 10.889,34 1.197,83 1.827,29 0,00 3.025,12 7.864,22 457,00 0,00 30/09/2013
422 395700 CELIO FERREIRA LIMA OFICIAL DO MP ATIVO CONTAGEM - COMARCA; CONTAGEM-PJ-07PJ 3.879,42 387,94 0,00 0,00 0,00 0,00 4.267,36 469,41 238,85 0,00 708,26 3.559,10 692,00 0,00 30/09/2013
423 281300 CELMA REGINA PEREIRA SANTOS ANALISTA DO MP ATIVO BELO HORIZONTE - COMARCA; DIVISAO DE ACERVOS BIBLIOGRAFICOS 9.674,93 967,49 0,00 0,00 0,00 0,00 10.642,42 1.170,67 1.814,15 0,00 2.984,82 7.657,60 457,00 0,00 30/09/2013
424 535600 CELSO MEDEIROS DE PAIVA OFICIAL DO MP ATIVO RIO PRETO - COMARCA; RIO PRETO-PJ-SECRETARIA 2.684,83 0,00 0,00 0,00 0,00 0,00 2.684,83 295,33 38,00 0,00 333,33 2.351,50 457,00 0,00 30/09/2013
425 367000 CESAR NARVAES DE AVELAR OFICIAL DO MP ATIVO BELO HORIZONTE - COMARCA; DIVISAO DE MEMORIA INSTITUCIONAL 4.854,78 485,48 0,00 0,00 0,00 0,00 5.340,26 587,43 516,45 0,00 1.103,88 4.236,38 457,00 0,00 30/09/2013
426 226500 CESAR SILVEIRA BARROUIN OFICIAL DO MP ATIVO BELO HORIZONTE - COMARCA; DIRETORIA DE ADMINISTRACAO FINANCEIRA 6.177,98 1.853,39 0,00 0,00 0,00 0,00 8.031,37 883,45 1.175,10 0,00 2.058,55 5.972,82 457,00 0,00 30/09/2013
427 121400 CEZAR MORENO CONCEICAO TAVARES OFICIAL DO MP ATIVO BELO HORIZONTE - COMARCA; COORD DE INCLUSAO E MOBILIZACAO SOCIAIS 7.982,93 3.991,47 0,00 0,00 0,00 0,00 11.974,40 1.317,18 2.140,16 0,00 3.457,34 8.517,06 457,00 0,00 30/09/2013
428 243800 CHARLES MARTINS MUNIZ OFICIAL DO MP ATIVO BELO HORIZONTE - COMARCA; GAECO - SECRETARIA 5.344,58 1.068,92 0,00 0,00 0,00 0,00 6.413,50 705,49 779,12 0,00 1.484,61 4.928,89 457,00 0,00 30/09/2013
429 193500 CHARLIN CESAR KOURLY OFICIAL DO MP ATIVO ITUIUTABA - COMARCA; ITUIUTABA-PJ-SECRETARIA 7.731,26 1.546,25 0,00 0,00 0,00 0,00 9.277,51 1.195,47 1.869,34 0,00 3.064,81 6.212,70 457,00 1.590,40 30/09/2013
430 385500 CHILLEN PEIXOTO DE MOURA OFICIAL DO MP ATIVO BELO HORIZONTE - COMARCA; BH-14PJ DEFESA CONSUMIDOR-SECRETARIA 3.582,21 358,22 0,00 0,00 0,00 0,00 3.940,43 433,45 212,07 0,00 645,52 3.294,91 457,00 0,00 30/09/2013
431 534500 CHRISTIAN DOUGLAS BRITO RUAS OFICIAL DO MP ATIVO SÃO JOÃO DA PONTE - COMARCA; SAO JOAO DA PONTE-PJ-SECRETARIA 2.684,83 0,00 0,00 0,00 0,00 0,00 2.684,83 343,43 96,20 0,00 439,63 2.245,20 605,48 437,24 30/09/2013
432 370600 CHRISTIAN KARINE FELIX PRATES ASSESSOR ATIVO BELO HORIZONTE - COMARCA; ASSESS ESPECIAL DO PGJ ATUACAO JUNTO A PGJAI 0,00 0,00 5.883,73 0,00 1.961,24 0,00 7.844,97 457,49 1.366,65 0,00 1.824,14 6.020,83 692,00 0,00 30/09/2013
433 435800 CHRISTIANA BAHIA ANDRADE PINA ANALISTA DO MP ATIVO BELO HORIZONTE - COMARCA; CAO-ORDEM ECONOMICA E TRIBUTARIA 6.379,14 382,75 0,00 0,00 0,00 0,00 6.761,89 843,93 1.135,31 0,00 1.979,24 4.782,65 692,00 1.085,27 30/09/2013
434 516800 CHRISTIANE FERREIRA DO NASCIMENTO ANALISTA DO MP ATIVO ESTRELA DO SUL - COMARCA; ESTRELA DO SUL-PJ-UNPJ 4.270,85 0,00 0,00 0,00 0,00 0,00 4.270,85 469,79 278,24 0,00 748,03 3.522,82 457,00 0,00 30/09/2013
435 176000 CHRISTIANE JUNQUEIRA PULITI ANDRADE DE BARROS ASSESSOR ATIVO BELO HORIZONTE - COMARCA; GABINETE DO PROCURADOR-GERAL DE JUSTICA 0,00 4.837,47 9.674,93 0,00 0,00 0,00 14.512,40 1.596,36 2.714,04 0,00 4.310,40 10.202,00 457,00 0,00 30/09/2013
436 319200 CHRISTIANE MARIA DE ASSIS RUSSO OFICIAL DO MP ATIVO BELO HORIZONTE - COMARCA; CAO-ORDEM ECONOMICA E TRIBUTARIA-SECRETARIA 5.344,58 534,46 0,00 0,00 0,00 0,00 5.879,04 646,69 601,02 0,00 1.247,71 4.631,33 692,00 0,00 30/09/2013
437 510300 CHRISTIANE MARY DE CARVALHO FERREIRA ANALISTA DO MP ATIVO BELO HORIZONTE - COMARCA; DIRETORIA DE SISTEMAS DE INFORMACAO 4.701,73 0,00 0,00 0,00 0,00 0,00 4.701,73 517,19 325,83 0,00 843,02 3.858,71 692,00 0,00 30/09/2013
438 424900 CHRISTIANE PEREIRA TURNER DE ARAUJO OFICIAL DO MP ATIVO BELO HORIZONTE - COMARCA; CAO-PATRIMONIO PUBLICO 4.136,15 248,17 0,00 0,00 0,00 0,00 4.384,32 482,28 300,96 0,00 783,24 3.601,08 457,00 0,00 30/09/2013
439 513700 CHRISTIANE VIEIRA SOARES PEDERSOLI ANALISTA DO MP ATIVO BELO HORIZONTE - COMARCA; EXTINTA - SECRETARIA ADMINISTRATIVA 5.176,02 0,00 0,00 0,00 0,00 0,00 5.176,02 569,36 476,25 0,00 1.045,61 4.130,41 457,00 0,00 30/09/2013
440 412300 CHRYSTIAN MACHADO RIBEIRO ANALISTA DO MP ATIVO VARGINHA - COMARCA; VARGINHA-PJ-04PJ 6.379,14 382,75 0,00 0,00 0,00 0,00 6.761,89 807,56 1.006,25 0,00 1.813,81 4.948,08 457,00 579,60 30/09/2013
441 513800 CHRYSTIANE DO NASCIMENTO DE MAGALHAES OFICIAL DO MP ATIVO UBERLÂNDIA - COMARCA; UBERLANDIA-PJ-10PJ 3.359,85 0,00 0,00 0,00 0,00 0,00 3.359,85 375,92 135,63 0,00 511,55 2.848,30 692,00 57,60 30/09/2013
442 497900 CIBELE DE FREITAS SANCHES DIAS ANALISTA DO MP ATIVO SABARÁ - COMARCA; SABARA-PJ-03PJ 5.176,02 0,00 0,00 0,00 0,00 0,00 5.176,02 630,23 611,68 0,00 1.241,91 3.934,11 457,00 553,34 30/09/2013
443 500900 CIBELLE SILVA PRADO ALVARENGA ANALISTA DO MP ATIVO ITANHANDU - COMARCA; ITANHANDU-PJ-UNPJ 5.176,02 0,00 0,00 0,00 0,00 0,00 5.176,02 569,36 476,25 0,00 1.045,61 4.130,41 457,00 0,00 30/09/2013
444 296400 CINTIA APARECIDA MOREIRA NAVES E RODRIGUES ANALISTA DO MP ATIVO CAMPO BELO - COMARCA; CAMPO BELO-PJ-04PJ 8.788,36 878,84 0,00 0,00 0,00 0,00 9.667,20 1.063,39 1.575,47 0,00 2.638,86 7.028,34 457,00 0,00 30/09/2013
445 407900 CINTIA NETO COMELLI ANALISTA DO MP ATIVO BELO HORIZONTE - COMARCA; CENTRAL DE APOIO TECNICO-SETOR CONTABIL 6.379,14 382,75 0,00 0,00 0,00 0,00 6.761,89 743,81 864,39 0,00 1.608,20 5.153,69 457,00 0,00 30/09/2013
446 304700 CINTIA QUEIROZ OFICIAL DO MP ATIVO BELO HORIZONTE - COMARCA; BH-17PJ PATRIMONIO PUBLICO 5.344,58 534,46 0,00 0,00 0,00 0,00 5.879,04 646,69 648,32 0,00 1.295,01 4.584,03 457,00 0,00 30/09/2013
447 286100 CIRO CANGUSSU CORDEIRO OFICIAL DO MP ATIVO IPATINGA - COMARCA; IPATINGA-PJ-09PJ 4.409,86 440,99 0,00 0,00 0,00 0,00 4.850,85 533,59 355,69 0,00 889,28 3.961,57 457,00 0,00 30/09/2013
448 412500 CLARICE GOMES MAROTTA ANALISTA DO MP ATIVO BELO HORIZONTE - COMARCA; ASSESS TECNICO-JUR JUNTO AS PROC. DE JUST 6.379,14 1.275,83 0,00 0,00 0,00 0,00 7.654,97 842,05 1.082,97 0,00 1.925,02 5.729,95 457,00 0,00 30/09/2013
449 308100 CLARISSA DUARTE MARTINS DIRETOR/ANALISTA ATIVO BELO HORIZONTE - COMARCA; SUPERINTENDENCIA DE RECURSOS HUMANOS 0,00 1.254,01 12.540,10 0,00 0,00 0,00 13.794,11 1.063,39 2.663,08 0,00 3.726,47 10.067,64 457,00 0,00 30/09/2013
450 497100 CLARISSA ROCHA GUIDI ANALISTA DO MP ATIVO BELO HORIZONTE - COMARCA; EXTINTA - JUIZO DE FAMILIA-02 PJ-02 VARA 5.698,20 0,00 0,00 0,00 0,00 0,00 5.698,20 730,19 881,97 0,00 1.612,16 4.086,04 457,00 1.113,98 30/09/2013
451 463700 CLAUDIA ADRIANA FERRAO DIAS ANALISTA DO MP ATIVO SETE LAGOAS - COMARCA; SETE LAGOAS-PJ-06PJ 5.698,20 0,00 0,00 0,00 0,00 0,00 5.698,20 680,53 581,71 0,00 1.262,24 4.435,96 457,00 488,40 30/09/2013
452 415400 CLAUDIA ALMEIDA DE VASCONCELLOS BARROS ASSESSOR/OFICIAL ATIVO BELO HORIZONTE - COMARCA; DIRET DE PESSOAL DO MINISTERIO PUBLICO - DPMP 0,00 449,25 7.487,46 0,00 0,00 0,00 7.936,71 873,04 1.151,93 0,00 2.024,97 5.911,74 457,00 0,00 30/09/2013
453 389600 CLAUDIA ALVES PERDOMO ASSESSOR ATIVO BELO HORIZONTE - COMARCA; PROCON-MG-GAB DO COORDENADOR DO PROCON-MG 0,00 0,00 7.487,46 0,00 0,00 0,00 7.487,46 457,49 1.268,34 0,00 1.725,83 5.761,63 457,00 0,00 30/09/2013
454 207000 CLAUDIA APARECIDA VILELA MACHADO ANALISTA DO MP ATIVO BELO HORIZONTE - COMARCA; CENTRAL DE APOIO TECNICO-SETOR CONTABIL 11.161,27 3.348,38 0,00 0,00 0,00 0,00 14.509,65 1.596,06 2.618,78 0,00 4.214,84 10.294,81 692,00 0,00 30/09/2013
455 365700 CLAUDIA BREGUEZ CUNHA ANALISTA DO MP ATIVO VARGINHA - COMARCA; VARGINHA-PJ-07PJ 7.731,26 773,13 0,00 0,00 0,00 0,00 8.504,39 935,48 1.290,87 0,00 2.226,35 6.278,04 457,00 0,00 30/09/2013
456 430500 CLAUDIA CECILIA SANTANA VENCESLAU COORDENADOR/OFICIAL ATIVO BELO HORIZONTE - COMARCA; DIRET DE DESENV DE RECURSOS HUMANOS-DDRH 0,00 580,50 9.674,93 0,00 0,00 0,00 10.255,43 482,28 1.897,04 0,00 2.379,32 7.876,11 457,00 0,00 30/09/2013
457 112400 CLAUDIA CRISTINA FIUZA DE AVELAR AGENTE DO MP ATIVO BELO HORIZONTE - COMARCA; SERVICO MEDICO-DEPTO PERIC MEDICA SAUDE OCUP 5.344,58 2.672,29 0,00 0,00 0,00 0,00 8.016,87 881,86 1.171,55 0,00 2.053,41 5.963,46 457,00 0,00 30/09/2013
458 149400 CLAUDIA DINIZ OFICIAL DO MP ATIVO BELO HORIZONTE - COMARCA; BH-09PJ AUDITORIA MILITAR-SECRETARIA 9.989,93 4.994,97 0,00 0,00 0,00 0,00 14.984,90 1.648,34 2.782,39 0,00 4.430,73 10.554,17 457,00 0,00 30/09/2013
459 480400 CLAUDIA GOULART DE SOUZA OFICIAL DO MP ATIVO PASSOS - COMARCA; PASSOS-PJ-06PJ 3.359,85 0,00 0,00 0,00 0,00 0,00 3.359,85 369,58 127,94 0,00 497,52 2.862,33 457,00 0,00 30/09/2013
460 519800 CLAUDIA HELENA CORREA DE ALMEIDA ANALISTA DO MP ATIVO BELO HORIZONTE - COMARCA; BH-12PJ JUIZO CRIMINAL-GAB 090PJ 5.176,02 0,00 0,00 0,00 0,00 0,00 5.176,02 569,36 476,25 0,00 1.045,61 4.130,41 457,00 0,00 30/09/2013
461 422100 CLAUDIA IACOMINI CABRAL ANALISTA DO MP ATIVO BELO HORIZONTE - COMARCA; CENT DE APOIO TEC-SETOR DEF,IDOSO E INFANC 6.379,14 2.551,65 0,00 0,00 0,00 0,00 8.930,79 982,39 1.395,23 0,00 2.377,62 6.553,17 457,00 0,00 30/09/2013
462 258200 CLAUDIA LAGE MICHALAROS ANALISTA DO MP ATIVO BELO HORIZONTE - COMARCA; CENTRAL DE APOIO TECN-SETOR DE MEIO AMBIENTE 9.369,85 4.684,93 0,00 0,00 0,00 0,00 14.054,78 1.546,03 2.602,03 0,00 4.148,06 9.906,72 3.833,47 309,51 30/09/2013
463 284600 CLAUDIA LENI DE ABREU OFICIAL DO MP ATIVO CONTAGEM - COMARCA; CONTAGEM-PJ-22PJ 4.409,86 1.322,96 0,00 0,00 0,00 0,00 5.732,82 630,61 612,53 0,00 1.243,14 4.489,68 457,00 0,00 30/09/2013
464 433600 CLAUDIA LUIZA SANTIAGO FELICIO ANALISTA DO MP ATIVO BELO HORIZONTE - COMARCA; CAO-SAUDE-TECNICO JURIDICO 6.075,32 364,52 0,00 0,00 0,00 0,00 6.439,84 708,38 643,70 0,00 1.352,08 5.087,76 927,00 0,00 30/09/2013
465 317000 CLAUDIA MACHADO ALVES OFICIAL DO MP ATIVO BELO HORIZONTE - COMARCA; ASSESS ESPECIAL DO PGJ ATUACAO JUNTO A PGJAI 4.409,86 440,99 0,00 0,00 0,00 0,00 4.850,85 561,04 457,72 0,00 1.018,76 3.832,09 457,00 249,48 30/09/2013
466 155300 CLAUDIA MACIEL MIRANDA OFICIAL DO MP ATIVO CONGONHAS - COMARCA; CONGONHAS-PJ-02PJ 7.982,93 2.394,88 0,00 0,00 0,00 0,00 10.377,81 1.180,70 1.741,89 0,00 2.922,59 7.455,22 927,00 355,80 30/09/2013
467 242200 CLAUDIA MICHELLE DIAS MUNIZ BALEEIRO OFICIAL DO MP ATIVO MONTE AZUL - COMARCA; MONTE AZUL-PJ-SECRETARIA 5.698,20 1.709,46 0,00 0,00 0,00 0,00 7.407,66 814,84 927,86 0,00 1.742,70 5.664,96 692,00 0,00 30/09/2013
468 418400 CLAUDIA REGINA MARTINS BONIFACIO OFICIAL DO MP ATIVO ITUIUTABA - COMARCA; ITUIUTABA-PJ-SECRETARIA 4.136,15 248,17 0,00 0,00 0,00 0,00 4.384,32 482,28 223,57 0,00 705,85 3.678,47 457,00 0,00 30/09/2013
469 498300 CLAUDIA SOUTO FARIAS BRAUN OFICIAL DO MP ATIVO TEÓFILO OTONI - COMARCA; TEOFILO OTONI-PJ-SECRETARIA 3.051,96 0,00 0,00 0,00 0,00 0,00 3.051,96 335,72 36,71 0,00 372,43 2.679,53 692,00 0,00 30/09/2013
470 206500 CLAUDIA VALERIA FONSECA ANDRADE ANALISTA DO MP ATIVO BELO HORIZONTE - COMARCA; BH-23PJ INF-FISC MED SOC FEC 11.161,27 4.464,51 0,00 0,00 0,00 0,00 15.625,78 1.718,84 2.986,54 0,00 4.705,38 10.920,40 457,00 0,00 30/09/2013
471 277500 CLAUDIO ANTONIO BORGES ALVARES ASSESSOR/OFICIAL ATIVO BELO HORIZONTE - COMARCA; COORD REG BACIAS RIO VELHAS E PARAOPEBA 0,00 588,37 5.883,73 0,00 0,00 0,00 6.472,10 667,74 805,62 0,00 1.473,36 4.998,74 457,00 0,00 30/09/2013
472 444800 CLAUDIO ARESIO DO CARMO ANALISTA DO MP ATIVO SETE LAGOAS - COMARCA; SETE LAGOAS-PJ-09PJ 5.883,73 1.176,75 0,00 0,00 0,00 0,00 7.060,48 843,24 1.085,62 0,00 1.928,86 5.131,62 457,00 605,30 30/09/2013
473 541600 CLAUDIO DE OLIVEIRA MELO OFICIAL DO MP ATIVO PARACATU - COMARCA; PARACATU-PJ-01PJ 2.684,83 0,00 0,00 0,00 0,00 0,00 2.684,83 295,33 25,11 0,00 320,44 2.364,39 1.162,00 0,00 30/09/2013
474 545100 CLAUDIO HENRIQUE MACEDO DE SOUZA FRANSOZO ANALISTA DO MP ATIVO OURO PRETO - COMARCA; OURO PRETO-PJ-01PJ 4.136,15 0,00 0,00 0,00 0,00 0,00 4.136,15 454,98 251,26 0,00 706,24 3.429,91 457,00 0,00 30/09/2013
475 353500 CLAUDIO HENRIQUE PEDRO DA ROCHA OFICIAL DO MP ATIVO BELO HORIZONTE - COMARCA; CAO-CRIMINAL-SECRETARIA 5.012,79 501,28 0,00 0,00 0,00 0,00 5.514,07 606,55 464,40 0,00 1.070,95 4.443,12 457,00 0,00 30/09/2013
476 265800 CLAUDIO KUPIDLOWSKY FERNANDES OFICIAL DO MP ATIVO BELO HORIZONTE - COMARCA; EXTINTA - SECRETARIA ADMINISTRATIVA 5.518,54 1.103,71 0,00 0,00 0,00 0,00 6.622,25 728,45 2.113,98 0,00 2.842,43 3.779,82 692,00 8.145,01 30/09/2013
477 193600 CLAUDIO LEITE FONTES OFICIAL DO MP ATIVO ITUIUTABA - COMARCA; ITUIUTABA-PJ-02PJ 4.701,73 1.410,52 0,00 0,00 0,00 0,00 6.112,25 672,35 518,94 0,00 1.191,29 4.920,96 692,00 0,00 30/09/2013
478 329400 CLAUDIO MARCIO BERNARDES OFICIAL DO MP ATIVO ITAÚNA - COMARCA; ITAUNA-PJ-04PJ 5.344,58 2.137,83 0,00 0,00 0,00 0,00 7.482,41 823,07 993,45 0,00 1.816,52 5.665,89 457,00 0,00 30/09/2013
479 270200 CLAUDIO RABELO ALVES OFICIAL DO MP ATIVO FORMIGA - COMARCA; FORMIGA-PJ-SECRETARIA 5.883,73 1.176,75 0,00 0,00 0,00 0,00 7.060,48 843,24 896,45 0,00 1.739,69 5.320,79 457,00 605,30 30/09/2013
480 264700 CLAUDIO ROBERTO KFURI DE ARAUJO ANALISTA DO MP ATIVO BELO HORIZONTE - COMARCA; CENTRAL DE APOIO TECNICO-SETOR DE INFORMATICA 9.074,45 1.814,89 0,00 0,00 0,00 0,00 10.889,34 1.197,83 1.780,00 0,00 2.977,83 7.911,51 457,00 0,00 30/09/2013
481 188600 CLAUDIO SALES OFICIAL DO MP ATIVO NEPOMUCENO - COMARCA; NEPOMUCENO-PJ-SECRETARIA 7.487,46 3.743,73 0,00 0,00 0,00 0,00 11.231,19 1.455,43 1.863,67 0,00 3.319,10 7.912,09 457,00 2.000,00 30/09/2013
482 543300 CLAUDIO SILVA DE CARVALHO ANALISTA DO MP ATIVO CAMPO BELO - COMARCA; CAMPO BELO-PJ-02PJ 4.136,15 0,00 0,00 0,00 0,00 0,00 4.136,15 454,98 179,98 0,00 634,96 3.501,19 457,00 0,00 30/09/2013
483 160700 CLAUDIO VICENTE HESS ASSESSOR ATIVO BELO HORIZONTE - COMARCA; EXTINTA - SUPERINTENDENCIA ADMINISTRATIVA-SAD 0,00 2.472,85 8.242,82 0,00 3.571,89 0,00 14.287,56 457,49 2.996,49 0,00 3.453,98 10.833,58 457,00 61,41 30/09/2013
484 312900 CLAUDIO VIEIRA FIRPE ASSESSOR/OFICIAL ATIVO BELO HORIZONTE - COMARCA; DIRETORIA DE RELACOES PUBLICAS E CERIMONIAL 0,00 748,75 7.487,46 0,00 0,00 0,00 8.236,21 646,69 1.296,54 0,00 1.943,23 6.292,98 457,00 43,36 30/09/2013
485 459200 CLEIA ZILLE PEREIRA ANALISTA DO MP ATIVO BELO HORIZONTE - COMARCA; ASSESS TECNICO-JUR JUNTO AS PROC. DE JUST 5.698,20 0,00 0,00 0,00 0,00 0,00 5.698,20 626,80 604,06 0,00 1.230,86 4.467,34 4.303,47 309,51 30/09/2013
486 461300 CLEIDE ALVES DA SILVA OFICIAL DO MP ATIVO BOA ESPERANÇA - COMARCA; BOA ESPERANCA-PJ-01PJ 3.698,79 0,00 0,00 0,00 0,00 0,00 3.698,79 406,87 173,19 0,00 580,06 3.118,73 457,00 0,00 30/09/2013
487 481800 CLEIDE CARDOSO DA SILVA ANALISTA DO MP ATIVO GOVERNADOR VALADARES - COMARCA; GOVERNADOR VALADARES-PJ-15PJ 5.698,20 0,00 0,00 0,00 0,00 0,00 5.698,20 626,80 509,47 0,00 1.136,27 4.561,93 969,45 3,89 30/09/2013
488 347600 CLEIDIMAR DE OLIVEIRA SILVA OFICIAL DO MP ATIVO JOÃO PINHEIRO - COMARCA; JOAO PINHEIRO-PJ-02PJ 4.409,86 881,97 0,00 0,00 0,00 0,00 5.291,83 582,10 327,92 0,00 910,02 4.381,81 457,00 0,00 30/09/2013
489 396500 CLEIDISON BATISTA DE ANDRADE OFICIAL DO MP ATIVO RESPLENDOR - COMARCA; RESPLENDOR-PJ-UNPJ 3.582,21 358,22 0,00 0,00 0,00 0,00 3.940,43 433,45 128,06 0,00 561,51 3.378,92 457,00 0,00 30/09/2013
490 535100 CLEISON ALVES DA SILVA ANALISTA DO MP ATIVO BOA ESPERANÇA - COMARCA; BOA ESPERANCA-PJ-01PJ 4.553,46 0,00 0,00 0,00 0,00 0,00 4.553,46 500,88 296,14 0,00 797,02 3.756,44 457,00 0,00 30/09/2013
491 298100 CLEONICE AUGUSTA BARROS DE OLIVEIRA ANALISTA DO MP ATIVO JUIZ DE FORA - COMARCA; JUIZ DE FORA-PJ-08PJ 8.788,36 878,84 0,00 0,00 0,00 0,00 9.667,20 1.063,39 1.575,47 0,00 2.638,86 7.028,34 457,00 0,00 30/09/2013
492 60200 CLERES DE ALMEIDA AGENTE DO MP ATIVO BELO HORIZONTE - COMARCA; EXTINTA - DIVISAO DE TRANSPORTES 4.136,15 2.895,32 0,00 0,00 0,00 0,00 7.031,47 925,94 1.175,07 0,00 2.101,01 4.930,46 457,00 1.386,21 30/09/2013
493 114300 CLERES PEREIRA DA SILVA JUNIOR ASSESSOR ATIVO BELO HORIZONTE - COMARCA; GAECO - SECRETARIA 0,00 1.479,52 3.698,79 0,00 0,00 0,00 5.178,31 457,49 491,45 0,00 948,94 4.229,37 457,00 0,00 30/09/2013
494 264100 CLETO HENRIQUE ANDRADE SILVA ANALISTA DO MP ATIVO BELO HORIZONTE - COMARCA; DIRETORIA DE SISTEMAS DE INFORMACAO 9.074,45 1.814,89 0,00 0,00 0,00 0,00 10.889,34 1.300,49 1.961,14 0,00 3.261,63 7.627,71 692,00 933,30 30/09/2013
495 334400 CLEUBA DE OLIVEIRA BARCELOS GONCALVES OFICIAL DO MP ATIVO DIVINÓPOLIS - COMARCA; COORD REG SAUDE MACRORREGIAO SANITARIA OESTE 5.344,58 534,46 0,00 0,00 0,00 0,00 5.879,04 646,69 553,73 0,00 1.200,42 4.678,62 457,00 0,00 30/09/2013
496 347500 CLEUSA CORDEIRO DA MATA PIMENTA OFICIAL DO MP ATIVO CAMPO BELO - COMARCA; CAMPO BELO-PJ-04PJ 4.854,78 3.398,35 0,00 0,00 0,00 0,00 8.253,13 907,84 1.134,79 0,00 2.042,63 6.210,50 457,00 11,69 30/09/2013
497 510200 CLEZIO SALES SILVA OFICIAL DO MP ATIVO BRASÓPOLIS - COMARCA; BRASOPOLIS-PJ-UNPJ 2.772,23 0,00 0,00 0,00 0,00 0,00 2.772,23 304,95 56,74 0,00 361,69 2.410,54 457,00 0,00 30/09/2013
498 323000 CLOTILDE DE PADUA VIEIRA OFICIAL DO MP ATIVO BELO HORIZONTE - COMARCA; BH-15PJ M AMB 16PJ HAB URB-SECRETARIA 3.757,11 375,71 0,00 0,00 0,00 0,00 4.132,82 454,61 250,60 0,00 705,21 3.427,61 457,00 0,00 30/09/2013
499 285200 CLOVIS ANDRE LUDTKE OFICIAL DO MP ATIVO BELO HORIZONTE - COMARCA; DIRETORIA DE MANUTENCAO PREDIAL 5.883,73 588,37 0,00 0,00 0,00 0,00 6.472,10 772,95 929,23 0,00 1.702,18 4.769,92 457,00 554,70 30/09/2013
500 381100 CONCEICAO APARECIDA TEIXEIRA ARANTES ANALISTA DO MP ATIVO BELO HORIZONTE - COMARCA; BH-23PJ INFRACIONAL-ASS JURIDICA 6.075,32 607,53 0,00 0,00 0,00 0,00 6.682,85 735,11 797,76 0,00 1.532,87 5.149,98 457,00 0,00 30/09/2013
501 249900 CONSTANTINO CEZAR GOMES MOTA OFICIAL DO MP ATIVO MONTES CLAROS - COMARCA; COORD REG BACIA RIOS VERDE GRANDE E PARDO 4.409,86 881,97 0,00 0,00 0,00 0,00 5.291,83 582,10 457,30 0,00 1.039,40 4.252,43 457,00 0,00 30/09/2013
502 481000 CRISHMA ANALIA LOMBELLO ANALISTA DO MP ATIVO JUIZ DE FORA - COMARCA; JUIZ DE FORA-PJ-13PJ 5.698,20 0,00 0,00 0,00 0,00 0,00 5.698,20 626,80 556,76 0,00 1.183,56 4.514,64 457,00 0,00 30/09/2013
503 187500 CRISLEY PATRICK TOSTES OFICIAL DO MP ATIVO JUIZ DE FORA - COMARCA; JUIZ DE FORA-PJ-21PJ 7.982,93 1.596,59 0,00 0,00 0,00 0,00 9.579,52 1.053,75 1.554,01 0,00 2.607,76 6.971,76 457,00 0,00 30/09/2013
504 523900 CRISTHYANE BAZOLI COSTA GUEDES OFICIAL DO MP ATIVO BELO HORIZONTE - COMARCA; CAO-DH APOIO COMUNITARIO-SEC ADM 2.772,23 0,00 0,00 0,00 0,00 0,00 2.772,23 304,95 56,74 0,00 361,69 2.410,54 457,00 0,00 30/09/2013
505 187000 CRISTIAN DAYVSON EVANGELISTA OFICIAL DO MP ATIVO JUIZ DE FORA - COMARCA; JUIZ DE FORA-PJ-09PJ 7.487,46 1.497,49 0,00 0,00 0,00 0,00 8.984,95 988,34 1.361,20 0,00 2.349,54 6.635,41 457,00 0,00 30/09/2013
506 319800 CRISTIANA GONCALVES DOS SANTOS OFICIAL DO MP ATIVO BELO HORIZONTE - COMARCA; BH-14PJ DEFESA CONSUMIDOR-SECRETARIA 4.854,78 485,48 0,00 0,00 0,00 0,00 5.340,26 617,64 583,68 0,00 1.201,32 4.138,94 457,00 274,68 30/09/2013
507 520600 CRISTIANA JANAINA BARBOZA JUVENCIO DOS SANTOS ANALISTA DO MP ATIVO BELO HORIZONTE - COMARCA; EXTINTA - JUIZO DE FAMILIA-02 PJ-02 VARA 5.176,02 0,00 0,00 0,00 1.725,34 0,00 6.901,36 569,36 950,72 0,00 1.520,08 5.381,28 457,00 0,00 30/09/2013
508 195600 CRISTIANA SOARES HALABI OFICIAL DO MP ATIVO UBERABA - COMARCA; UBERABA-PJ-11PJ 6.801,32 1.360,26 0,00 0,00 0,00 0,00 8.161,58 897,77 1.206,97 0,00 2.104,74 6.056,84 457,00 0,00 30/09/2013
509 218900 CRISTIANE ALVES BELLES OFICIAL DO MP ATIVO JUIZ DE FORA - COMARCA; JUIZ DE FORA-PJ-10PJ 4.409,86 881,97 0,00 0,00 0,00 0,00 5.291,83 582,10 366,61 0,00 948,71 4.343,12 457,00 0,00 30/09/2013
510 263600 CRISTIANE CARVALHO COUTINHO OFICIAL DO MP ATIVO BELO HORIZONTE - COMARCA; BH-23PJ INFRACIONAL-SEC EXP 5.883,73 1.176,75 0,00 0,00 0,00 0,00 7.060,48 776,65 890,18 0,00 1.666,83 5.393,65 692,00 5,88 30/09/2013
511 541000 CRISTIANE COELHO ALVES OFICIAL DO MP ATIVO ITABIRA - COMARCA; ITABIRA-PJ-01PJ 2.684,83 0,00 0,00 0,00 0,00 0,00 2.684,83 295,33 38,00 0,00 333,33 2.351,50 457,00 0,00 30/09/2013
512 441700 CRISTIANE CORRADO DE ANDRADE ANALISTA DO MP ATIVO BELO HORIZONTE - COMARCA; DIRETORIA DE SISTEMAS DE INFORMACAO 5.883,73 353,02 0,00 0,00 0,00 0,00 6.236,75 686,04 735,87 0,00 1.421,91 4.814,84 457,00 0,00 30/09/2013
513 375100 CRISTIANE DAS DORES ERCIO DE LIMA OFICIAL DO MP ATIVO GOVERNADOR VALADARES - COMARCA; GOVERNADOR VALADARES-PJ-15PJ 3.879,42 387,94 0,00 0,00 0,00 0,00 4.267,36 469,41 277,54 0,00 746,95 3.520,41 457,00 0,00 30/09/2013
514 178800 CRISTIANE DE LIMA HOSKEN OFICIAL DO MP ATIVO BELO HORIZONTE - COMARCA; BH-14PJ DEFESA CONSUMIDOR-SECRETARIA 7.731,26 1.546,25 0,00 0,00 0,00 0,00 9.277,51 1.020,53 1.338,21 0,00 2.358,74 6.918,77 457,00 0,00 30/09/2013
515 494000 CRISTIANE DE MELO MARQUEZ OLIVEIRA ANALISTA DO MP ATIVO UBERLÂNDIA - COMARCA; UBERLANDIA-PJ-06PJ 5.698,20 0,00 0,00 0,00 0,00 0,00 5.698,20 626,80 604,06 0,00 1.230,86 4.467,34 457,00 0,00 30/09/2013
516 266100 CRISTIANE DE OLIVEIRA CASTRO OFICIAL DO MP ATIVO BELO HORIZONTE - COMARCA; PROCON-MG-SECRETARIA DE FISCALIZACOES 5.698,20 2.180,42 0,00 0,00 0,00 0,00 7.878,62 752,16 1.027,32 0,00 1.779,48 6.099,14 692,00 0,00 30/09/2013
517 329500 CRISTIANE DOS REIS SILVA OFICIAL DO MP ATIVO ARAXÁ - COMARCA; ARAXA-PJ-04PJ 4.409,86 440,99 0,00 0,00 0,00 0,00 4.850,85 533,59 317,00 0,00 850,59 4.000,26 692,00 0,00 30/09/2013
518 301600 CRISTIANE GODINHO PIRES ANALISTA DO MP ATIVO BETIM - COMARCA; BETIM-PJ-07PJ 8.511,21 851,12 0,00 0,00 0,00 0,00 9.362,33 1.029,86 1.500,85 0,00 2.530,71 6.831,62 457,00 0,00 30/09/2013
519 406100 CRISTIANE GONCALVES CHAVES ANALISTA DO MP ATIVO BELO HORIZONTE - COMARCA; ASSESS TECNICO-JUR JUNTO AS PROC. DE JUST 6.379,14 1.275,83 0,00 0,00 0,00 0,00 7.654,97 842,05 1.082,97 0,00 1.925,02 5.729,95 457,00 0,00 30/09/2013
520 487600 CRISTIANE LOPES DE OLIVEIRA OFICIAL DO MP ATIVO IBIRACI - COMARCA; IBIRACI-PJ-SECRETARIA 3.359,85 0,00 0,00 0,00 0,00 0,00 3.359,85 369,58 102,15 0,00 471,73 2.888,12 457,00 0,00 30/09/2013
521 502500 CRISTIANE MACIEL DE OLIVEIRA GOMES ANALISTA DO MP ATIVO JUIZ DE FORA - COMARCA; JUIZ DE FORA-PJ-04PJ 5.698,20 0,00 0,00 0,00 0,00 0,00 5.698,20 688,07 740,38 0,00 1.428,45 4.269,75 2.778,73 769,82 30/09/2013
522 285500 CRISTIANE MAGALHAES LOURENCO ANALISTA DO MP ATIVO BELO HORIZONTE - COMARCA; CENTRAL DE APOIO TECNICO-SETOR CONTABIL 8.788,36 878,84 0,00 0,00 0,00 0,00 9.667,20 1.063,39 1.480,88 0,00 2.544,27 7.122,93 457,00 0,00 30/09/2013
523 536500 CRISTIANE MICHELE DE SOUZA ANALISTA DO MP ATIVO SANTA BÁRBARA - COMARCA; SANTA BARBARA-PJ-UNPJ 4.553,46 0,00 0,00 0,00 0,00 0,00 4.553,46 500,88 296,14 0,00 797,02 3.756,44 692,00 0,00 30/09/2013
524 346600 CRISTIANE NOGUEIRA ANDRADE ANALISTA DO MP ATIVO BELO HORIZONTE - COMARCA; CENTRAL DE APOIO TECNICO-SETOR CONTABIL 7.982,93 798,29 0,00 0,00 0,00 0,00 8.781,22 965,93 1.358,62 0,00 2.324,55 6.456,67 927,00 0,00 30/09/2013
525 234000 CRISTIANE OLIVEIRA TOSTES OFICIAL DO MP ATIVO JUIZ DE FORA - COMARCA; JUIZ DE FORA-PJ-19PJ 6.177,98 1.235,60 0,00 0,00 0,00 0,00 7.413,58 815,49 1.023,89 0,00 1.839,38 5.574,20 457,00 0,00 30/09/2013
526 445800 CRISTIANE ORZIL COSTA OFICIAL DO MP ATIVO SANTA LUZIA - COMARCA; SANTA LUZIA-PJ-05PJ 3.151,29 189,08 0,00 0,00 0,00 0,00 3.340,37 367,44 125,34 0,00 492,78 2.847,59 457,00 0,00 30/09/2013
527 215000 CRISTIANE RODRIGUES DE CARVALHO ASSESSOR ATIVO BELO HORIZONTE - COMARCA; BH-14PJ DEFESA CONSUMIDOR-SECRETARIA 0,00 739,76 3.698,79 0,00 0,00 0,00 4.438,55 457,49 429,89 0,00 887,38 3.551,17 457,00 0,00 30/09/2013
528 257700 CRISTIANE RODRIGUES PAES NUNES ANALISTA DO MP ATIVO BELO HORIZONTE - COMARCA; BH-22PJ PES COM DEF E IDOSOS-ORIENTACAO PSIC 9.674,93 1.934,99 0,00 0,00 0,00 0,00 11.609,92 1.386,55 2.247,21 0,00 3.633,76 7.976,16 457,00 995,10 30/09/2013
529 510800 CRISTIANE SANTOS FERNANDES ORNELES ANALISTA DO MP ATIVO BELO HORIZONTE - COMARCA; COORD ESTADUAL DAS PJS DE HAB. E URBANISMO 4.701,73 0,00 0,00 0,00 0,00 0,00 4.701,73 517,19 325,83 0,00 843,02 3.858,71 457,00 0,00 30/09/2013
530 535700 CRISTIANE SANTOS MIRANDA OFICIAL DO MP ATIVO BETIM - COMARCA; BETIM-PJ-02PJ 2.955,70 0,00 0,00 0,00 0,00 0,00 2.955,70 336,28 62,85 0,00 399,13 2.556,57 457,00 101,36 30/09/2013
531 536200 CRISTIANO DE OLIVEIRA ANALISTA DO MP ATIVO CONCEIÇÃO DO MATO DENTRO - COMARCA; CONCEICAO DO MATO DENTRO-PJ-UNPJ 4.553,46 0,00 0,00 0,00 0,00 0,00 4.553,46 500,88 334,83 0,00 835,71 3.717,75 457,00 0,00 30/09/2013
532 477400 CRISTIANO SOARES ELEUTERIO ANALISTA DO MP ATIVO BELO HORIZONTE - COMARCA; BH-17PJ PATRIMONIO PUBLICO 5.698,20 0,00 0,00 0,00 0,00 0,00 5.698,20 626,80 604,06 0,00 1.230,86 4.467,34 457,00 0,00 30/09/2013
533 449400 CRISTIANO TEIXEIRA RODRIGUES LANA ANALISTA DO MP ATIVO BELO HORIZONTE - COMARCA; ASSESS TECNICO-JUR JUNTO AS PROC. DE JUST 5.883,73 353,02 0,00 0,00 0,00 0,00 6.236,75 686,04 735,87 0,00 1.421,91 4.814,84 457,00 0,00 30/09/2013
534 239400 CRISTINA DE FATIMA CRUZ E SILVA OFICIAL DO MP ATIVO MONTE SANTO DE MINAS - COMARCA; MONTE SANTO DE MINAS-PJ-SECRETARIA 5.883,73 1.176,75 0,00 0,00 0,00 0,00 7.060,48 843,24 1.085,62 0,00 1.928,86 5.131,62 457,00 605,30 30/09/2013
535 544000 CRISTINA DE OLIVEIRA TERRA ANALISTA DO MP ATIVO MATOZINHOS - COMARCA; MATOZINHOS-PJ-02PJ 4.136,15 0,00 0,00 0,00 0,00 0,00 4.136,15 454,98 251,26 0,00 706,24 3.429,91 457,00 0,00 30/09/2013
536 356800 CRISTINA DE PINHO BARROSO OFICIAL DO MP ATIVO SABINÓPOLIS - COMARCA; SABINOPOLIS-PJ-UNPJ 4.005,77 801,15 0,00 0,00 0,00 0,00 4.806,92 528,76 308,20 0,00 836,96 3.969,96 457,00 0,00 30/09/2013
537 449100 CRISTINA KISTEMANN CHIODI ASSESSOR ATIVO BELO HORIZONTE - COMARCA; CAO-MEIO AMBIENTE-SECRETARIA 0,00 0,00 7.487,46 0,00 0,00 0,00 7.487,46 457,49 1.268,34 0,00 1.725,83 5.761,63 457,00 0,00 30/09/2013
538 348201 CRISTINA MARIA DA SILVA ANALISTA DO MP ATIVO JOÃO PINHEIRO - COMARCA; JOAO PINHEIRO-PJ-01PJ 5.698,20 341,89 0,00 0,00 0,00 0,00 6.040,09 664,41 687,73 0,00 1.352,14 4.687,95 457,00 0,00 30/09/2013
539 434900 CRISTINA MELO DE MADUREIRA ANALISTA DO MP ATIVO BELO HORIZONTE - COMARCA; CAO-CRIMINAL-SECRETARIA 6.379,14 382,75 0,00 0,00 0,00 0,00 6.761,89 743,81 864,39 0,00 1.608,20 5.153,69 692,00 0,00 30/09/2013
540 117100 CRISTINA PEDROSA GARABINI COORDENADOR/ANALISTA ATIVO BELO HORIZONTE - COMARCA; DIRET DE INFORMACAO E CONHECIMENTO-DINC/CEAF 16.456,57 10.550,27 0,00 0,00 0,00 0,00 27.006,84 2.715,33 5.332,08 1.683,34 9.730,75 17.276,09 2.145,18 154,75 30/09/2013
541 307700 CRISTINA TEIXEIRA MARQUES OFICIAL DO MP ATIVO BELO HORIZONTE - COMARCA; CENTRAL DE APOIO TECNICO-SECRETARIA 4.701,73 470,17 0,00 0,00 0,00 0,00 5.171,90 568,91 475,24 0,00 1.044,15 4.127,75 457,00 0,00 30/09/2013
542 552500 CRISTINE GONCALVES BORGES WINKELSTROTER ANALISTA DO MP ATIVO TEÓFILO OTONI - COMARCA; TEOFILO OTONI-PJ-08PJ 4.136,15 0,00 0,00 0,00 0,00 0,00 4.136,15 454,98 251,26 0,00 706,24 3.429,91 457,00 0,00 30/09/2013
543 265300 CRISTOVAO SANCHES DE MEDEIROS ANALISTA DO MP ATIVO BELO HORIZONTE - COMARCA; BH-02PJ FAMILIA-SECRETARIA 8.788,36 1.757,67 0,00 0,00 0,00 0,00 10.546,03 1.160,06 1.695,98 0,00 2.856,04 7.689,99 457,00 0,00 30/09/2013
544 349800 CROZEIR LUIZ DA SILVA OFICIAL DO MP ATIVO UNAÍ - COMARCA; UNAI-PJ-SECRETARIA 4.409,86 440,99 0,00 0,00 0,00 0,00 4.850,85 533,59 355,69 0,00 889,28 3.961,57 457,00 0,00 30/09/2013
545 490500 CYNTHIA CRISTINA DE SOUZA OLIVEIRA VALENTE ANALISTA DO MP ATIVO BELO HORIZONTE - COMARCA; BH-09PJ AUDITORIA MILITAR 5.176,02 0,00 0,00 0,00 0,00 0,00 5.176,02 569,36 476,25 0,00 1.045,61 4.130,41 692,00 0,00 30/09/2013
546 389800 CYNTHIA GARIGLIO DOS SANTOS OFICIAL DO MP ATIVO PERDIZES - COMARCA; PERDIZES-PJ-SECRETARIA 3.582,21 358,22 0,00 0,00 0,00 0,00 3.940,43 433,45 153,86 0,00 587,31 3.353,12 692,00 0,00 30/09/2013
547 335101 CYNTHIA GONTIJO D ASSUNCAO ANALISTA DO MP ATIVO BELO HORIZONTE - COMARCA; PROC. JUSTICA DIR. DIFUSOS E COLETIVOS-SEC 5.698,20 0,00 0,00 0,00 0,00 0,00 5.698,20 626,80 604,06 0,00 1.230,86 4.467,34 457,00 0,00 30/09/2013
548 154000 CYNTHIA LOPES DOS SANTOS LAGES ASSESSOR ATIVO BELO HORIZONTE - COMARCA; PROCURADOR-GERAL DE JUSTICA- GABINETE 0,00 3.869,97 9.674,93 0,00 0,00 0,00 13.544,90 1.489,94 2.477,24 0,00 3.967,18 9.577,72 457,00 0,00 30/09/2013
549 269700 CYNTIA ROCHA CAVALCANTI OFICIAL DO MP ATIVO UBERLÂNDIA - COMARCA; UBERLANDIA-PJ-06PJ 5.698,20 569,82 0,00 0,00 0,00 0,00 6.268,02 807,69 1.006,53 0,00 1.814,22 4.453,80 457,00 1.074,60 30/09/2013
550 278000 DAIRTON LOPES MARTINS FILHO COORDENADOR/ANALISTA ATIVO BELO HORIZONTE - COMARCA; DIRETORIA DE SISTEMAS DE INFORMACAO 0,00 967,49 9.674,93 0,00 0,00 0,00 10.642,42 849,75 1.902,40 0,00 2.752,15 7.890,27 457,00 0,00 30/09/2013
551 392700 DALIANA CHAVES SILVA OFICIAL DO MP ATIVO ITAÚNA - COMARCA; ITAUNA-PJ-SECRETARIA 4.270,85 427,09 0,00 0,00 0,00 0,00 4.697,94 516,77 363,76 0,00 880,53 3.817,41 457,00 0,00 30/09/2013
552 558100 DALLEY TASSIA SILVA OFICIAL DO MP ATIVO MORADA NOVA DE MINAS - COMARCA; MORADA NOVA DE MINAS-PJ-UNPJ 2.684,83 0,00 0,00 0,00 0,00 0,00 2.684,83 295,33 50,90 0,00 346,23 2.338,60 457,00 0,00 30/09/2013
553 476700 DALTON DAUD ANALISTA DO MP ATIVO ARAGUARI - COMARCA; ARAGUARI-PJ-05PJ 5.698,20 0,00 0,00 0,00 0,00 0,00 5.698,20 787,97 868,08 0,00 1.656,05 4.042,15 457,00 1.465,20 30/09/2013
554 548700 DALVA DE SOUZA ROCHA ALMEIDA OFICIAL DO MP ATIVO IPATINGA - COMARCA; IPATINGA-PJ-02PJ 2.955,70 0,00 0,00 0,00 0,00 0,00 2.955,70 325,13 43,19 0,00 368,32 2.587,38 457,00 0,00 30/09/2013
555 121900 DALVA MARIA DE LIMA ANALISTA DO MP ATIVO BELO HORIZONTE - COMARCA; EXTINTA-TUTELA DAS FUNDACOES-21 PJ- GABINETE 16.456,57 14.810,92 0,00 0,00 0,00 2.785,59 34.053,08 2.785,59 6.173,38 5.943,99 14.902,96 19.150,12 457,00 0,00 30/09/2013
556 426900 DANIEL ALVES DA SILVA OFICIAL DO MP ATIVO BELO HORIZONTE - COMARCA; EXTINTA - PROTOCOLO DA PGJ 3.469,26 208,16 0,00 0,00 0,00 0,00 3.677,42 404,52 118,74 0,00 523,26 3.154,16 692,00 0,00 30/09/2013
557 122000 DANIEL ANTONIO VIEIRA OFICIAL DO MP ATIVO ENTRE-RIOS DE MINAS - COMARCA; ENTRE RIOS DE MINAS-PJ-SECRETARIA 7.022,72 3.511,36 0,00 0,00 0,00 0,00 10.534,08 1.158,75 1.551,18 0,00 2.709,93 7.824,15 457,00 26,90 30/09/2013
558 272401 DANIEL AUGUSTO DOS REIS ANALISTA DO MP ATIVO BELO HORIZONTE - COMARCA; BH-22PJ PES COM DEF E IDOSOS-ASS JURIDICA 6.379,14 382,75 0,00 0,00 0,00 0,00 6.761,89 743,81 864,39 0,00 1.608,20 5.153,69 457,00 0,00 30/09/2013
559 536300 DANIEL BATISTA MARIANO OFICIAL DO MP ATIVO LAGOA SANTA - COMARCA; LAGOA SANTA-PJ-02PJ 2.684,83 0,00 0,00 0,00 0,00 0,00 2.684,83 295,33 50,90 0,00 346,23 2.338,60 472,87 0,00 30/09/2013
560 411000 DANIEL FERREIRA DA SILVA ANALISTA DO MP ATIVO GOVERNADOR VALADARES - COMARCA; GOVERNADOR VALADARES-PJ-15PJ 6.379,14 1.275,83 0,00 0,00 0,00 0,00 7.654,97 842,05 988,39 0,00 1.830,44 5.824,53 692,00 0,00 30/09/2013
561 540300 DANIEL FRANCO RIBEIRO OFICIAL DO MP ATIVO SÃO JOÃO DEL REI - COMARCA; SAO JOAO DEL REI-PJ-SECRETARIA 2.684,83 0,00 0,00 0,00 0,00 0,00 2.684,83 295,33 50,90 0,00 346,23 2.338,60 457,00 0,00 30/09/2013
562 309000 DANIEL GOMES DOS SANTOS ANALISTA DO MP ATIVO POÇOS DE CALDAS - COMARCA; POCOS DE CALDAS-PJ-03PJ 7.022,72 702,27 0,00 0,00 0,00 0,00 7.724,99 922,58 1.262,16 0,00 2.184,74 5.540,25 457,00 662,10 30/09/2013
563 554500 DANIEL GOMES PEREIRA OFICIAL DO MP ATIVO NANUQUE - COMARCA; NANUQUE-PJ-02PJ 2.684,83 0,00 0,00 0,00 0,00 0,00 2.684,83 320,64 68,54 0,00 389,18 2.295,65 457,00 230,10 30/09/2013
564 453000 DANIEL GONCALVES PEREIRA ANALISTA DO MP ATIVO UNAÍ - COMARCA; UNAI-PJ-SECRETARIA 5.883,73 353,02 0,00 0,00 0,00 0,00 6.236,75 686,04 735,87 0,00 1.421,91 4.814,84 457,00 0,00 30/09/2013
565 495500 DANIEL GUIMARAES CABRAL OFICIAL DO MP ATIVO LAGOA DA PRATA - COMARCA; LAGOA DA PRATA-PJ-02PJ 3.051,96 0,00 0,00 0,00 0,00 0,00 3.051,96 335,72 86,84 0,00 422,56 2.629,40 457,00 0,00 30/09/2013
566 442900 DANIEL GUIMARAES GONCALVES ANALISTA DO MP ATIVO UBERLÂNDIA - COMARCA; UBERLANDIA-PJ-03PJ 5.883,73 353,02 0,00 0,00 0,00 0,00 6.236,75 686,04 735,87 0,00 1.421,91 4.814,84 457,00 0,00 30/09/2013
567 491200 DANIEL HENRIQUE SOUTO COSTA ANALISTA DO MP ATIVO CORAÇÃO DE JESUS - COMARCA; CORACAO DE JESUS-PJ-UNPJ 5.698,20 0,00 0,00 0,00 0,00 0,00 5.698,20 626,80 604,06 0,00 1.230,86 4.467,34 457,00 0,00 30/09/2013
568 464600 DANIEL PIACENTINI STIVANIN ANALISTA DO MP ATIVO ANDRADAS - COMARCA; ANDRADAS-PJ-02PJ 5.176,02 0,00 0,00 0,00 0,00 0,00 5.176,02 569,36 476,25 0,00 1.045,61 4.130,41 457,00 0,00 30/09/2013
569 417000 DANIEL QUEIROZ FERREIRA ANALISTA DO MP ATIVO SÃO SEBASTIÃO DO PARAÍSO - COMARCA; SAO SEBASTIAO DO PARAISO-PJ-05PJ 6.379,14 382,75 0,00 0,00 0,00 0,00 6.761,89 743,81 864,39 0,00 1.608,20 5.153,69 457,00 0,00 30/09/2013
570 396700 DANIEL SILVA CARNEVALLI DIRETOR/ANALISTA ATIVO BELO HORIZONTE - COMARCA; SUPERINTENDENCIA DE TECNOLOGIA DA INFORMACAO 0,00 1.254,01 12.540,10 0,00 0,00 0,00 13.794,11 797,01 2.783,62 0,00 3.580,63 10.213,48 457,00 0,00 30/09/2013
571 489300 DANIEL TABOZA ROCHA ANALISTA DO MP ATIVO IPATINGA - COMARCA; IPATINGA-PJ-08PJ 5.698,20 0,00 0,00 0,00 0,00 0,00 5.698,20 626,80 604,06 0,00 1.230,86 4.467,34 457,00 0,00 30/09/2013
572 414100 DANIEL TARDELI VALADAO ANALISTA DO MP ATIVO TRÊS CORACOES - COMARCA; TRES CORACOES-PJ-02PJ 6.379,14 382,75 0,00 0,00 0,00 0,00 6.761,89 743,81 864,39 0,00 1.608,20 5.153,69 457,00 0,00 30/09/2013
573 446600 DANIEL VIEIRA BUENO OFICIAL DO MP ATIVO RIO PIRACICABA - COMARCA; RIO PIRACICABA-PJ-UNPJ 3.469,26 208,16 0,00 0,00 0,00 0,00 3.677,42 404,52 170,34 0,00 574,86 3.102,56 457,00 0,00 30/09/2013
574 253200 DANIELA BATISTA LIMA BARBOSA ASSESSOR ATIVO BELO HORIZONTE - COMARCA; CENTRAL DE APOIO TECN-SETOR DE MEIO AMBIENTE 0,00 369,88 3.698,79 0,00 0,00 0,00 4.068,67 457,49 338,34 0,00 795,83 3.272,84 457,00 0,00 30/09/2013
575 505800 DANIELA BORGES DE MATTOS RESENDE ANALISTA DO MP ATIVO JUIZ DE FORA - COMARCA; JUIZ DE FORA-PJ-20PJ 5.176,02 0,00 0,00 0,00 0,00 0,00 5.176,02 644,14 642,64 0,00 1.286,78 3.889,24 457,00 679,82 30/09/2013
576 478000 DANIELA CARVALHO SOARES ANALISTA DO MP ATIVO SÃO JOÃO DEL REI - COMARCA; SAO JOAO DEL REI-PJ-06PJ 5.698,20 0,00 0,00 0,00 0,00 0,00 5.698,20 626,80 604,06 0,00 1.230,86 4.467,34 457,00 0,00 30/09/2013
577 275900 DANIELA CHAGAS SODRE ANALISTA DO MP ATIVO BELO HORIZONTE - COMARCA; CENTRAL DE APOIO TECNICO-SETOR CONTABIL 8.788,36 878,84 0,00 0,00 0,00 0,00 9.667,20 1.063,39 1.528,18 0,00 2.591,57 7.075,63 692,00 0,00 30/09/2013
578 234301 DANIELA CRUZ SOARES ANALISTA DO MP ATIVO BELO HORIZONTE - COMARCA; CAO-ORDEM ECONOMICA E TRIBUTARIA-SECRETARIA 9.074,45 1.814,89 0,00 0,00 0,00 0,00 10.889,34 1.197,83 1.874,59 0,00 3.072,42 7.816,92 457,00 0,00 30/09/2013
579 301000 DANIELA DE ALMEIDA E OLIVEIRA ANALISTA DO MP ATIVO BELO HORIZONTE - COMARCA; DIRETORIA DE REDES E BANCOS DE DADOS 8.788,36 878,84 0,00 0,00 0,00 0,00 9.667,20 1.063,39 1.575,47 0,00 2.638,86 7.028,34 457,00 0,00 30/09/2013
580 296000 DANIELA DE AZEVEDO SILVA ANALISTA DO MP ATIVO ITAJUBA - COMARCA; ITAJUBA-PJ-03PJ 7.731,26 1.546,25 0,00 0,00 0,00 0,00 9.277,51 1.020,53 1.480,09 0,00 2.500,62 6.776,89 3.833,47 309,51 30/09/2013
581 453500 DANIELA DE CASTRO SOUSA BARBOSA ANALISTA DO MP ATIVO BELO HORIZONTE - COMARCA; BH-08PJ JUIZADO ESPECIAL-SECRETARIA 5.883,73 353,02 0,00 0,00 0,00 0,00 6.236,75 838,94 1.076,06 0,00 1.915,00 4.321,75 457,00 1.389,96 30/09/2013
582 506000 DANIELA DE OLIVEIRA CAVALIERI ANALISTA DO MP ATIVO BELO HORIZONTE - COMARCA; BH-14PJ DEFESA CONSUMIDOR-SECRETARIA 4.270,85 0,00 0,00 0,00 0,00 0,00 4.270,85 469,79 278,24 0,00 748,03 3.522,82 457,00 0,00 30/09/2013
583 546200 DANIELA DE VILHENA LEMES GONCALVES OFICIAL DO MP ATIVO TRÊS CORACOES - COMARCA; TRES CORACOES-PJ-05PJ 2.684,83 0,00 0,00 0,00 0,00 0,00 2.684,83 295,33 25,11 0,00 320,44 2.364,39 457,00 0,00 30/09/2013
584 393700 DANIELA GOMES CARDOSO OFICIAL DO MP ATIVO SABARÁ - COMARCA; SABARA-PJ-02PJ 2.955,70 295,57 0,00 0,00 0,00 0,00 3.251,27 357,64 62,92 0,00 420,56 2.830,71 692,00 0,00 30/09/2013
585 356400 DANIELA LEAL FERRAZ ANALISTA DO MP ATIVO MONTES CLAROS - COMARCA; COORD REG PJ DEF EDUC DIR CRIANCA ADOL NORTE 7.487,46 748,75 0,00 0,00 0,00 0,00 8.236,21 983,63 1.398,00 0,00 2.381,63 5.854,58 457,00 705,90 30/09/2013
586 501000 DANIELA LOURENCO SANTOS DA SILVA GUIMARAES ANALISTA DO MP ATIVO BELO HORIZONTE - COMARCA; BH-12PJ JUIZO CRIMINAL 5.176,02 0,00 0,00 0,00 0,00 0,00 5.176,02 569,36 476,25 0,00 1.045,61 4.130,41 457,00 0,00 30/09/2013
587 195801 DANIELA MARIA DE OLIVEIRA QUEIROZ ANALISTA DO MP ATIVO ARAGUARI - COMARCA; ARAGUARI-PJ-06PJ 6.379,14 1.275,83 0,00 0,00 0,00 0,00 7.654,97 842,05 1.082,97 0,00 1.925,02 5.729,95 457,00 0,00 30/09/2013
588 511400 DANIELA MARIA LARA DE OLIVEIRA ANALISTA DO MP ATIVO BOA ESPERANÇA - COMARCA; BOA ESPERANCA-PJ-02PJ 4.701,73 0,00 0,00 0,00 0,00 0,00 4.701,73 517,19 325,83 0,00 843,02 3.858,71 457,00 0,00 30/09/2013
589 252101 DANIELA PAULA ALVES PENA ANALISTA DO MP ATIVO CONTAGEM - COMARCA; CONTAGEM-PJ-APO TECNICO 6.586,88 1.317,38 0,00 0,00 0,00 0,00 7.904,26 869,47 1.143,99 0,00 2.013,46 5.890,80 457,00 0,00 30/09/2013
590 429600 DANIELA PIMENTA NUNES MACHADO ANALISTA DO MP ATIVO BELO HORIZONTE - COMARCA; BH-05PJ JUÍZO DE SUCESSÕES 6.379,14 382,75 0,00 0,00 0,00 0,00 6.761,89 743,81 864,39 0,00 1.608,20 5.153,69 457,00 0,00 30/09/2013
591 424300 DANIELA PORTO PINTO OFICIAL DO MP ATIVO BELO HORIZONTE - COMARCA; EXTINTA-DEFESA DA SAUDE-19 PJ-GABINETE 3.253,89 195,23 0,00 0,00 0,00 0,00 3.449,12 379,40 139,86 0,00 519,26 2.929,86 457,00 0,00 30/09/2013
592 462000 DANIELA SOUSA GOMES DO AMARAL ANALISTA DO MP ATIVO BETIM - COMARCA; BETIM-PJ-08PJ 5.698,20 0,00 0,00 0,00 0,00 0,00 5.698,20 626,80 604,06 0,00 1.230,86 4.467,34 692,00 0,00 30/09/2013
593 427000 DANIELA TEIXEIRA DINIZ ANDRADE ANALISTA DO MP ATIVO BELO HORIZONTE - COMARCA; DIVIS DE PROJETOS DE ENGENHARIA E ARQUITETURA 5.883,73 353,02 0,00 0,00 0,00 0,00 6.236,75 686,04 688,57 0,00 1.374,61 4.862,14 692,00 0,00 30/09/2013
594 337200 DANIELA TOLEDO SENIUK ANALISTA DO MP ATIVO BELO HORIZONTE - COMARCA; CGMP-SECRETARIA DA CORREGEDORIA-GERAL DO MP 7.022,72 702,27 0,00 0,00 0,00 0,00 7.724,99 849,75 1.052,82 0,00 1.902,57 5.822,42 692,00 0,00 30/09/2013
595 195500 DANIELE CHAVES FONSECA ASSESSOR/OFICIAL ATIVO BELO HORIZONTE - COMARCA; ASSESSORIA ESPECIAL DO PGJ 0,00 1.497,49 7.487,46 0,00 0,00 0,00 8.984,95 897,77 1.433,39 0,00 2.331,16 6.653,79 457,00 0,00 30/09/2013
596 323400 DANIELE MEGALE SANTINI OFICIAL DO MP ATIVO BELO HORIZONTE - COMARCA; ASSESS TECNICO-JUR JUNTO AS PROC. DE JUST 5.176,02 517,60 0,00 0,00 0,00 0,00 5.693,62 626,30 555,64 0,00 1.181,94 4.511,68 692,00 0,00 30/09/2013
597 357900 DANIELE REJANE PINTO VERSIEUX OFICIAL DO MP ATIVO PEDRO LEOPOLDO - COMARCA; PEDRO LEOPOLDO-PJ-03PJ 4.701,73 470,17 0,00 0,00 0,00 0,00 5.171,90 568,91 475,24 0,00 1.044,15 4.127,75 457,00 0,00 30/09/2013
598 389500 DANIELE VASCONCELOS AMORIM OFICIAL DO MP ATIVO SÃO SEBASTIÃO DO PARAÍSO - COMARCA; SAO SEBASTIAO DO PARAISO-PJ-04PJ 4.553,46 455,35 0,00 0,00 0,00 0,00 5.008,81 550,97 435,33 0,00 986,30 4.022,51 457,00 0,00 30/09/2013
599 265000 DANIELLE CASTANHEIRA SCALABRINI OFICIAL DO MP ATIVO BELO HORIZONTE - COMARCA; JUNTA RECURSAL DO PROCON ESTADUAL 5.344,58 1.068,92 0,00 0,00 0,00 0,00 6.413,50 765,96 771,81 0,00 1.537,77 4.875,73 457,00 549,80 30/09/2013
600 490100 DANIELLE DE AVILA SILVA LOPES ANALISTA DO MP ATIVO BELO HORIZONTE - COMARCA; PROC. JUSTICA DIR. DIFUSOS E COLETIVOS-SEC 5.698,20 1.139,64 0,00 0,00 0,00 0,00 6.837,84 814,84 1.022,45 0,00 1.837,29 5.000,55 457,00 569,82 30/09/2013
601 549600 DANIELLE GOMES LOPES RODRIGUES OFICIAL DO MP ATIVO ITABIRA - COMARCA; ITABIRA-PJ-03PJ 2.955,70 0,00 0,00 0,00 0,00 0,00 2.955,70 325,13 73,99 0,00 399,12 2.556,58 692,00 0,00 30/09/2013
602 379900 DANIELLE GUIMARAES CARNEIRO PERES ANALISTA DO MP ATIVO BELO HORIZONTE - COMARCA; DIRETORIA DE ORCAMENTO-DIOR/SPC 6.586,88 658,69 0,00 0,00 2.415,19 0,00 9.660,76 797,01 1.552,37 0,00 2.349,38 7.311,38 927,00 0,00 30/09/2013
603 380800 DANILLO RIBEIRO ANTUNES ANALISTA DO MP ATIVO MONTES CLAROS - COMARCA; MONTES CLAROS-PJ-SECRETARIA 6.586,88 658,69 0,00 0,00 0,00 0,00 7.245,57 797,01 888,19 0,00 1.685,20 5.560,37 457,00 0,00 30/09/2013
604 453700 DANILO BOTELHO DE CARVALHO ASSESSOR/ANALISTA ATIVO BELO HORIZONTE - COMARCA; DIRETORIA DE ADMINISTRACAO FINANCEIRA 0,00 449,25 7.487,46 0,00 0,00 0,00 7.936,71 686,04 1.522,18 0,00 2.208,22 5.728,49 457,00 1.159,35 30/09/2013
605 391200 DANILO D'AVILA MENDES ANALISTA DO MP ATIVO JANAÚBA - COMARCA; JANAUBA-PJ-01PJ 6.586,88 658,69 0,00 0,00 0,00 0,00 7.245,57 865,32 1.134,76 0,00 2.000,08 5.245,49 457,00 621,00 30/09/2013
606 494900 DANILO GAVIAO AVELINO DE MELLO ANALISTA DO MP ATIVO POUSO ALEGRE - COMARCA; POUSO ALEGRE-PJ-08PJ 5.698,20 0,00 0,00 0,00 0,00 0,00 5.698,20 626,80 604,06 0,00 1.230,86 4.467,34 457,00 0,00 30/09/2013
607 600700 DANILO OLIVEIRA CARILLI OFICIAL DO MP ATIVO ARAGUARI - COMARCA; ARAGUARI-PJ-SECRETARIA 2.684,83 0,00 0,00 0,00 0,00 0,00 2.684,83 413,46 181,20 0,00 594,66 2.090,17 664,73 1.073,93 30/09/2013
608 550800 DANTE MENDES BIANCHETTI FILHO ANALISTA DO MP ATIVO BARBACENA - COMARCA; BARBACENA-PJ-09PJ 4.136,15 0,00 0,00 0,00 0,00 0,00 4.136,15 454,98 251,26 0,00 706,24 3.429,91 457,00 0,00 30/09/2013
609 298300 DANUZA MONICA DE SOUZA DINIZ ANALISTA DO MP ATIVO DIVINÓPOLIS - COMARCA; DIVINOPOLIS-PJ-02PJ 7.251,34 725,13 0,00 0,00 0,00 0,00 7.976,47 877,41 1.114,37 0,00 1.991,78 5.984,69 457,00 0,00 30/09/2013
610 398700 DARCY LUIZ MILEO GREGATTI OFICIAL DO MP ATIVO LAMBARI - COMARCA; LAMBARI-PJ-SECRETARIA 3.879,42 387,94 0,00 0,00 0,00 0,00 4.267,36 469,41 277,54 0,00 746,95 3.520,41 457,00 0,00 30/09/2013
611 406200 DARIANA AUGUSTA DE TOLEDO PATROCINIO ASSESSOR/OFICIAL ATIVO BELO HORIZONTE - COMARCA; EXTINTA - DIRETORIA DE CONTRATOS E CONVÊNIOS 0,00 449,25 7.487,46 0,00 0,00 0,00 7.936,71 530,93 1.246,01 0,00 1.776,94 6.159,77 3.833,47 309,51 30/09/2013
612 305000 DARLI LEITE DE OLIVEIRA OFICIAL DO MP ATIVO ARAÇUAÍ - COMARCA; ARACUAI-PJ-01PJ 4.409,86 440,99 0,00 0,00 0,00 0,00 4.850,85 579,33 361,57 0,00 940,90 3.909,95 692,00 415,80 30/09/2013
613 122200 DAVID RIBEIRO DOS SANTOS ANALISTA DO MP ATIVO BORDA DA MATA - COMARCA; BORDA DA MATA-PJ-UNPJ 13.036,58 9.125,60 0,00 0,00 0,00 0,00 22.162,18 2.646,80 5.098,54 0,00 7.745,34 14.416,84 457,00 1.899,60 30/09/2013
614 389400 DAWSON CANEDO MARQUES OFICIAL DO MP ATIVO GOVERNADOR VALADARES - COMARCA; GOVERNADOR VALADARES-PJ-03PJ 4.701,73 470,17 0,00 0,00 0,00 0,00 5.171,90 612,80 525,60 0,00 1.138,40 4.033,50 457,00 398,97 30/09/2013
615 537200 DAYANE TEIXEIRA DE OLIVEIRA ANALISTA DO MP ATIVO BONFINÓPOLIS DE MINAS - COMARCA; BONFINOPOLIS DE MINAS-PJ-UNPJ 4.136,15 0,00 0,00 0,00 0,00 0,00 4.136,15 454,98 251,26 0,00 706,24 3.429,91 457,00 0,00 30/09/2013
616 256100 DAYSE ROSALY PEREIRA BATISTA OFICIAL DO MP ATIVO BELO HORIZONTE - COMARCA; PROCON-MG-SECRETARIA DE FISCALIZACOES 4.553,46 1.951,47 0,00 0,00 0,00 0,00 6.504,93 601,06 691,11 0,00 1.292,17 5.212,76 457,00 10,05 30/09/2013
617 311901 DEBORA APARECIDA DA SILVA ASSESSOR ATIVO BELO HORIZONTE - COMARCA; BH-23PJ CIVEL-SETOR ATEND PUB 0,00 0,00 2.215,31 0,00 0,00 0,00 2.215,31 293,95 37,17 0,00 331,12 1.884,19 457,00 0,00 30/09/2013
618 194301 DEBORA APARECIDA DOS SANTOS ANALISTA DO MP ATIVO UBERLÂNDIA - COMARCA; UBERLANDIA-COORD CONJ-FAMÍLIA E JUIZ ESP CRIM 8.788,36 1.757,67 0,00 0,00 0,00 0,00 10.546,03 1.160,06 1.743,27 0,00 2.903,33 7.642,70 457,00 0,00 30/09/2013
619 518800 DEBORA CARVALHO FIORATTO OFICIAL DO MP ATIVO BELO HORIZONTE - COMARCA; BH-12PJ JUIZO CRIMINAL 3.359,85 0,00 0,00 0,00 0,00 0,00 3.359,85 369,58 127,94 0,00 497,52 2.862,33 457,00 0,00 30/09/2013
620 444900 DEBORA CLAUDIA PEREIRA ALVES ANALISTA DO MP ATIVO BELO HORIZONTE - COMARCA; BH-08PJ JUIZADO ESPECIAL-SECRETARIA 5.883,73 353,02 0,00 0,00 0,00 0,00 6.236,75 686,04 688,57 0,00 1.374,61 4.862,14 692,00 0,00 30/09/2013
621 555700 DEBORA CRISTINA BUITRAGO PEREIRA ANALISTA DO MP ATIVO BELO HORIZONTE - COMARCA; EXTINTA - DIRETORIA DE CONTRATOS E CONVÊNIOS 4.136,15 0,00 0,00 0,00 0,00 0,00 4.136,15 454,98 251,26 0,00 706,24 3.429,91 457,00 0,00 30/09/2013
622 513100 DEBORA CRISTINA PEREIRA DE OLIVEIRA ANALISTA DO MP ATIVO BELO HORIZONTE - COMARCA; BH-23PJ CIVEL-SETOR JURIDICO 4.701,73 0,00 0,00 0,00 0,00 0,00 4.701,73 517,19 364,52 0,00 881,71 3.820,02 692,00 0,00 30/09/2013
623 600600 DEBORA PEREIRA GONCALVES ANALISTA DO MP ATIVO BELO HORIZONTE - COMARCA; BH-18PJ VIOLENCIA DOMESTICA-SECRETARIA 4.553,46 0,00 0,00 0,00 0,00 0,00 4.553,46 546,78 426,02 0,00 972,80 3.580,66 457,00 417,31 30/09/2013
624 539700 DEBORA SALES CARVALHO ANALISTA DO MP ATIVO PATOS DE MINAS - COMARCA; COORD REG PJ DEF EDU DIR CRI ADO AL PAR NOROE 4.136,15 0,00 0,00 0,00 0,00 0,00 4.136,15 454,98 251,26 0,00 706,24 3.429,91 457,00 0,00 30/09/2013
625 424100 DEBORA SANTOS E ALVES ANALISTA DO MP ATIVO JANUÁRIA - COMARCA; JANUARIA-PJ-01PJ 6.379,14 382,75 0,00 0,00 0,00 0,00 6.761,89 743,81 864,39 0,00 1.608,20 5.153,69 457,00 0,00 30/09/2013
626 426301 DEBORA SCUCATO MACHADO SOARES OFICIAL DO MP ATIVO NOVA LIMA - COMARCA; NOVA LIMA-PJ-01PJ 2.955,70 0,00 0,00 0,00 0,00 0,00 2.955,70 325,13 73,99 0,00 399,12 2.556,58 457,00 0,00 30/09/2013
627 550200 DEBORA TRINDADE LEITE ANALISTA DO MP ATIVO MANHUAÇU - COMARCA; MANHUACU-PJ-05PJ 4.136,15 0,00 0,00 0,00 0,00 0,00 4.136,15 454,98 179,98 0,00 634,96 3.501,19 457,00 0,00 30/09/2013
628 438000 DEBORAH COSTA LAGE ANALISTA DO MP ATIVO BELO HORIZONTE - COMARCA; ASSESS TECNICO-JUR JUNTO AS PROC. DE JUST 6.379,14 382,75 0,00 0,00 0,00 0,00 6.761,89 834,30 1.065,75 0,00 1.900,05 4.861,84 457,00 822,70 30/09/2013
629 475700 DEBORAH LOBAO LACERDA OFICIAL DO MP ATIVO BELO HORIZONTE - COMARCA; BH-23PJ INFRACIONAL 3.359,85 0,00 0,00 0,00 0,00 0,00 3.359,85 369,58 127,94 0,00 497,52 2.862,33 457,00 0,00 30/09/2013
630 551900 DEISY ROCHA DA SILVA ANALISTA DO MP ATIVO AREADO - COMARCA; AREADO-PJ-UNPJ 4.136,15 0,00 0,00 0,00 0,00 0,00 4.136,15 454,98 251,26 0,00 706,24 3.429,91 457,00 0,00 30/09/2013
631 501900 DELI RAQUEL RODRIGUES ANALISTA DO MP ATIVO ITUIUTABA - COMARCA; ITUIUTABA-PJ-04PJ 4.701,73 0,00 0,00 0,00 0,00 0,00 4.701,73 517,19 364,52 0,00 881,71 3.820,02 457,00 0,00 30/09/2013
632 378600 DELIANE LOPES VIEIRA BREIJAO NEVES ANALISTA DO MP ATIVO SANTOS DUMONT - COMARCA; SANTOS DUMONT-PJ-03PJ 6.586,88 658,69 0,00 0,00 0,00 0,00 7.245,57 797,01 982,77 0,00 1.779,78 5.465,79 457,00 0,00 30/09/2013
633 522500 DELMINDA MARIA LEAO E SILVA OFICIAL DO MP ATIVO ITAGUARA - COMARCA; ITAGUARA-PJ-UNPJ 2.772,23 1.940,56 0,00 0,00 0,00 0,00 4.712,79 562,85 370,25 0,00 933,10 3.779,69 457,00 404,00 30/09/2013
634 393000 DENER LOPES MACHADO ANALISTA DO MP ATIVO PATOS DE MINAS - COMARCA; COORD REG BACIAS PARACATU,URUCUIA E ABAETE 5.518,54 551,85 0,00 0,00 0,00 0,00 6.070,39 667,74 695,15 0,00 1.362,89 4.707,50 457,00 0,00 30/09/2013
635 487700 DENIA FERREIRA MAIA SILVA OFICIAL DO MP ATIVO TRÊS CORACOES - COMARCA; TRES CORACOES-PJ-01PJ 3.359,85 0,00 0,00 0,00 0,00 0,00 3.359,85 369,58 102,15 0,00 471,73 2.888,12 692,00 0,00 30/09/2013
636 424800 DENIS APARECIDO CAMPOS DELFINO ANALISTA DO MP ATIVO LUZ - COMARCA; LUZ-PJ-UNPJ 6.379,14 382,75 0,00 0,00 0,00 0,00 6.761,89 743,81 675,23 0,00 1.419,04 5.342,85 692,00 0,00 30/09/2013
637 381400 DENISE ANGELICA MELLO DE PAULA OFICIAL DO MP ATIVO BELO HORIZONTE - COMARCA; BH-18PJ DIREITOS HUMANOS-SECRETARIA 4.701,73 470,17 0,00 0,00 0,00 0,00 5.171,90 568,91 475,24 0,00 1.044,15 4.127,75 457,00 0,00 30/09/2013
638 196300 DENISE DE ALMEIDA VILELA FURTADO OFICIAL DO MP ATIVO BELO HORIZONTE - COMARCA; CENTRAL DE APOIO TECNICO-SECRETARIA 6.177,98 1.235,60 0,00 0,00 0,00 0,00 7.413,58 815,49 976,60 0,00 1.792,09 5.621,49 457,00 0,00 30/09/2013
639 336900 DENISE DE SOUSA MORAES SILVA OFICIAL DO MP ATIVO MATEUS LEME - COMARCA; MATEUS LEME-PJ-02PJ 4.409,86 440,99 0,00 0,00 0,00 0,00 4.850,85 533,59 396,67 0,00 930,26 3.920,59 457,00 0,00 30/09/2013
640 271100 DENISE ELOY PEIXOTO OFICIAL DO MP ATIVO BELO HORIZONTE - COMARCA; DIRET DE DESENV DE RECURSOS HUMANOS-DDRH 5.698,20 1.139,64 0,00 0,00 0,00 0,00 6.837,84 814,84 1.022,45 0,00 1.837,29 5.000,55 457,00 569,82 30/09/2013
641 385400 DENISE FREITAS DE ASSIS OFICIAL DO MP ATIVO CARATINGA - COMARCA; CARATINGA-PJ-01PJ 4.270,85 427,09 0,00 0,00 0,00 0,00 4.697,94 516,77 286,38 0,00 803,15 3.894,79 457,00 0,00 30/09/2013
642 437100 DENISE NOGUEIRA MAGRI MENDES ANALISTA DO MP ATIVO BELO HORIZONTE - COMARCA; CAO-ORDEM ECONOMICA E TRIBUTARIA-SECRETARIA 6.379,14 1.275,83 0,00 0,00 0,00 0,00 7.654,97 970,66 1.227,25 0,00 2.197,91 5.457,06 457,00 1.169,17 30/09/2013
643 524700 DENISE RAMOS GUIMARAES OFICIAL DO MP ATIVO SANTA LUZIA - COMARCA; SANTA LUZIA-PJ-05PJ 3.051,96 0,00 0,00 0,00 0,00 0,00 3.051,96 335,72 86,84 0,00 422,56 2.629,40 457,00 0,00 30/09/2013
644 239100 DENISE RIBEIRO DOS SANTOS CAETANO OFICIAL DO MP ATIVO ITANHANDU - COMARCA; ITANHANDU-PJ-SECRETARIA 5.883,73 1.176,75 0,00 0,00 0,00 0,00 7.060,48 843,24 991,04 0,00 1.834,28 5.226,20 457,00 605,30 30/09/2013
645 325500 DENISE ROSA TORRES ASSESSOR/OFICIAL ATIVO BELO HORIZONTE - COMARCA; DIRETORIA DE PESSOAL ADMINISTRATIVO - DPAD 0,00 824,28 8.242,82 0,00 0,00 0,00 9.067,10 646,69 1.525,03 0,00 2.171,72 6.895,38 457,00 0,00 30/09/2013
646 437200 DENISE VIVIANE DOS SANTOS ANALISTA DO MP ATIVO BELO HORIZONTE - COMARCA; ASSESS TECNICA DA CORREGEDORIA-GERAL DO MP 6.379,14 382,75 0,00 0,00 0,00 0,00 6.761,89 822,75 1.040,05 0,00 1.862,80 4.899,09 457,00 717,68 30/09/2013
647 267900 DENISIA DE ALMEIDA SALES OFICIAL DO MP ATIVO BELO HORIZONTE - COMARCA; CAO-CRIMINAL-SECRETARIA 4.409,86 881,97 0,00 0,00 0,00 0,00 5.291,83 582,10 410,01 0,00 992,11 4.299,72 457,00 0,00 30/09/2013
648 480300 DESIREE ARANTES FERREIRA GOUVEA OFICIAL DO MP ATIVO PRATÁPOLIS - COMARCA; PRATAPOLIS-PJ-UNPJ 3.051,96 0,00 0,00 0,00 0,00 0,00 3.051,96 335,72 86,84 0,00 422,56 2.629,40 457,00 0,00 30/09/2013
649 355300 DEYSE CRISTINA MORAIS OFICIAL DO MP ATIVO PASSOS - COMARCA; PASSOS-PJ-02PJ 4.270,85 427,09 0,00 0,00 0,00 0,00 4.697,94 516,77 363,76 0,00 880,53 3.817,41 457,00 0,00 30/09/2013
650 523700 DIANA CAMPOS RESENDE OFICIAL DO MP ATIVO SÃO JOÃO DEL REI - COMARCA; SAO JOAO DEL REI-PJ-04PJ 3.359,85 1.343,94 0,00 0,00 0,00 0,00 4.703,79 517,42 287,55 0,00 804,97 3.898,82 457,00 0,00 30/09/2013
651 241900 DIANA CARDOSO MARTINS OFICIAL DO MP ATIVO BELO HORIZONTE - COMARCA; CGMP-DIVISAO DE APOIO ADMINISTRATIVO 4.854,78 970,96 0,00 0,00 0,00 0,00 5.825,74 640,83 635,27 0,00 1.276,10 4.549,64 457,00 0,00 30/09/2013
652 410100 DIANA GORDILHO SILVEIRA SENA ANALISTA DO MP ATIVO BELO HORIZONTE - COMARCA; ASSESS TECNICO-JUR JUNTO AS PROC. DE JUST 6.379,14 382,75 0,00 0,00 0,00 0,00 6.761,89 782,06 949,51 0,00 1.731,57 5.030,32 457,00 347,76 30/09/2013
653 553000 DIANA MARIA MARQUES ANALISTA DO MP ATIVO BETIM - COMARCA; BETIM-PJ-04PJ 4.136,15 0,00 0,00 0,00 0,00 0,00 4.136,15 454,98 212,57 0,00 667,55 3.468,60 457,00 0,00 30/09/2013
654 520000 DIARLE TOSTE DOS SANTOS ANALISTA DO MP ATIVO RIO POMBA - COMARCA; RIO POMBA-PJ-UNPJ 5.176,02 0,00 0,00 0,00 0,00 0,00 5.176,02 569,36 343,42 0,00 912,78 4.263,24 692,00 0,00 30/09/2013
655 539800 DIEGO CAMARGOS RODRIGUES OFICIAL DO MP ATIVO CONTAGEM - COMARCA; CONTAGEM-PJ-09PJ 2.684,83 0,00 0,00 0,00 0,00 0,00 2.684,83 295,33 50,90 0,00 346,23 2.338,60 457,00 0,00 30/09/2013
656 388100 DIEGO CESAR DO NASCIMENTO PERONI OFICIAL DO MP ATIVO CASSIA - COMARCA; CASSIA-PJ-02PJ 3.582,21 358,22 0,00 0,00 0,00 0,00 3.940,43 433,45 212,07 0,00 645,52 3.294,91 457,00 0,00 30/09/2013
657 446900 DIEGO DE FREITAS OFICIAL DO MP ATIVO UBERABA - COMARCA; UBERABA-PJ-06PJ 3.151,29 189,08 0,00 0,00 0,00 0,00 3.340,37 367,44 125,34 0,00 492,78 2.847,59 457,00 0,00 30/09/2013
658 379801 DIEGO OSORIO DA SILVA CORDEIRO ANALISTA DO MP ATIVO CONSELHEIRO LAFAIETE - COMARCA; CONSELHEIRO LAFAIETE-PJ-08PJ 4.553,46 0,00 0,00 0,00 0,00 0,00 4.553,46 500,88 334,83 0,00 835,71 3.717,75 457,00 0,00 30/09/2013
659 288800 DILENE NEPOMUCENO ALVES OFICIAL DO MP ATIVO BELO HORIZONTE - COMARCA; DIRETORIA DE PESSOAL ADMINISTRATIVO - DPAD 5.518,54 551,85 0,00 0,00 0,00 0,00 6.070,39 667,74 695,15 0,00 1.362,89 4.707,50 457,00 0,00 30/09/2013
660 270101 DILSON DO AMARAL ANALISTA DO MP ATIVO RIO CASCA - COMARCA; RIO CASCA-PJ-UNPJ 4.553,46 0,00 0,00 0,00 0,00 0,00 4.553,46 543,81 419,41 0,00 963,22 3.590,24 457,00 390,30 30/09/2013
661 466000 DIMITRI GUDE MARCIAL ANALISTA DO MP ATIVO NANUQUE - COMARCA; NANUQUE-PJ-02PJ 4.270,85 0,00 0,00 0,00 0,00 0,00 4.270,85 510,05 312,84 0,00 822,89 3.447,96 909,99 366,00 30/09/2013
662 516300 DINORA APARECIDA MACEDO BRANDAO ANALISTA DO MP ATIVO BELO HORIZONTE - COMARCA; COMB CRIMES PRAT POR AG POL MUN-ASSESSORIA 4.270,85 0,00 0,00 0,00 0,00 0,00 4.270,85 469,79 278,24 0,00 748,03 3.522,82 457,00 0,00 30/09/2013
663 511700 DIOGENES HENRIQUES PEREIRA LOURENCO ANALISTA DO MP ATIVO CONTAGEM - COMARCA; CONTAGEM-PJ-22PJ 5.176,02 0,00 0,00 0,00 0,00 0,00 5.176,02 569,36 476,25 0,00 1.045,61 4.130,41 2.527,41 189,79 30/09/2013
664 387800 DIOGO FELIX DA SILVA OFICIAL DO MP ATIVO MANTENA - COMARCA; MANTENA-PJ-SECRETARIA 3.582,21 358,22 0,00 0,00 0,00 0,00 3.940,43 433,45 212,07 0,00 645,52 3.294,91 457,00 0,00 30/09/2013
665 259600 DIOGO MESQUITA MAIA ANALISTA DO MP ATIVO BELO HORIZONTE - COMARCA; DIRET DE APOIO AS PROCURADORIAS DE JUSTICA 8.788,36 6.151,86 0,00 0,00 0,00 0,00 14.940,22 1.643,42 2.724,16 0,00 4.367,58 10.572,64 692,00 0,00 30/09/2013
666 364100 DIOGO OLIVEIRA CANUTO OFICIAL DO MP ATIVO BELO HORIZONTE - COMARCA; EXTINTA-04ª PJ JUÍZO REG PÚBLICOS-SECRETARIA 5.012,79 501,28 0,00 0,00 0,00 0,00 5.514,07 606,55 558,99 0,00 1.165,54 4.348,53 457,00 0,00 30/09/2013
667 386700 DIRCIMAR FERNANDES CARNEIRO OFICIAL DO MP ATIVO VISCONDE DO RIO BRANCO - COMARCA; VISCONDE DO RIO BRANCO-PJ-03PJ 4.553,46 1.821,39 0,00 0,00 0,00 0,00 6.374,85 725,28 823,17 0,00 1.548,45 4.826,40 478,89 218,60 30/09/2013
668 113800 DIRSON APARECIDO GUIMARAES ASSESSOR ATIVO BELO HORIZONTE - COMARCA; DIRETORIA DE MANUTENCAO PREDIAL 0,00 1.772,24 2.215,31 0,00 0,00 0,00 3.987,55 457,49 58,07 0,00 515,56 3.471,99 457,00 0,00 30/09/2013
669 216700 DOMICIO VALDETE PEREIRA OFICIAL DO MP ATIVO TEÓFILO OTONI - COMARCA; COORD REG PJ DEF EDU DIR CRIAN ADOL JEQUI MUC 7.487,46 1.497,49 0,00 0,00 0,00 0,00 8.984,95 1.073,06 1.455,09 0,00 2.528,15 6.456,80 457,00 770,10 30/09/2013
670 85700 DONIZETTE PEREIRA DOS SANTOS OFICIAL DO MP ATIVO BELO HORIZONTE - COMARCA; EXTINTA - PROTOCOLO DA PGJ 15.227,00 10.658,90 0,00 0,00 0,00 0,00 25.885,90 2.785,59 5.312,76 562,40 8.660,75 17.225,15 2.145,18 229,89 30/09/2013
671 192701 DONIZETTI APARECIDO AMORIM ANALISTA DO MP ATIVO PRATÁPOLIS - COMARCA; PRATAPOLIS-PJ-UNPJ 4.701,73 940,35 0,00 0,00 0,00 0,00 5.642,08 620,63 543,03 0,00 1.163,66 4.478,42 457,00 0,00 30/09/2013
672 276700 DORALICE ROSA DE OLIVEIRA FREITAS OFICIAL DO MP ATIVO CARMO DA MATA - COMARCA; CARMO DA MATA-PJ-SECRETARIA 4.409,86 3.527,89 0,00 0,00 0,00 873,15 8.810,90 873,15 1.392,30 0,00 2.265,45 6.545,45 457,00 70,65 30/09/2013
673 558700 DORCILIA FATIMA DE OLIVEIRA OFICIAL DO MP ATIVO DIVINÓPOLIS - COMARCA; DIVINOPOLIS-PJ-02PJ 2.955,70 0,00 0,00 0,00 0,00 0,00 2.955,70 380,75 89,89 0,00 470,64 2.485,06 692,00 505,62 30/09/2013
674 555300 DOUGLAS CUNHA DE SOUZA ANALISTA DO MP ATIVO VARZEA DA PALMA - COMARCA; VARZEA DA PALMA-PJ-01PJ 4.553,46 0,00 0,00 0,00 0,00 0,00 4.553,46 577,39 494,11 0,00 1.071,50 3.481,96 457,00 695,52 30/09/2013
675 265900 DOUGLAS GOMES MOREIRA ANALISTA DO MP ATIVO BELO HORIZONTE - COMARCA; CENTRAL DE APOIO TECNICO-SETOR DE ENGENHARIA 9.674,93 1.934,99 0,00 0,00 0,00 0,00 11.609,92 1.277,09 2.050,95 0,00 3.328,04 8.281,88 457,00 0,00 30/09/2013
676 241000 DOUGLAS MEIRELLES DE CASTRO OFICIAL DO MP ATIVO CONCEIÇÃO DO RIO VERDE - COMARCA; CONCEICAO DO RIO VERDE-PJ-UNPJ 6.075,32 1.822,60 0,00 0,00 0,00 0,00 7.897,92 868,77 1.047,85 0,00 1.916,62 5.981,30 692,00 0,00 30/09/2013
677 534900 DOUGLAS SILVA E SOUZA ANALISTA DO MP ATIVO CAMPOS GERAIS - COMARCA; CAMPOS GERAIS-PJ-SECRETARIA 4.136,15 0,00 0,00 0,00 0,00 0,00 4.136,15 532,99 354,59 0,00 887,58 3.248,57 457,00 709,20 30/09/2013
678 146800 DUCINALVA AMARAL LOPES REIS OFICIAL DO MP ATIVO PARAISÓPOLIS - COMARCA; PARAISOPOLIS-PJ-UNPJ 8.788,36 4.394,18 0,00 0,00 0,00 0,00 13.182,54 1.450,08 2.246,68 0,00 3.696,76 9.485,78 692,00 0,00 30/09/2013
679 122500 DUILIO CARLOS FERREIRA UTSCH OFICIAL DO MP ATIVO CONCEIÇÃO DO MATO DENTRO - COMARCA; CONCEICAO DO MATO DENTRO-PJ-UNPJ 7.487,46 5.241,23 0,00 0,00 0,00 0,00 12.728,69 1.400,16 2.324,77 0,00 3.724,93 9.003,76 457,00 0,00 30/09/2013
680 201800 DULCINEIA ANDRE DE SOUZA OFICIAL DO MP ATIVO JEQUITINHONHA - COMARCA; JEQUITINHONHA-PJ-SECRETARIA 7.487,46 1.497,49 0,00 0,00 0,00 0,00 8.984,95 988,34 1.219,32 0,00 2.207,66 6.777,29 457,00 0,00 30/09/2013
681 395800 DUVIDIER MEDIRCIO JUNIOR ANALISTA DO MP ATIVO BELO HORIZONTE - COMARCA; CENTRAL DE APOIO TECNICO-SETOR DE ENGENHARIA 6.075,32 607,53 0,00 0,00 0,00 0,00 6.682,85 735,11 845,05 0,00 1.580,16 5.102,69 3.664,77 294,05 30/09/2013
682 273000 EDELFINA APARECIDA GUIMARAES OFICIAL DO MP ATIVO BELO HORIZONTE - COMARCA; PROMOT ESTADUAL DE DEF PATRI CULT E TUR DE MG 5.344,58 2.137,83 0,00 0,00 0,00 0,00 7.482,41 823,07 946,16 0,00 1.769,23 5.713,18 457,00 0,00 30/09/2013
683 523300 EDER DOS SANTOS PATRICIO ANALISTA DO MP ATIVO NOVA SERRANA - COMARCA; NOVA SERRANA-PJ-03PJ 4.701,73 0,00 0,00 0,00 0,00 0,00 4.701,73 517,19 364,52 0,00 881,71 3.820,02 457,00 0,00 30/09/2013
684 356700 EDER JOSE PACHECO OFICIAL DO MP ATIVO CAMPO BELO - COMARCA; CAMPO BELO-PJ-SECRETARIA 4.854,78 485,48 0,00 0,00 0,00 0,00 5.340,26 587,43 469,16 0,00 1.056,59 4.283,67 574,24 0,00 30/09/2013
685 507900 EDERSON SILVA LOPES OFICIAL DO MP ATIVO BELO HORIZONTE - COMARCA; SERVICO MEDICO-DEPTO PERIC MEDICA SAUDE OCUP 2.772,23 0,00 0,00 0,00 0,00 0,00 2.772,23 304,95 30,94 0,00 335,89 2.436,34 692,00 0,00 30/09/2013
686 296200 EDGARD GOULART MATOSINHO DE LAET JUNIOR ANALISTA DO MP ATIVO GOVERNADOR VALADARES - COMARCA; GOVERNADOR VALADARES-PJ-SECRETARIA 8.788,36 878,84 0,00 0,00 0,00 0,00 9.667,20 1.063,39 1.433,59 0,00 2.496,98 7.170,22 692,00 0,00 30/09/2013
687 295000 EDILA MARIA DA SILVEIRA OFICIAL DO MP ATIVO FORMIGA - COMARCA; FORMIGA-PJ-SECRETARIA 4.553,46 455,35 0,00 0,00 0,00 0,00 5.008,81 598,19 540,40 0,00 1.138,59 3.870,22 457,00 429,30 30/09/2013
688 332300 EDILA MARILAC MIRANDA PRADO OFICIAL DO MP ATIVO DIAMANTINA - COMARCA; DIAMANTINA-PJ-03PJ 4.701,73 1.410,52 0,00 0,00 0,00 0,00 6.112,25 672,35 610,81 0,00 1.283,16 4.829,09 457,00 0,00 30/09/2013
689 376600 EDILANE CONSOLACAO ROSA NAZARETH ANALISTA DO MP ATIVO BETIM - COMARCA; BETIM-PJ-10PJ 6.586,88 658,69 0,00 0,00 0,00 0,00 7.245,57 797,01 982,77 0,00 1.779,78 5.465,79 457,00 0,00 30/09/2013
690 301500 EDILENE APARECIDA DE CARVALHO ANALISTA DO MP ATIVO BELO HORIZONTE - COMARCA; DIRETORIA DE ADMINISTRACAO FINANCEIRA 8.788,36 878,84 0,00 0,00 0,00 0,00 9.667,20 1.063,39 1.528,18 0,00 2.591,57 7.075,63 457,00 0,00 30/09/2013
691 309800 EDILZA DOS REIS OFICIAL DO MP ATIVO UBERLÂNDIA - COMARCA; UBERLANDIA-PJ-03PJ 5.344,58 534,46 0,00 0,00 0,00 0,00 5.879,04 646,69 601,02 0,00 1.247,71 4.631,33 457,00 61,25 30/09/2013
692 200500 EDINEIA MARIA DE OLIVEIRA ANTUNES OFICIAL DO MP ATIVO MONTES CLAROS - COMARCA; MONTES CLAROS-PJ-10PJ 7.731,26 2.319,38 0,00 0,00 0,00 0,00 10.050,64 1.105,57 1.669,31 0,00 2.774,88 7.275,76 4.068,47 309,51 30/09/2013
693 427700 EDISANGELA SOARES LOPES OFICIAL DO MP ATIVO PIRAPORA - COMARCA; PIRAPORA-PJ-03PJ 3.757,11 225,43 0,00 0,00 0,00 0,00 3.982,54 438,08 220,50 0,00 658,58 3.323,96 457,00 0,00 30/09/2013
694 555400 EDISON MONTEIRO SAMPAIO NETO ANALISTA DO MP ATIVO BELO HORIZONTE - COMARCA; BH-12PJ JUIZO CRIMINAL 4.136,15 0,00 0,00 0,00 0,00 0,00 4.136,15 454,98 251,26 0,00 706,24 3.429,91 457,00 0,00 30/09/2013
695 517700 EDMILSON TADEU FERNANDES OFICIAL DO MP ATIVO POUSO ALEGRE - COMARCA; POUSO ALEGRE-PJ-04PJ 3.359,85 0,00 0,00 0,00 0,00 0,00 3.359,85 369,58 127,94 0,00 497,52 2.862,33 457,00 0,00 30/09/2013
696 358400 EDNA APARECIDA SILVA FERREIRA OFICIAL DO MP ATIVO CORONEL FABRICIANO - COMARCA; CORONEL FABRICIANO-PJ-SECRETARIA 4.701,73 470,17 0,00 0,00 0,00 0,00 5.171,90 568,91 475,24 0,00 1.044,15 4.127,75 692,00 3,39 30/09/2013
697 331800 EDNA MARCIA CAMILO DA SILVA OFICIAL DO MP ATIVO SETE LAGOAS - COMARCA; SETE LAGOAS-PJ-07PJ 5.344,58 534,46 0,00 0,00 0,00 0,00 5.879,04 646,69 648,32 0,00 1.295,01 4.584,03 457,00 0,00 30/09/2013
698 87400 EDNA MARIA DE LIMA OFICIAL DO MP ATIVO BELO HORIZONTE - COMARCA; EXTINTA - DIVISÃO DE MATERIAL PERMANENTE 7.487,46 3.743,73 0,00 0,00 0,00 0,00 11.231,19 1.235,43 1.958,25 0,00 3.193,68 8.037,51 457,00 38,94 30/09/2013
699 422800 EDNILSON DE SOUZA FERREIRA ASSESSOR ATIVO BELO HORIZONTE - COMARCA; DIRET DE INFORMACAO E EXPEDICAO DE PROCESSOS 0,00 0,00 2.215,31 0,00 0,00 0,00 2.215,31 293,95 24,27 0,00 318,22 1.897,09 457,00 0,00 30/09/2013
700 327900 EDRIEL SANTANA PEREIRA OFICIAL DO MP ATIVO TUPACIGUARA - COMARCA; TUPACIGUARA-PJ-UNPJ 5.344,58 534,46 0,00 0,00 0,00 0,00 5.879,04 646,69 648,32 0,00 1.295,01 4.584,03 457,00 0,00 30/09/2013
701 482400 EDSON GARCIA OFICIAL DO MP ATIVO MACHADO - COMARCA; MACHADO-PJ-02PJ 3.051,96 0,00 0,00 0,00 0,00 0,00 3.051,96 335,72 49,61 0,00 385,33 2.666,63 457,00 0,00 30/09/2013
702 225601 EDSON LABRE FILHO ANALISTA DO MP ATIVO VARGINHA - COMARCA; VARGINHA-PJ-01PJ 8.788,36 1.757,67 0,00 0,00 0,00 0,00 10.546,03 1.160,06 1.743,27 0,00 2.903,33 7.642,70 457,00 0,00 30/09/2013
703 414400 EDUARDO ABRANTES CAMPOS ANALISTA DO MP ATIVO OLIVEIRA - COMARCA; OLIVEIRA-PJ-02PJ 6.379,14 382,75 0,00 0,00 0,00 0,00 6.761,89 743,81 864,39 0,00 1.608,20 5.153,69 457,00 0,00 30/09/2013
704 476800 EDUARDO ALVES DE MOURA ANALISTA DO MP ATIVO UBERLÂNDIA - COMARCA; UBERLANDIA-PJ-19PJ 5.698,20 0,00 0,00 0,00 0,00 0,00 5.698,20 626,80 604,06 0,00 1.230,86 4.467,34 457,00 0,00 30/09/2013
705 390800 EDUARDO AMORIM PETTERSEN OFICIAL DO MP ATIVO CARANGOLA - COMARCA; CARANGOLA-PJ-03PJ 4.270,85 427,09 0,00 0,00 0,00 0,00 4.697,94 516,77 363,76 0,00 880,53 3.817,41 457,00 0,00 30/09/2013
706 461600 EDUARDO ANTONIO DE ASSIS FARIA ASSESSOR ATIVO BELO HORIZONTE - COMARCA; ASSESS EXECUTIVA DO CONSELHO SUPERIOR DO MP 0,00 0,00 3.698,79 0,00 0,00 0,00 3.698,79 457,14 216,50 0,00 673,64 3.025,15 457,00 0,00 30/09/2013
707 248800 EDUARDO DE CASTRO AMORIM ANALISTA DO MP ATIVO BELO HORIZONTE - COMARCA; BH-01PJ FAZENDA PUBLICA EXEC FISCAIS 9.369,85 1.873,97 0,00 0,00 0,00 0,00 11.243,82 1.236,82 1.961,35 0,00 3.198,17 8.045,65 457,00 0,00 30/09/2013
708 209100 EDUARDO DE SOUZA MAIA ANALISTA DO MP ATIVO BELO HORIZONTE - COMARCA; CAO-TS-TERCEIRO SETOR-ASSESSORIA JURIDICA 10.997,69 2.199,54 0,00 0,00 0,00 0,00 13.197,23 1.451,70 2.297,57 0,00 3.749,27 9.447,96 457,00 0,00 30/09/2013
709 350500 EDUARDO GONCALVES RIBEIRO OFICIAL DO MP ATIVO VESPASIANO - COMARCA; VESPASIANO-PJ-04PJ 4.005,77 400,58 0,00 0,00 0,00 0,00 4.406,35 493,01 320,50 0,00 813,51 3.592,84 2.219,54 207,73 30/09/2013
710 115800 EDUARDO HENRIQUE DE CAMPOS MAIA OFICIAL DO MP ATIVO BELO HORIZONTE - COMARCA; EXTINTA - DIVISAO DE SERVICOS GERAIS 7.982,93 3.193,17 0,00 0,00 0,00 0,00 11.176,10 1.229,37 1.850,19 0,00 3.079,56 8.096,54 457,00 0,00 30/09/2013
711 392600 EDUARDO HENRIQUE DOS SANTOS COSTA ELIAZAR OFICIAL DO MP ATIVO MATOZINHOS - COMARCA; MATOZINHOS-PJ-02PJ 3.879,42 387,94 0,00 0,00 0,00 0,00 4.267,36 469,41 200,15 0,00 669,56 3.597,80 4.163,19 253,24 30/09/2013
712 122900 EDUARDO JOSE COSTA SILVA OFICIAL DO MP ATIVO SETE LAGOAS - COMARCA; SETE LAGOAS-PJ-04PJ 11.161,27 7.812,89 0,00 0,00 0,00 0,00 18.974,16 2.087,16 3.806,05 0,00 5.893,21 13.080,95 457,00 0,00 30/09/2013
713 418700 EDUARDO LEMOS SIMOES OFICIAL DO MP ATIVO LAVRAS - COMARCA; COORD REG DO MA DA BACIA DO RIO GRANDE 3.469,26 208,16 0,00 0,00 0,00 0,00 3.677,42 404,52 170,34 0,00 574,86 3.102,56 457,00 0,00 30/09/2013
714 407500 EDUARDO MASCARENHAS CURI AZEVEDO ANALISTA DO MP ATIVO BELO HORIZONTE - COMARCA; DIRETORIA DE IMPRENSA 5.883,73 353,02 0,00 0,00 0,00 0,00 6.236,75 686,04 735,87 0,00 1.421,91 4.814,84 457,00 0,00 30/09/2013
715 601300 EDUARDO TRAD VIEIRA OFICIAL DO MP ATIVO CAMANDUCAIA - COMARCA; CAMANDUCAIA-PJ-UNPJ 2.684,83 0,00 0,00 0,00 0,00 0,00 2.684,83 472,53 283,22 0,00 755,75 1.929,08 747,82 1.610,90 30/09/2013
716 257600 EDUARDO VALADARES CABRAL ASSESSOR/ANALISTA ATIVO BELO HORIZONTE - COMARCA; EXTINTA - SECRETARIA ADMINISTRATIVA 0,00 1.648,56 8.242,82 0,00 0,00 0,00 9.891,38 988,34 1.657,76 0,00 2.646,10 7.245,28 457,00 0,00 30/09/2013
717 545700 EDVAIR FERREIRA DE CARVALHO OFICIAL DO MP ATIVO ARAGUARI - COMARCA; ARAGUARI-PJ-02PJ 2.684,83 0,00 0,00 0,00 0,00 0,00 2.684,83 345,95 42,93 0,00 388,88 2.295,95 457,00 460,20 30/09/2013
718 401700 EDWANIA AMORIM DO CARMO OFICIAL DO MP ATIVO RIBEIRÃO DAS NEVES - COMARCA; RIBEIRAO DAS NEVES-PJ-03PJ 4.553,46 273,21 0,00 0,00 0,00 0,00 4.826,67 530,93 390,75 0,00 921,68 3.904,99 2.387,67 176,98 30/09/2013
719 303600 EFIGENIO SARAIVA LOPES ANALISTA DO MP ATIVO BELO HORIZONTE - COMARCA; DIRETORIA DE PAGAMENTO DE PESSOAL-DPAG 9.674,93 967,49 0,00 0,00 0,00 0,00 10.642,42 1.170,67 1.719,57 0,00 2.890,24 7.752,18 970,01 47,03 30/09/2013
720 312000 ELAINE APARECIDA DE ARAUJO RODRIGUES ASSESSOR/OFICIAL ATIVO DIVINÓPOLIS - COMARCA; DIVINOPOLIS-PJ-02PJ 0,00 2.941,87 5.883,73 0,00 0,00 0,00 8.825,60 801,04 1.368,88 0,00 2.169,92 6.655,68 457,00 81,93 30/09/2013
721 286000 ELAINE APARECIDA SILVA BERZOINI OFICIAL DO MP ATIVO JUIZ DE FORA - COMARCA; JUIZ DE FORA-PJ-07PJ 5.518,54 551,85 0,00 0,00 0,00 0,00 6.070,39 667,74 695,15 0,00 1.362,89 4.707,50 692,00 0,00 30/09/2013
722 509000 ELAINE CANDIDA PONTES OFICIAL DO MP ATIVO BELO HORIZONTE - COMARCA; BH-02PJ FAMILIA-SECRETARIA 2.772,23 0,00 0,00 0,00 0,00 0,00 2.772,23 304,95 56,74 0,00 361,69 2.410,54 457,00 0,00 30/09/2013
723 283601 ELAINE CRISTINA MEQUELINO DUARTE ANALISTA DO MP ATIVO ALFENAS - COMARCA; ALFENAS-PJ-04PJ 6.586,88 658,69 0,00 0,00 0,00 0,00 7.245,57 797,01 935,48 0,00 1.732,49 5.513,08 927,00 0,00 30/09/2013
724 535500 ELAINE DE OLIVEIRA CAMPOS REIS OFICIAL DO MP ATIVO RIBEIRÃO DAS NEVES - COMARCA; RIBEIRAO DAS NEVES-PJ-11PJ 2.684,83 0,00 0,00 0,00 0,00 0,00 2.684,83 295,33 50,90 0,00 346,23 2.338,60 457,00 0,00 30/09/2013
725 455700 ELAINE DE OLIVEIRA CASTRO ANALISTA DO MP ATIVO POMPÉU - COMARCA; POMPEU-PJ-UNPJ 5.344,58 320,67 0,00 0,00 0,00 0,00 5.665,25 650,04 655,76 0,00 1.305,80 4.359,45 457,00 244,19 30/09/2013
726 367200 ELAINE MUNIZ BARBOSA ANALISTA DO MP ATIVO BELO HORIZONTE - COMARCA; DIRETORIA DE REDES E BANCOS DE DADOS 7.731,26 773,13 0,00 0,00 0,00 0,00 8.504,39 935,48 1.290,87 0,00 2.226,35 6.278,04 457,00 0,00 30/09/2013
727 176900 ELAINE RIBEIRO TAVEIRA OFICIAL DO MP ATIVO BELO HORIZONTE - COMARCA; DIRETORIA DE PESSOAL ADMINISTRATIVO - DPAD 5.698,20 1.139,64 0,00 0,00 0,00 0,00 6.837,84 752,16 882,98 0,00 1.635,14 5.202,70 457,00 0,00 30/09/2013
728 496200 ELAINE SABRINA DIAS MOREIRA ANALISTA DO MP ATIVO CORONEL FABRICIANO - COMARCA; CORONEL FABRICIANO-PJ-03PJ 5.698,20 0,00 0,00 0,00 0,00 0,00 5.698,20 741,68 907,53 0,00 1.649,21 4.048,99 457,00 1.218,42 30/09/2013
729 489200 ELAINE VICENTINO GARCIA ANALISTA DO MP ATIVO BELO HORIZONTE - COMARCA; CENTRAL DE APOIO TECNICO-SETOR CONTABIL 5.698,20 1.139,64 0,00 0,00 0,00 0,00 6.837,84 752,16 788,40 0,00 1.540,56 5.297,28 927,00 0,00 30/09/2013
730 244500 ELCI ALVES DE SOUZA ASSESSOR ATIVO BELO HORIZONTE - COMARCA; CAO-CONFLITOS AGRARIOS-SECRETARIA 0,00 739,76 3.698,79 0,00 0,00 0,00 4.438,55 457,49 382,87 0,00 840,36 3.598,19 457,00 0,00 30/09/2013
731 472500 ELCI VAZ DE OLIVEIRA FILHO ANALISTA DO MP ATIVO PIUMHI - COMARCA; PIUMHI-PJ-02PJ 5.698,20 1.709,46 0,00 0,00 0,00 0,00 7.407,66 814,84 1.022,45 0,00 1.837,29 5.570,37 457,00 0,00 30/09/2013
732 385200 ELCI VIANA REIS OFICIAL DO MP ATIVO RIO PARDO DE MINAS - COMARCA; RIO PARDO DE MINAS-PJ-SECRETARIA 4.701,73 1.410,52 0,00 0,00 0,00 0,00 6.112,25 672,35 705,39 0,00 1.377,74 4.734,51 457,00 0,00 30/09/2013
733 289801 ELCIO JOSE DOS SANTOS ANALISTA DO MP ATIVO BELO HORIZONTE - COMARCA; EXTINTA - DIVISAO DE SERVICOS GERAIS 5.883,73 353,02 0,00 0,00 0,00 0,00 6.236,75 686,04 735,87 0,00 1.421,91 4.814,84 457,00 0,00 30/09/2013
734 123000 ELCIO VILHENA DE FARIA OFICIAL DO MP ATIVO BELO HORIZONTE - COMARCA; ARQUIVO DO MINISTERIO PUBLICO DO ESTADO DE MG 11.161,27 8.929,02 0,00 0,00 0,00 2.209,93 22.300,22 2.209,93 4.734,25 0,00 6.944,18 15.356,04 457,00 0,00 30/09/2013
735 503200 ELDER GOMES DUTRA ANALISTA DO MP ATIVO IGARAPÉ - COMARCA; IGARAPE-PJ-03PJ 5.176,02 0,00 0,00 0,00 0,00 0,00 5.176,02 569,36 476,25 0,00 1.045,61 4.130,41 457,00 0,00 30/09/2013
736 319600 ELEN TULER DE ALBERGARIA ANALISTA DO MP ATIVO BELO HORIZONTE - COMARCA; BH-19PJ SAUDE 6.379,14 1.275,83 0,00 0,00 0,00 0,00 7.654,97 842,05 1.082,97 0,00 1.925,02 5.729,95 692,00 0,00 30/09/2013
737 333100 ELENILDA ROCHA DE MORAES MELO OFICIAL DO MP ATIVO MAR DE ESPANHA - COMARCA; MAR DE ESPANHA-PJ-SECRETARIA 4.409,86 440,99 0,00 0,00 0,00 0,00 4.850,85 533,59 355,69 0,00 889,28 3.961,57 457,00 0,00 30/09/2013
738 151000 ELI LOURENCO RIBEIRO AGENTE DO MP ATIVO BELO HORIZONTE - COMARCA; BH-17PJ PATRIMONIO PUBLICO-SECRETARIA 6.379,14 1.913,74 0,00 0,00 0,00 0,00 8.292,88 912,22 851,42 0,00 1.763,64 6.529,24 457,00 0,00 30/09/2013
739 205500 ELIANA ALVES DE SOUSA OFICIAL DO MP ATIVO GOVERNADOR VALADARES - COMARCA; GOVERNADOR VALADARES-PJ-07PJ 5.344,58 1.068,92 0,00 0,00 0,00 0,00 6.413,50 705,49 779,12 0,00 1.484,61 4.928,89 457,00 0,00 30/09/2013
740 301700 ELIANA DA SILVEIRA ANALISTA DO MP ATIVO BELO HORIZONTE - COMARCA; ASSESS TECNICO-JUR JUNTO AS PROC. DE JUST 7.731,26 773,13 0,00 0,00 0,00 0,00 8.504,39 935,48 1.243,58 0,00 2.179,06 6.325,33 457,00 0,00 30/09/2013
741 103400 ELIANA DE FARIA MORAIS JOTTA OFICIAL DO MP ATIVO BELO HORIZONTE - COMARCA; DIRET DE PESSOAL DO MINISTERIO PUBLICO - DPMP 17.785,38 7.114,15 0,00 0,00 0,00 0,00 24.899,53 2.738,95 5.161,70 0,00 7.900,65 16.998,88 1.834,27 133,55 30/09/2013
742 251500 ELIANA DE LIMA MILAGRES FONSECA ANALISTA DO MP ATIVO CONTAGEM - COMARCA; CONTAGEM-PJ-17PJ 7.731,26 1.546,25 0,00 0,00 0,00 0,00 9.277,51 1.020,53 1.385,51 0,00 2.406,04 6.871,47 457,00 0,00 30/09/2013
743 503900 ELIANA DIAS DUTRA FERREIRA OFICIAL DO MP ATIVO GOVERNADOR VALADARES - COMARCA; GOVERNADOR VALADARES-PJ-10PJ 3.359,85 0,00 0,00 0,00 0,00 0,00 3.359,85 369,58 76,35 0,00 445,93 2.913,92 692,00 0,00 30/09/2013
744 413900 ELIANA PINTO DE OLIVEIRA NEVES ANALISTA DO MP ATIVO CAMPO BELO - COMARCA; CAMPO BELO-PJ-03PJ 6.379,14 382,75 0,00 0,00 0,00 0,00 6.761,89 743,81 864,39 0,00 1.608,20 5.153,69 457,00 0,00 30/09/2013
745 228200 ELIANA RODRIGUES DA CUNHA PINHEIRO DIRETOR/OFICIAL ATIVO BELO HORIZONTE - COMARCA; SUPERINTENDÊNCIA DE ENGENHARIA E ARQUITETURA 0,00 2.508,02 12.540,10 0,00 0,00 0,00 15.048,12 842,05 3.068,80 0,00 3.910,85 11.137,27 457,00 0,00 30/09/2013
746 386600 ELIANA SABINO CHAVES ANALISTA DO MP ATIVO CARATINGA - COMARCA; CARATINGA-PJ-06PJ 6.177,98 2.471,19 0,00 0,00 0,00 0,00 8.649,17 984,03 1.351,58 0,00 2.335,61 6.313,56 457,00 296,52 30/09/2013
747 297400 ELIANE AUGUSTA RIBEIRO COSTA ANALISTA DO MP ATIVO CONSELHEIRO LAFAIETE - COMARCA; CONSELHEIRO LAFAIETE-PJ-05PJ 8.788,36 878,84 0,00 0,00 0,00 0,00 9.667,20 1.063,39 1.433,59 0,00 2.496,98 7.170,22 457,00 0,00 30/09/2013
748 510600 ELIANE CAROLINA MAIA ANALISTA DO MP ATIVO IGARAPÉ - COMARCA; IGARAPE-PJ-01PJ 4.701,73 0,00 0,00 0,00 1.567,24 0,00 6.268,97 517,19 601,99 0,00 1.119,18 5.149,79 927,00 0,00 30/09/2013
749 269300 ELIANE EDLAMAR ROCHA OFICIAL DO MP ATIVO PEDRO LEOPOLDO - COMARCA; PEDRO LEOPOLDO-PJ-02PJ 5.698,20 569,82 0,00 0,00 0,00 0,00 6.268,02 689,48 696,23 0,00 1.385,71 4.882,31 457,00 0,00 30/09/2013
750 359100 ELIANE FARIAS DE OLIVEIRA ASSESSOR ATIVO BELO HORIZONTE - COMARCA; EXTINTA-TUTELA DAS FUNDACOES-21 PJ- GABINETE 0,00 0,00 2.215,31 0,00 0,00 0,00 2.215,31 293,95 50,07 0,00 344,02 1.871,29 457,00 0,00 30/09/2013
751 262600 ELIANE FERREIRA SOARES ASSESSOR ATIVO BELO HORIZONTE - COMARCA; BH-18PJ DIREITOS HUMANOS-SECRETARIA 0,00 1.109,64 3.698,79 0,00 0,00 0,00 4.808,43 457,49 484,31 0,00 941,80 3.866,63 692,00 0,00 30/09/2013
752 204400 ELIANE GLAUCE DE QUEIROS MAIA OFICIAL DO MP ATIVO GUANHÃES - COMARCA; GUANHAES-PJ-01PJ 7.487,46 1.497,49 0,00 0,00 2.994,98 0,00 11.979,93 988,34 2.184,82 0,00 3.173,16 8.806,77 457,00 0,00 30/09/2013
753 91800 ELIANE KAPLER COORDENADOR/OFICIAL ATIVO BELO HORIZONTE - COMARCA; SUPERINTENDÊNCIA DE ENGENHARIA E ARQUITETURA 10.651,04 6.388,90 0,00 0,00 0,00 0,00 17.039,94 1.640,26 3.349,75 0,00 4.990,01 12.049,93 927,00 0,00 30/09/2013
754 334200 ELIANE MARCIA DE OLIVEIRA BRITO OFICIAL DO MP ATIVO BELO HORIZONTE - COMARCA; BH-09PJ AUDITORIA MILITAR 4.409,86 440,99 0,00 0,00 0,00 0,00 4.850,85 533,59 396,67 0,00 930,26 3.920,59 457,00 0,00 30/09/2013
755 365900 ELIANE MARIA DE OLIVEIRA FERREIRA OFICIAL DO MP ATIVO SETE LAGOAS - COMARCA; SETE LAGOAS-PJ-11PJ 4.854,78 1.941,91 0,00 0,00 0,00 0,00 6.796,69 747,64 872,91 0,00 1.620,55 5.176,14 457,00 0,00 30/09/2013
756 320600 ELIANE STADLER DE SOUZA OFICIAL DO MP ATIVO FRANCISCO SÁ - COMARCA; FRANCISCO SA-PJ-SECRETARIA 4.854,78 485,48 0,00 0,00 0,00 0,00 5.340,26 587,43 469,16 0,00 1.056,59 4.283,67 457,00 0,00 30/09/2013
757 448900 ELIAS PEREIRA OTONI ASSESSOR ATIVO BELO HORIZONTE - COMARCA; EXTINTA - DIVISAO DE TRANSPORTES 0,00 0,00 3.698,79 0,00 0,00 0,00 3.698,79 457,14 182,61 0,00 639,75 3.059,04 457,00 0,00 30/09/2013
758 495400 ELICA SOUZA GASPARONI MATTOS OFICIAL DO MP ATIVO UBÁ - COMARCA; UBA-PJ-SECRETARIA 3.051,96 0,00 0,00 0,00 0,00 0,00 3.051,96 335,72 86,84 0,00 422,56 2.629,40 692,00 0,00 30/09/2013
759 86600 ELIENE FERREIRA DA SILVA OFICIAL DO MP ATIVO BELO HORIZONTE - COMARCA; BH-22PJ PES COM DEF E IDOSOS 15.227,00 7.613,50 0,00 0,00 0,00 0,00 22.840,50 2.512,46 4.657,76 0,00 7.170,22 15.670,28 927,00 0,00 30/09/2013
760 183800 ELIENE MARIA CUNHA OFICIAL DO MP ATIVO BELO HORIZONTE - COMARCA; DIRETORIA DE PESSOAL ADMINISTRATIVO - DPAD 7.731,26 1.546,25 0,00 0,00 0,00 0,00 9.277,51 1.020,53 1.432,80 0,00 2.453,33 6.824,18 457,00 0,00 30/09/2013
761 172300 ELINA APARECIDA SILVA ASSESSOR ATIVO BELO HORIZONTE - COMARCA; BH-19PJ SAUDE-SECRETARIA 130PJ 0,00 443,06 2.215,31 0,00 0,00 0,00 2.658,37 342,69 53,85 0,00 396,54 2.261,83 692,00 0,00 30/09/2013
762 492500 ELINE CAMPOS DA FONSECA CUNHA ANALISTA DO MP ATIVO CAPELINHA - COMARCA; CAPELINHA-PJ-02PJ 4.701,73 0,00 0,00 0,00 0,00 0,00 4.701,73 517,19 364,52 0,00 881,71 3.820,02 692,00 0,00 30/09/2013
763 256500 ELISABETE NOGUEIRA ANALISTA DO MP ATIVO BELO HORIZONTE - COMARCA; BH-21PJ TUTELA DAS FUNDACOES-ASS CURADORES 7.487,46 2.246,24 0,00 0,00 0,00 0,00 9.733,70 1.070,71 1.449,87 0,00 2.520,58 7.213,12 1.162,00 0,00 30/09/2013
764 355000 ELISANGELA DARLANTONI RIBEIRO OFICIAL DO MP ATIVO ARAXÁ - COMARCA; ARAXA-PJ-05PJ 4.005,77 400,58 0,00 0,00 0,00 0,00 4.406,35 484,70 266,68 0,00 751,38 3.654,97 692,00 0,00 30/09/2013
765 323800 ELISANGELA GONCALVES DE JESUS OFICIAL DO MP ATIVO BELO HORIZONTE - COMARCA; BH-09PJ AUDITORIA MILITAR-SECRETARIA 4.409,86 440,99 0,00 0,00 0,00 0,00 4.850,85 533,59 396,67 0,00 930,26 3.920,59 457,00 0,00 30/09/2013
766 261400 ELISANGELA MENDES OFICIAL DO MP ATIVO POUSO ALEGRE - COMARCA; POUSO ALEGRE-PJ-05PJ 5.176,02 554,46 0,00 0,00 0,00 0,00 5.730,48 683,23 729,62 0,00 1.412,85 4.317,63 457,00 0,00 30/09/2013
767 507400 ELISANGELA MIGUEL DA ROCHA ASSESSOR ATIVO BELO HORIZONTE - COMARCA; CGMP-DIVIS DE APOIO FISC ORIENTACAO FUNCIONAL 0,00 0,00 2.215,31 0,00 0,00 0,00 2.215,31 293,95 50,07 0,00 344,02 1.871,29 457,00 0,00 30/09/2013
768 534100 ELISANGELA ROSINE SILVA OFICIAL DO MP ATIVO UBERABA - COMARCA; UBERABA-PJ-06PJ 2.684,83 0,00 0,00 0,00 0,00 0,00 2.684,83 295,33 50,90 0,00 346,23 2.338,60 457,00 0,00 30/09/2013
769 461700 ELIZABETH ALEIXO DA PAZ ANALISTA DO MP ATIVO JUIZ DE FORA - COMARCA; JUIZ DE FORA-PJ-24PJ 5.698,20 0,00 0,00 0,00 0,00 0,00 5.698,20 626,80 604,06 0,00 1.230,86 4.467,34 457,00 0,00 30/09/2013
770 198100 ELIZABETH CARDOSO CAMPOS OFICIAL DO MP ATIVO PIUMHI - COMARCA; PIUMHI-PJ-02PJ 6.379,14 5.103,31 0,00 0,00 0,00 1.371,33 12.853,78 1.371,33 2.590,46 0,00 3.961,79 8.891,99 3.833,47 1.293,71 30/09/2013
771 227300 ELIZABETH COIMBRA FELIX ASSESSOR/OFICIAL ATIVO BELO HORIZONTE - COMARCA; DIRETORIA DE PAGAMENTO DE PESSOAL-DPAG 0,00 2.472,85 8.242,82 0,00 0,00 0,00 10.715,67 841,37 1.782,98 0,00 2.624,35 8.091,32 457,00 0,00 30/09/2013
772 354800 ELIZABETH DOS REIS OFICIAL DO MP ATIVO BELO HORIZONTE - COMARCA; EXTINTA - DIVISÃO DE MATERIAL PERMANENTE 4.854,78 485,48 0,00 0,00 0,00 0,00 5.340,26 587,43 469,16 0,00 1.056,59 4.283,67 457,00 0,00 30/09/2013
773 452800 ELIZANGELA MARIA DAVI OFICIAL DO MP ATIVO ARCOS - COMARCA; ARCOS-PJ-01PJ 3.151,29 189,08 0,00 0,00 0,00 0,00 3.340,37 367,44 99,54 0,00 466,98 2.873,39 927,00 0,00 30/09/2013
774 496300 ELIZANGELA MARQUES PINTO COELHO OFICIAL DO MP ATIVO BELO HORIZONTE - COMARCA; DIRETORIA DE PESSOAL ADMINISTRATIVO - DPAD 3.698,79 0,00 0,00 0,00 0,00 0,00 3.698,79 481,43 299,43 0,00 780,86 2.917,93 457,00 677,88 30/09/2013
775 422500 ELIZETE FORTES DA CUNHA ANALISTA DO MP ATIVO RIBEIRÃO DAS NEVES - COMARCA; RIBEIRAO DAS NEVES-PJ-07PJ 6.379,14 382,75 0,00 0,00 0,00 0,00 6.761,89 743,81 864,39 0,00 1.608,20 5.153,69 692,00 0,00 30/09/2013
776 506100 ELLEM CRISTINA ROCHA FONSECA BOWEN ANALISTA DO MP ATIVO GOVERNADOR VALADARES - COMARCA; COORD REG PJ DEF EDU DIR CRIANCA ADOL RIODOCE 5.176,02 0,00 0,00 0,00 0,00 0,00 5.176,02 569,36 476,25 0,00 1.045,61 4.130,41 927,00 0,00 30/09/2013
777 468200 ELLEN CRISTINA BERNARDES DARE ANALISTA DO MP ATIVO TRÊS PONTAS - COMARCA; TRES PONTAS-PJ-02PJ 5.698,20 0,00 0,00 0,00 0,00 0,00 5.698,20 680,53 676,30 0,00 1.356,83 4.341,37 457,00 488,40 30/09/2013
778 418800 ELLEN CRISTINA DE QUEIROZ FERREIRA ANALISTA DO MP ATIVO BELO HORIZONTE - COMARCA; CENTRAL DE APOIO TECNICO-SETOR CONTABIL 6.379,14 382,75 0,00 0,00 0,00 0,00 6.761,89 743,81 864,39 0,00 1.608,20 5.153,69 457,00 0,00 30/09/2013
779 328401 ELLEN CRISTINA FERREIRA MORAIS MONTEIRO ANALISTA DO MP ATIVO CAMANDUCAIA - COMARCA; CAMANDUCAIA-PJ-UNPJ 6.379,14 382,75 0,00 0,00 0,00 0,00 6.761,89 743,81 769,81 0,00 1.513,62 5.248,27 692,00 0,00 30/09/2013
780 556100 ELLEN CRISTINE BIANCHIN DA SILVA OFICIAL DO MP ATIVO SÃO GONÇALO DO SAPUCAÍ - COMARCA; SAO GONCALO DO SAPUCAI-PJ-02PJ 2.684,83 0,00 0,00 0,00 0,00 0,00 2.684,83 295,33 12,21 0,00 307,54 2.377,29 457,00 0,00 30/09/2013
781 447100 ELLEN ROSANA DE MACEDO BORGES OFICIAL DO MP ATIVO UBERLÂNDIA - COMARCA; UBERLANDIA-PJ-17PJ 3.757,11 225,43 0,00 0,00 0,00 0,00 3.982,54 438,08 220,50 0,00 658,58 3.323,96 457,00 0,00 30/09/2013
782 477700 ELMA JACOB OFICIAL DO MP ATIVO BELO HORIZONTE - COMARCA; CAO-CRIANCAS E ADOLESCENTES 3.698,79 1.849,40 0,00 0,00 0,00 0,00 5.548,19 610,30 567,34 0,00 1.177,64 4.370,55 457,00 39,50 30/09/2013
783 123300 ELMA PAULA DOS SANTOS COELHO OFICIAL DO MP ATIVO BELO HORIZONTE - COMARCA; BH-19PJ SAUDE-SECRETARIA 130PJ 9.674,93 7.739,94 0,00 0,00 0,00 1.915,64 19.330,51 1.915,64 3.951,22 0,00 5.866,86 13.463,65 457,00 0,00 30/09/2013
784 356500 ELOISA CARDOSO SILVA FRANCA OFICIAL DO MP ATIVO PEÇANHA - COMARCA; PECANHA-PJ-SECRETARIA 4.005,77 400,58 0,00 0,00 0,00 0,00 4.406,35 484,70 190,26 0,00 674,96 3.731,39 457,00 0,00 30/09/2013
785 251901 ELOISA COSTA E SILVA ANALISTA DO MP ATIVO SANTOS DUMONT - COMARCA; SANTOS DUMONT-PJ-02PJ 5.698,20 1.139,64 0,00 0,00 0,00 0,00 6.837,84 846,36 1.092,58 0,00 1.938,94 4.898,90 1.183,23 922,95 30/09/2013
786 400400 ELOIZA MARIA FERRI PIRES DA SILVA OFICIAL DO MP ATIVO BELO HORIZONTE - COMARCA; CAO-MEIO AMBIENTE 3.879,42 387,94 0,00 0,00 0,00 0,00 4.267,36 509,64 312,08 0,00 821,72 3.445,64 457,00 365,70 30/09/2013
787 258000 ELSO CECIANO PALMEIRA ASSESSOR/OFICIAL ATIVO BELO HORIZONTE - COMARCA; DIRET DE PESSOAL DO MINISTERIO PUBLICO - DPMP 0,00 3.743,73 7.487,46 0,00 0,00 0,00 11.231,19 940,20 1.944,86 0,00 2.885,06 8.346,13 457,00 0,00 30/09/2013
788 206900 ELVIRA RITA DOS SANTOS ANALISTA DO MP ATIVO BELO HORIZONTE - COMARCA; CENTRAL DE APOIO TECNICO-SETOR CONTABIL 12.062,58 2.412,52 0,00 0,00 0,00 0,00 14.475,10 1.592,26 2.752,20 0,00 4.344,46 10.130,64 457,00 0,00 30/09/2013
789 506800 ELVIS FERREIRA DA SILVA ANALISTA DO MP ATIVO BELO HORIZONTE - COMARCA; DIRETORIA DE SISTEMAS DE INFORMACAO 5.176,02 0,00 0,00 0,00 0,00 0,00 5.176,02 569,36 428,96 0,00 998,32 4.177,70 457,00 0,00 30/09/2013
790 154300 ELZA MARIA DA SILVA OFICIAL DO MP ATIVO ERVÁLIA - COMARCA; ERVALIA-PJ-SECRETARIA 6.801,32 5.441,06 0,00 0,00 0,00 1.346,66 13.589,04 1.346,66 2.576,07 0,00 3.922,73 9.666,31 457,00 0,00 30/09/2013
791 206600 ELZA MARIA GONTIJO DE MAGALHAES GOMES ANALISTA DO MP ATIVO BELO HORIZONTE - COMARCA; DIVISAO DE ACERVOS BIBLIOGRAFICOS 8.788,36 1.757,67 0,00 0,00 0,00 1.160,06 11.706,09 1.160,06 2.109,58 0,00 3.269,64 8.436,45 457,00 292,79 30/09/2013
792 368401 ELZIRA SIMOES DOS SANTOS ASSESSOR ATIVO BELO HORIZONTE - COMARCA; DIRETORIA DE RELACOES PUBLICAS E CERIMONIAL 0,00 0,00 8.242,82 0,00 0,00 0,00 8.242,82 457,49 1.476,06 0,00 1.933,55 6.309,27 457,00 0,00 30/09/2013
793 437400 EMANOELLE DA SILVA RODRIGUES OFICIAL DO MP ATIVO UNAÍ - COMARCA; UNAI-PJ-03PJ 4.136,15 248,17 0,00 0,00 0,00 0,00 4.384,32 561,83 412,19 0,00 974,02 3.410,30 1.464,85 798,79 30/09/2013
794 458900 EMANUELLE CONRAD SILVA FREDERICO ANALISTA DO MP ATIVO DIVINÓPOLIS - COMARCA; DIVINOPOLIS-PJ-08PJ 5.698,20 0,00 0,00 0,00 0,00 0,00 5.698,20 626,80 604,06 0,00 1.230,86 4.467,34 457,00 0,00 30/09/2013
795 284100 EMERSON MAGNO ALMEIDA PEDROSA DA FONSECA ANALISTA DO MP ATIVO BELO HORIZONTE - COMARCA; CENTRAL DE APOIO TECNICO-SETOR CONTABIL 8.788,36 878,84 0,00 0,00 0,00 0,00 9.667,20 1.063,39 893,24 0,00 1.956,63 7.710,57 692,00 0,00 30/09/2013
796 179900 EMERSON MORAIS DIAS OFICIAL DO MP ATIVO BELO HORIZONTE - COMARCA; EXTINTA - DIVISÃO DE APOIO À LICITAÇÃO 7.982,93 2.394,88 0,00 0,00 0,00 0,00 10.377,81 1.229,37 1.944,77 0,00 3.174,14 7.203,67 692,66 819,89 30/09/2013
797 488700 EMERSON SIQUEIRA DE SOUSA TEIXEIRA ANALISTA DO MP ATIVO TARUMIRIM - COMARCA; TARUMIRIM-PJ-UNPJ 5.698,20 0,00 0,00 0,00 0,00 0,00 5.698,20 626,80 462,18 0,00 1.088,98 4.609,22 927,00 0,00 30/09/2013
798 194200 EMILIA ALVES FERREIRA RAMOS OFICIAL DO MP ATIVO UBERLÂNDIA - COMARCA; UBERLANDIA-PJ-19PJ 4.409,86 881,97 0,00 0,00 0,00 0,00 5.291,83 582,10 410,01 0,00 992,11 4.299,72 457,00 0,00 30/09/2013
799 123400 EMILIO CARLOS MARTINS OFICIAL DO MP ATIVO AREADO - COMARCA; AREADO-PJ-UNPJ 9.074,45 6.352,13 0,00 0,00 0,00 0,00 15.426,58 1.842,38 3.261,42 0,00 5.103,80 10.322,78 3.866,75 1.665,00 30/09/2013
800 549300 EMILIO VIEIRA SILVA ASSESSOR ATIVO BELO HORIZONTE - COMARCA; EXTINTA - DIVISAO DE TRANSPORTES 0,00 0,00 2.215,31 0,00 0,00 0,00 2.215,31 293,95 50,07 0,00 344,02 1.871,29 457,00 0,00 30/09/2013
801 297000 ENEIDA SOARES COSTA MELO ANALISTA DO MP ATIVO PIUMHI - COMARCA; PIUMHI-PJ-01PJ 8.788,36 878,84 0,00 0,00 0,00 0,00 9.667,20 1.063,39 1.575,47 0,00 2.638,86 7.028,34 457,00 0,00 30/09/2013
802 276000 ENEZIO RODRIGUES DE SOUZA FILHO OFICIAL DO MP ATIVO UBERLÂNDIA - COMARCA; UBERLANDIA-COORD CONJ-FAMÍLIA E JUIZ ESP CRIM 5.344,58 534,46 0,00 0,00 0,00 0,00 5.879,04 646,69 648,32 0,00 1.295,01 4.584,03 457,00 0,00 30/09/2013
803 387700 ENI MARIA DOS REIS OFICIAL DO MP ATIVO POUSO ALEGRE - COMARCA; POUSO ALEGRE-PJ-03PJ 4.553,46 455,35 0,00 0,00 0,00 0,00 5.008,81 550,97 388,03 0,00 939,00 4.069,81 457,00 0,00 30/09/2013
804 553700 ENIVALDO NOVATO PUBLIO ANALISTA DO MP ATIVO DIVINÓPOLIS - COMARCA; DIVINOPOLIS-PJ-09PJ 4.136,15 0,00 0,00 0,00 0,00 0,00 4.136,15 454,98 212,57 0,00 667,55 3.468,60 457,00 0,00 30/09/2013
805 417300 ERIC BARATTI DA SILVA ANALISTA DO MP ATIVO PRATA - COMARCA; PRATA-PJ-UNPJ 5.883,73 353,02 0,00 0,00 0,00 0,00 6.236,75 686,04 735,87 0,00 1.421,91 4.814,84 457,00 0,00 30/09/2013
806 398900 ERIC TEIXEIRA SILVA OFICIAL DO MP ATIVO UBERLÂNDIA - COMARCA; UBERLANDIA-PJ-08PJ 3.879,42 387,94 0,00 0,00 0,00 0,00 4.267,36 469,41 277,54 0,00 746,95 3.520,41 457,00 0,00 30/09/2013
807 274200 ERICA DE SOUZA ANDRADE OFICIAL DO MP ATIVO BELO HORIZONTE - COMARCA; BH-18PJ DIREITOS HUMANOS 5.883,73 588,37 0,00 0,00 0,00 0,00 6.472,10 711,93 698,88 0,00 1.410,81 5.061,29 457,00 0,00 30/09/2013
808 225700 ERICA GOMES DO COUTO OFICIAL DO MP ATIVO BELO HORIZONTE - COMARCA; CAO-TS-TERCEIRO SETOR-SECRETARIA 6.177,98 1.235,60 0,00 0,00 0,00 0,00 7.413,58 815,49 1.023,89 0,00 1.839,38 5.574,20 457,00 0,00 30/09/2013
809 524800 ERICA MACHADO DA COSTA E SOUZA ANALISTA DO MP ATIVO BELO HORIZONTE - COMARCA; PROC JUST RECURSOS ESP E EXTRAORD CRIMINAIS 5.176,02 0,00 0,00 0,00 0,00 0,00 5.176,02 569,36 476,25 0,00 1.045,61 4.130,41 3.562,61 284,68 30/09/2013
810 249500 ERICA RODRIGUES ANDRADE OFICIAL DO MP ATIVO SÃO FRANCISCO - COMARCA; SAO FRANCISCO-PJ-02PJ 4.409,86 881,97 0,00 0,00 0,00 0,00 5.291,83 582,10 457,30 0,00 1.039,40 4.252,43 457,00 0,00 30/09/2013
811 260800 ERICA VIANA GIARDINI DE OLIVEIRA OFICIAL DO MP ATIVO BELO HORIZONTE - COMARCA; EXTINTA - DIVISÃO DE COMPRAS 5.883,73 1.176,75 0,00 0,00 0,00 0,00 7.060,48 776,65 937,47 0,00 1.714,12 5.346,36 457,00 0,00 30/09/2013
812 299800 ERICH DOUGLAS RIBEIRO GARCIA ANALISTA DO MP ATIVO BELO HORIZONTE - COMARCA; CENTRAL DE APOIO TECNICO-SETOR CONTABIL 8.788,36 878,84 0,00 0,00 0,00 0,00 9.667,20 1.063,39 1.575,47 0,00 2.638,86 7.028,34 457,00 0,00 30/09/2013
813 365000 ERICK EDUARDO JOSE DA SILVA OFICIAL DO MP ATIVO SANTOS DUMONT - COMARCA; SANTOS DUMONT-PJ-02PJ 3.879,42 387,94 0,00 0,00 0,00 0,00 4.267,36 469,41 277,54 0,00 746,95 3.520,41 457,00 0,00 30/09/2013
814 123500 ERICO SEGISMUNDO LIMA VILASBOAS ANALISTA DO MP ATIVO MONTES CLAROS - COMARCA; COORD REG PJ DEF EDUC DIR CRIANCA ADOL NORTE 13.036,58 10.429,26 0,00 0,00 0,00 0,00 23.465,84 2.581,24 4.763,52 0,00 7.344,76 16.121,08 3.824,81 308,72 30/09/2013
815 227400 ERIKA DE LAET GOULART BOECHAT ASSESSOR/OFICIAL ATIVO BELO HORIZONTE - COMARCA; ASSESSORIA ESPECIAL DO PGJ 0,00 1.497,49 7.487,46 0,00 0,00 0,00 8.984,95 815,49 1.456,02 0,00 2.271,51 6.713,44 457,00 0,00 30/09/2013
816 451800 ERIKA DELLARETTI GUIMARAES OFICIAL DO MP ATIVO LAVRAS - COMARCA; LAVRAS-PJ-04PJ 3.469,26 208,16 0,00 0,00 0,00 0,00 3.677,42 404,52 144,54 0,00 549,06 3.128,36 457,00 0,00 30/09/2013
817 285100 ERIKA FERREIRA DA SILVA OFICIAL DO MP ATIVO JUIZ DE FORA - COMARCA; JUIZ DE FORA-PJ-14PJ 5.883,73 588,37 0,00 0,00 0,00 0,00 6.472,10 711,93 793,47 0,00 1.505,40 4.966,70 457,00 0,00 30/09/2013
818 420100 ERIKA JEANINE VERSIANI DE CASTRO ANALISTA DO MP ATIVO MONTES CLAROS - COMARCA; COORD REG PJ DEF EDUC DIR CRIANCA ADOL NORTE 6.379,14 382,75 0,00 0,00 0,00 0,00 6.761,89 807,56 958,96 0,00 1.766,52 4.995,37 457,00 579,60 30/09/2013
819 491000 ERIKA ROCHA PEREIRA E SILVA ANALISTA DO MP ATIVO BELO HORIZONTE - COMARCA; DIRETORIA DE SISTEMAS DE INFORMACAO 5.698,20 0,00 0,00 0,00 0,00 0,00 5.698,20 626,80 604,06 0,00 1.230,86 4.467,34 457,00 0,00 30/09/2013
820 283201 ERIKA STEHLING ASSESSOR/ANALISTA ATIVO BELO HORIZONTE - COMARCA; CENTRAL DE APOIO TECNICO-SETOR DE ENGENHARIA 0,00 0,00 7.487,46 0,00 0,00 0,00 7.487,46 626,80 1.001,52 0,00 1.628,32 5.859,14 457,00 0,00 30/09/2013
821 383500 ERIKO RODRIGUES VELOSO ANALISTA DO MP ATIVO BOCAIÚVA - COMARCA; BOCAIUVA-PJ-01PJ 5.518,54 551,85 0,00 0,00 0,00 0,00 6.070,39 667,74 695,15 0,00 1.362,89 4.707,50 457,00 0,00 30/09/2013
822 254000 ERLANDIA DA SILVA MENDES OFICIAL DO MP ATIVO IPATINGA - COMARCA; IPATINGA-PJ-03PJ 5.698,20 1.709,46 0,00 0,00 0,00 0,00 7.407,66 821,83 896,11 0,00 1.717,94 5.689,72 692,00 63,50 30/09/2013
823 208600 ERNANE JOSE DA COSTA ANALISTA DO MP ATIVO BELO HORIZONTE - COMARCA; CENTRAL DE APOIO TECNICO-SETOR MEDICO 12.062,58 6.031,29 0,00 0,00 0,00 0,00 18.093,87 1.990,33 3.637,89 0,00 5.628,22 12.465,65 457,00 0,00 30/09/2013
824 260600 ERNANI CALDEIRA DE ANDRADE ANALISTA DO MP ATIVO BELO HORIZONTE - COMARCA; CENTRAL DE APOIO TECNICO-SETOR CONTABIL 9.674,93 1.934,99 0,00 0,00 0,00 0,00 11.609,92 1.277,09 2.050,95 0,00 3.328,04 8.281,88 457,00 0,00 30/09/2013
825 348500 ERNILANDIA OLIVEIRA DIAS OFICIAL DO MP ATIVO BELO HORIZONTE - COMARCA; EXTINTA - JUIZO DE FAMILIA-02 PJ-02 VARA 4.553,46 455,35 0,00 0,00 0,00 0,00 5.008,81 550,97 435,33 0,00 986,30 4.022,51 457,00 0,00 30/09/2013
826 199300 ERTON PORTINARI DE ANDRADE OFICIAL DO MP ATIVO SETE LAGOAS - COMARCA; SETE LAGOAS-PJ-01PJ 7.487,46 2.246,24 0,00 0,00 0,00 0,00 9.733,70 1.162,48 1.701,35 0,00 2.863,83 6.869,87 457,00 834,30 30/09/2013
827 430400 ESDRAS SOARES VILAS BOAS RIBEIRO OFICIAL DO MP ATIVO BELO HORIZONTE - COMARCA; BH-17PJ PATRIMONIO PUBLICO-SECRETARIA 4.136,15 248,17 0,00 0,00 0,00 0,00 4.384,32 482,28 300,96 0,00 783,24 3.601,08 457,00 0,00 30/09/2013
828 537000 ESTANISLAU CORREIA ALMEIDA JUNIOR OFICIAL DO MP ATIVO UBERLÂNDIA - COMARCA; UBERLANDIA-PJ-04PJ 2.684,83 0,00 0,00 0,00 0,00 0,00 2.684,83 295,33 50,90 0,00 346,23 2.338,60 457,00 0,00 30/09/2013
829 326900 ESTER ALICE PIMENTA OFICIAL DO MP ATIVO BELO HORIZONTE - COMARCA; COORD DE INCLUSAO E MOBILIZACAO SOCIAIS 4.409,86 440,99 0,00 0,00 0,00 0,00 4.850,85 561,04 410,43 0,00 971,47 3.879,38 457,00 249,48 30/09/2013
830 503700 ESTHER GONCALVES FONSECA ANALISTA DO MP ATIVO BELO HORIZONTE - COMARCA; DIRETORIA DE PUBLICIDADE INSTITUCIONAL 4.270,85 0,00 0,00 0,00 0,00 0,00 4.270,85 469,79 278,24 0,00 748,03 3.522,82 457,00 0,00 30/09/2013
831 475600 ETIENE DE FATIMA OLIVEIRA PEREIRA ANALISTA DO MP ATIVO PATROCÍNIO - COMARCA; PATROCINIO-PJ-04PJ 5.698,20 0,00 0,00 0,00 0,00 0,00 5.698,20 626,80 556,76 0,00 1.183,56 4.514,64 457,00 0,00 30/09/2013
832 428800 EUGENIA RODRIGUES TRAJANO BORGES ANALISTA DO MP ATIVO UBERABA - COMARCA; UBERABA-PJ-08PJ 6.379,14 382,75 0,00 0,00 0,00 0,00 6.761,89 743,81 864,39 0,00 1.608,20 5.153,69 457,00 0,00 30/09/2013
833 272700 EUGENIO DE BARCELOS FILHO OFICIAL DO MP ATIVO FRUTAL - COMARCA; FRUTAL-PJ-02PJ 4.553,46 455,35 0,00 0,00 0,00 0,00 5.008,81 598,19 493,11 0,00 1.091,30 3.917,51 457,00 429,30 30/09/2013
834 254100 EULALIA ALVES MIRANDA LUCAS OFICIAL DO MP ATIVO ALMENARA - COMARCA; ALMENARA-PJ-SECRETARIA 5.883,73 1.176,75 0,00 0,00 0,00 0,00 7.060,48 776,65 795,60 0,00 1.572,25 5.488,23 457,00 0,00 30/09/2013
835 557900 EURIPEDES JUSUE PERES OFICIAL DO MP ATIVO IBIÁ - COMARCA; IBIA-PJ-UNPJ 2.684,83 0,00 0,00 0,00 0,00 0,00 2.684,83 295,33 50,90 0,00 346,23 2.338,60 457,00 678,00 30/09/2013
836 225800 EURO CESAR VIEIRA BARBOSA ANALISTA DO MP ATIVO BELO HORIZONTE - COMARCA; AUDITORIA INTERNA 10.315,17 2.063,03 0,00 0,00 0,00 0,00 12.378,20 1.361,60 2.144,40 0,00 3.506,00 8.872,20 927,00 0,00 30/09/2013
837 199400 EUSTAQUIO ADAILTON LIMA E SILVA OFICIAL DO MP ATIVO MANGA - COMARCA; MANGA-PJ-01PJ 7.731,26 3.092,51 0,00 0,00 0,00 0,00 10.823,77 1.190,61 1.669,37 0,00 2.859,98 7.963,79 692,00 0,00 30/09/2013
838 249000 EUSTAQUIO GOMES DE OLIVEIRA OFICIAL DO MP ATIVO BELO HORIZONTE - COMARCA; CAO-TS-CONTROLADORIA E APOIO AS ENTIDADES  5.883,73 2.353,49 0,00 0,00 0,00 0,00 8.237,22 906,09 1.178,19 0,00 2.084,28 6.152,94 457,00 54,15 30/09/2013
839 67100 EVA DAS DORES BARROS VALGAS ANALISTA DO MP ATIVO FERROS - COMARCA; FERROS-PJ-SECRETARIA 12.540,10 8.778,07 0,00 0,00 0,00 0,00 21.318,17 2.345,00 4.285,17 0,00 6.630,17 14.688,00 457,00 0,00 30/09/2013
840 548000 EVA VILMA LEAO DOS REIS JULIO OFICIAL DO MP ATIVO BELO HORIZONTE - COMARCA; BH-15PJ M AMB 16PJ HAB URB-SECRETARIA 2.684,83 536,97 0,00 0,00 0,00 0,00 3.221,80 472,53 283,22 0,00 755,75 2.466,05 457,00 1.073,94 30/09/2013
841 517000 EVALDO SENA COSTA FILHO ANALISTA DO MP ATIVO CONTAGEM - COMARCA; CONTAGEM-PJ-21PJ 5.176,02 1.035,20 0,00 0,00 0,00 0,00 6.211,22 683,23 587,74 0,00 1.270,97 4.940,25 692,00 0,00 30/09/2013
842 217500 EVELANGE LEAO RABELO ASSESSOR ATIVO BELO HORIZONTE - COMARCA; COORD EST DEF DIR FAMILIA PESSOA DEFICI IDOSO 0,00 443,06 2.215,31 0,00 0,00 0,00 2.658,37 342,69 95,30 0,00 437,99 2.220,38 457,00 0,00 30/09/2013
843 540400 EVIE SARAMELLA DE RESENDE OFICIAL DO MP ATIVO BARBACENA - COMARCA; BARBACENA-PJ-01PJ 2.684,83 0,00 0,00 0,00 0,00 0,00 2.684,83 320,64 68,54 0,00 389,18 2.295,65 457,00 230,10 30/09/2013
844 469000 EWERTON CARDOSO DE SA RODRIGUES ANALISTA DO MP ATIVO CAMPO BELO - COMARCA; CAMPO BELO-PJ-01PJ 5.698,20 0,00 0,00 0,00 0,00 0,00 5.698,20 626,80 556,76 0,00 1.183,56 4.514,64 457,00 0,00 30/09/2013
845 368900 FABIANA BARBOSA SIQUEIRA OFICIAL DO MP ATIVO BELO HORIZONTE - COMARCA; CAO-ORDEM ECONOMICA E TRIBUTARIA-SECRETARIA 4.854,78 485,48 0,00 0,00 0,00 0,00 5.340,26 587,43 469,16 0,00 1.056,59 4.283,67 692,00 0,00 30/09/2013
846 273800 FABIANA CARNEIRO AMORIM COORDENADOR/OFICIAL ATIVO BELO HORIZONTE - COMARCA; BH-23PJ INFRACIONAL-COORD ADM INFRACIONAL 0,00 1.702,24 8.511,21 0,00 0,00 0,00 10.213,45 776,86 1.943,96 0,00 2.720,82 7.492,63 457,00 851,12 30/09/2013
847 519300 FABIANA DE OLIVEIRA LOUREIRO ANALISTA DO MP ATIVO BELO HORIZONTE - COMARCA; BH-09PJ AUDITORIA MILITAR 5.176,02 0,00 0,00 0,00 0,00 0,00 5.176,02 569,36 476,25 0,00 1.045,61 4.130,41 457,00 0,00 30/09/2013
848 363400 FABIANA DOURADO DUPIN VIEGAS ANALISTA DO MP ATIVO BELO HORIZONTE - COMARCA; PROC. JUSTICA DE HABEAS CORPUS 7.731,26 773,13 0,00 0,00 0,00 0,00 8.504,39 935,48 1.243,58 0,00 2.179,06 6.325,33 692,00 0,00 30/09/2013
849 410800 FABIANA DUARTE QUITITE ANALISTA DO MP ATIVO BELO HORIZONTE - COMARCA; COORD ESTADUAL COMBATE CRIMES CIBERNETICOS 6.379,14 382,75 0,00 0,00 0,00 0,00 6.761,89 743,81 864,39 0,00 1.608,20 5.153,69 457,00 0,00 30/09/2013
850 419500 FABIANA EULALIA DOS SANTOS ANALISTA DO MP ATIVO SÃO JOÃO DEL REI - COMARCA; SAO JOAO DEL REI-PJ-01PJ 6.379,14 382,75 0,00 0,00 0,00 0,00 6.761,89 807,56 1.006,25 0,00 1.813,81 4.948,08 3.833,47 889,11 30/09/2013
851 376300 FABIANA MATTOSO LEMOS ANALISTA DO MP ATIVO BELO HORIZONTE - COMARCA; COORD-GERAL DAS PJS POR BACIA HIDRO. DE MG 6.586,88 658,69 0,00 0,00 0,00 0,00 7.245,57 797,01 982,77 0,00 1.779,78 5.465,79 457,00 0,00 30/09/2013
852 331500 FABIANA PACHECO OFICIAL DO MP ATIVO GUAXUPÉ - COMARCA; GUAXUPE-PJ-01PJ 4.854,78 485,48 0,00 0,00 0,00 0,00 5.340,26 587,43 421,86 0,00 1.009,29 4.330,97 457,00 0,00 30/09/2013
853 510700 FABIANA PEREIRA SANTOS BORGES ANALISTA DO MP ATIVO BELO HORIZONTE - COMARCA; DIRETORIA DE SISTEMAS DE INFORMACAO 4.701,73 0,00 0,00 0,00 0,00 0,00 4.701,73 517,19 325,83 0,00 843,02 3.858,71 692,00 0,00 30/09/2013
854 181700 FABIANA SOUZA FERREIRA OFICIAL DO MP ATIVO BELO HORIZONTE - COMARCA; BH-19PJ SAUDE 4.136,15 827,23 0,00 0,00 0,00 0,00 4.963,38 545,97 339,53 0,00 885,50 4.077,88 692,00 0,00 30/09/2013
855 272900 FABIANA STOCKLER LEITE OFICIAL DO MP ATIVO LAJINHA - COMARCA; LAJINHA-PJ-SECRETARIA 5.344,58 1.603,37 0,00 0,00 0,00 0,00 6.947,95 764,27 815,35 0,00 1.579,62 5.368,33 735,52 0,00 30/09/2013
856 225500 FABIANE DE FATIMA PORTELLA ANALISTA DO MP ATIVO BELO HORIZONTE - COMARCA; SERVICO MEDICO-DEPTO PERIC MEDICA SAUDE OCUP 9.989,93 1.997,99 0,00 0,00 0,00 0,00 11.987,92 1.318,67 2.143,46 0,00 3.462,13 8.525,79 457,00 0,00 30/09/2013
857 433800 FABIANE DINIZ MATTOS ANALISTA DO MP ATIVO BELO HORIZONTE - COMARCA; BH-23PJ INFRACIONAL-ASS JURIDICA 6.379,14 382,75 0,00 0,00 0,00 0,00 6.761,89 782,06 949,51 0,00 1.731,57 5.030,32 457,00 347,76 30/09/2013
858 455000 FABIANO CARVALHO DA SILVA ANALISTA DO MP ATIVO LAVRAS - COMARCA; COORD REG DO MA DA BACIA DO RIO GRANDE 5.883,73 353,02 0,00 0,00 2.078,92 0,00 8.315,67 686,04 1.307,57 0,00 1.993,61 6.322,06 457,00 0,00 30/09/2013
859 498800 FABIANO FURTADO PESSOA COELHO ANALISTA DO MP ATIVO BELO HORIZONTE - COMARCA; DIRETORIA DE REDES E BANCOS DE DADOS 5.176,02 0,00 0,00 0,00 0,00 0,00 5.176,02 714,80 752,56 0,00 1.467,36 3.708,66 927,00 1.322,17 30/09/2013
860 394600 FABIANO PALHARES SILVA ANALISTA DO MP ATIVO BELO HORIZONTE - COMARCA; CENTRAL DE APOIO TECN-SETOR DE MEIO AMBIENTE 6.586,88 658,69 0,00 0,00 0,00 0,00 7.245,57 797,01 935,48 0,00 1.732,49 5.513,08 692,00 0,00 30/09/2013
861 444400 FABIANO SARAIVA MEDEIROS ANALISTA DO MP ATIVO BETIM - COMARCA; BETIM-PJ-11PJ 5.883,73 353,02 0,00 0,00 0,00 0,00 6.236,75 686,04 688,57 0,00 1.374,61 4.862,14 692,00 0,00 30/09/2013
862 408700 FABIANO SOARES PORTILHO ANALISTA DO MP ATIVO VIÇOSA - COMARCA; VICOSA-PJ-02PJ 6.379,14 382,75 0,00 0,00 0,00 0,00 6.761,89 743,81 864,39 0,00 1.608,20 5.153,69 457,00 0,00 30/09/2013
863 384301 FABIO BRUNO DA SILVA ANALISTA DO MP ATIVO BONFIM - COMARCA; BONFIM-PJ-UNPJ 5.883,73 353,02 0,00 0,00 0,00 0,00 6.236,75 686,04 735,87 0,00 1.421,91 4.814,84 457,00 0,00 30/09/2013
864 442600 FABIO CARVALHO ANALISTA DO MP ATIVO BELO HORIZONTE - COMARCA; BH-09PJ AUDITORIA MILITAR 4.854,78 291,29 0,00 0,00 0,00 0,00 5.146,07 566,07 468,92 0,00 1.034,99 4.111,08 457,00 0,00 30/09/2013
865 123700 FABIO JOSE ANDRADE NOGUEIRA OFICIAL DO MP ATIVO FORMIGA - COMARCA; FORMIGA-PJ-SECRETARIA 7.022,72 4.915,91 0,00 0,00 0,00 0,00 11.938,63 1.313,25 1.197,06 0,00 2.510,31 9.428,32 457,00 0,00 30/09/2013
866 240101 FABIO JUNQUEIRA DE ASSIS FONSECA OFICIAL DO MP ATIVO BELO HORIZONTE - COMARCA; BH-17PJ PATRIMONIO PUBLICO 3.757,11 375,71 0,00 0,00 0,00 0,00 4.132,82 454,61 250,60 0,00 705,21 3.427,61 457,00 0,00 30/09/2013
867 271500 FABIO LUIZ VIEIRA OFICIAL DO MP ATIVO SANTA VITÓRIA - COMARCA; SANTA VITORIA-PJ-UNPJ 4.701,73 940,35 0,00 0,00 0,00 0,00 5.642,08 784,31 812,63 0,00 1.596,94 4.045,14 554,20 1.487,98 30/09/2013
868 213100 FABIO PRATES GONCALVES ASSESSOR ATIVO BELO HORIZONTE - COMARCA; DIRETORIA DE RELACOES PUBLICAS E CERIMONIAL 0,00 739,76 3.698,79 0,00 0,00 0,00 4.438,55 457,49 344,18 0,00 801,67 3.636,88 692,00 0,00 30/09/2013
869 436700 FABIO SANTIAGO DE CARVALHO OFICIAL DO MP ATIVO POÇO FUNDO - COMARCA; POCO FUNDO-PJ-UNPJ 4.136,15 248,17 0,00 0,00 0,00 0,00 4.384,32 523,61 376,21 0,00 899,82 3.484,50 457,00 375,80 30/09/2013
870 208400 FABIOLA DE SOUSA CARDOSO ASSESSOR/ANALISTA ATIVO BELO HORIZONTE - COMARCA; ASSESS TECNICA DA CORREGEDORIA-GERAL DO MP 11.161,27 4.047,14 0,00 0,00 0,00 0,00 15.208,41 1.473,29 2.986,58 0,00 4.459,87 10.748,54 457,00 0,00 30/09/2013
871 392200 FABIOLA LEROY COSTA ANALISTA DO MP ATIVO ESMERALDAS - COMARCA; ESMERALDAS-PJ-01PJ 5.518,54 551,85 0,00 0,00 0,00 0,00 6.070,39 667,74 695,15 0,00 1.362,89 4.707,50 457,00 0,00 30/09/2013
872 409000 FABIOLA MONTEIRO DE CARVALHO CASTRO ANALISTA DO MP ATIVO BOM SUCESSO - COMARCA; BOM SUCESSO-PJ-UNPJ 6.379,14 382,75 0,00 0,00 0,00 0,00 6.761,89 743,81 864,39 0,00 1.608,20 5.153,69 457,00 0,00 30/09/2013
873 227900 FABIOLA PIMENTA DE CARVALHO OFICIAL DO MP ATIVO MONTES CLAROS - COMARCA; COORD REG BACIA RIOS VERDE GRANDE E PARDO 4.854,78 970,96 0,00 0,00 0,00 0,00 5.825,74 640,83 587,98 0,00 1.228,81 4.596,93 457,00 0,00 30/09/2013
874 525800 FABRICIA ALVES DANTAS OFICIAL DO MP ATIVO MONTES CLAROS - COMARCA; MONTES CLAROS-PJ-02PJ 3.359,85 0,00 0,00 0,00 0,00 0,00 3.359,85 369,58 76,35 0,00 445,93 2.913,92 692,00 0,00 30/09/2013
875 263400 FABRICIA PINTO TEIXEIRA SANTIAGO OFICIAL DO MP ATIVO BELO HORIZONTE - COMARCA; CAO-TS-TERCEIRO SETOR-SECRETARIA 5.883,73 1.176,75 0,00 0,00 0,00 0,00 7.060,48 776,65 842,89 0,00 1.619,54 5.440,94 692,00 0,00 30/09/2013
876 420800 FABRICIO BERNARDES DE OLIVEIRA OFICIAL DO MP ATIVO ITURAMA - COMARCA; ITURAMA-PJ-02PJ 4.136,15 248,17 0,00 0,00 0,00 0,00 4.384,32 523,61 337,52 0,00 861,13 3.523,19 533,56 375,80 30/09/2013
877 474000 FABRICIO DE FREITAS SALES ANALISTA DO MP ATIVO BUENÓPOLIS - COMARCA; BUENOPOLIS-PJ-UNPJ 5.698,20 0,00 0,00 0,00 0,00 0,00 5.698,20 680,53 723,59 0,00 1.404,12 4.294,08 692,00 488,40 30/09/2013
878 510100 FABRICIO FURTADO ASSIS DO CARMO ANALISTA DO MP ATIVO BELO HORIZONTE - COMARCA; SERVICO MEDICO-DEPTO PERIC MEDICA SAUDE OCUP 4.701,73 0,00 0,00 0,00 0,00 0,00 4.701,73 517,19 364,52 0,00 881,71 3.820,02 457,00 0,00 30/09/2013
879 519600 FABRICIO GONTIJO SALVATI ANALISTA DO MP ATIVO JUIZ DE FORA - COMARCA; JUIZ DE FORA-PJ-13PJ 5.176,02 0,00 0,00 0,00 0,00 0,00 5.176,02 569,36 476,25 0,00 1.045,61 4.130,41 457,00 0,00 30/09/2013
880 428200 FABRICIO ORZIL VIANA ANALISTA DO MP ATIVO SANTA LUZIA - COMARCA; SANTA LUZIA-PJ-04PJ 5.883,73 353,02 0,00 0,00 0,00 0,00 6.236,75 686,04 735,87 0,00 1.421,91 4.814,84 457,00 0,00 30/09/2013
881 455600 FABRICIO PAIVA DA ROCHA ANALISTA DO MP ATIVO ANDRELÂNDIA - COMARCA; ANDRELANDIA-PJ-UNPJ 5.883,73 353,02 0,00 0,00 0,00 0,00 6.236,75 803,05 1.013,79 0,00 1.816,84 4.419,91 2.951,70 1.528,29 30/09/2013
882 511500 FABRICIO RENE CARDOSO DE PADUA ANALISTA DO MP ATIVO SÃO SEBASTIÃO DO PARAÍSO - COMARCA; SAO SEBASTIAO DO PARAISO-PJ-03PJ 4.701,73 0,00 0,00 0,00 0,00 0,00 4.701,73 517,19 364,52 0,00 881,71 3.820,02 457,00 0,00 30/09/2013
883 496100 FABRICIO RESENDE GONCALVES OFICIAL DO MP ATIVO ENTRE-RIOS DE MINAS - COMARCA; ENTRE RIOS DE MINAS-PJ-UNPJ 3.359,85 0,00 0,00 0,00 0,00 0,00 3.359,85 437,32 219,12 0,00 656,44 2.703,41 457,00 615,78 30/09/2013
884 514900 FADUA MARIA DRUMOND CHEQUER MAGNO ANALISTA DO MP ATIVO ALMENARA - COMARCA; COORD REG INCLUSAO MOBILIZ VALE JEQUITINHONHA 5.176,02 0,00 0,00 0,00 0,00 0,00 5.176,02 569,36 476,25 0,00 1.045,61 4.130,41 457,00 0,00 30/09/2013
885 282500 FANNY FERREIRA MELO FAVERO DE FRAVET OFICIAL DO MP ATIVO ARAXÁ - COMARCA; ARAXA-PJ-02PJ 4.553,46 455,35 0,00 0,00 0,00 0,00 5.008,81 655,66 668,26 0,00 1.323,92 3.684,89 927,00 951,71 30/09/2013
886 540100 FATIMA CRISTINA POVOA DA COSTA OFICIAL DO MP ATIVO BELO HORIZONTE - COMARCA; BH-18PJ VIOLENCIA DOMESTICA-SECRETARIA 2.684,83 536,97 0,00 0,00 0,00 0,00 3.221,80 354,40 109,51 0,00 463,91 2.757,89 457,00 0,00 30/09/2013
887 382800 FATIMA DE OLIVEIRA COELHO E SILVA OFICIAL DO MP ATIVO BELO HORIZONTE - COMARCA; DIRETORIA DE ADMINISTRACAO FINANCEIRA 3.582,21 358,22 0,00 0,00 0,00 0,00 3.940,43 433,45 179,65 0,00 613,10 3.327,33 457,00 0,00 30/09/2013
888 398601 FELIPE ANTONIO HORTA DE PAULA ANALISTA DO MP ATIVO BELO HORIZONTE - COMARCA; PROC. JUSTICA DIR. DIFUSOS E COLETIVOS-SEC 4.553,46 0,00 0,00 0,00 0,00 0,00 4.553,46 500,88 334,83 0,00 835,71 3.717,75 457,00 0,00 30/09/2013
889 529200 FELIPE AUGUSTO NASCIMENTO PEREIRA ASSESSOR ATIVO UBERABA - COMARCA; COORD REG PP TRIANGULO MINEIRO UBERABA 0,00 0,00 3.698,79 0,00 0,00 0,00 3.698,79 457,14 255,20 0,00 712,34 2.986,45 457,00 0,00 30/09/2013
890 430900 FELIPE BOY VIEIRA ANALISTA DO MP ATIVO BELO HORIZONTE - COMARCA; CAO-DH APOIO COMUNITARIO-SEC ADM 6.379,14 382,75 0,00 0,00 0,00 0,00 6.761,89 743,81 864,39 0,00 1.608,20 5.153,69 457,00 0,00 30/09/2013
891 549100 FELIPE FERNANDES ALVIM ANALISTA DO MP ATIVO LAJINHA - COMARCA; LAJINHA-PJ-UNPJ 4.136,15 0,00 0,00 0,00 0,00 0,00 4.136,15 454,98 251,26 0,00 706,24 3.429,91 457,00 0,00 30/09/2013
892 487300 FELIPE FERNANDES SILVEIRA ASSESSOR ATIVO BELO HORIZONTE - COMARCA; DIRETORIA DE MANUTENCAO PREDIAL 0,00 0,00 2.215,31 0,00 738,44 0,00 2.953,75 293,95 146,92 0,00 440,87 2.512,88 457,00 0,00 30/09/2013
893 601600 FELIPE RODRIGUES DE SIQUEIRA ANALISTA DO MP ATIVO BELO HORIZONTE - COMARCA; BH-02PJ FAMILIA 3.722,54 0,00 0,00 0,00 0,00 0,00 3.722,54 409,48 176,36 0,00 585,84 3.136,70 415,45 0,00 30/09/2013
894 544500 FELLIPE LEMOS MARCONDES BUENO ANALISTA DO MP ATIVO SÃO SEBASTIÃO DO PARAÍSO - COMARCA; SAO SEBASTIAO DO PARAISO-PJ-04PJ 4.136,15 0,00 0,00 0,00 0,00 0,00 4.136,15 454,98 251,26 0,00 706,24 3.429,91 457,00 0,00 30/09/2013
895 508400 FERNANDA AGANETTI MATTOS DE OLIVEIRA ANALISTA DO MP ATIVO BELO HORIZONTE - COMARCA; BH-19PJ SAUDE 5.176,02 0,00 0,00 0,00 0,00 0,00 5.176,02 569,36 476,25 0,00 1.045,61 4.130,41 457,00 0,00 30/09/2013
896 453600 FERNANDA ALBERNAZ RABELO ANALISTA DO MP ATIVO BELO HORIZONTE - COMARCA; ASSESS TECNICO-JUR JUNTO AS PROC. DE JUST 5.883,73 353,02 0,00 0,00 0,00 0,00 6.236,75 686,04 735,87 0,00 1.421,91 4.814,84 457,00 0,00 30/09/2013
897 255600 FERNANDA ALINA DE ALMEIDA ANDRADE OFICIAL DO MP ATIVO BELO HORIZONTE - COMARCA; DIR ESTRUTURA E PROCESSOS ORGANIZACIONAIS 5.344,58 1.068,92 0,00 0,00 0,00 0,00 6.413,50 705,49 779,12 0,00 1.484,61 4.928,89 457,00 0,00 30/09/2013
898 443200 FERNANDA ALMEIDA LOPES ANALISTA DO MP ATIVO CONTAGEM - COMARCA; CONTAGEM-PJ-23PJ 5.883,73 353,02 0,00 0,00 0,00 0,00 6.236,75 744,85 866,71 0,00 1.611,56 4.625,19 457,00 534,60 30/09/2013
899 281100 FERNANDA ANANIAS MEIRA ANALISTA DO MP ATIVO BELO HORIZONTE - COMARCA; BH-23PJ INFRACIONAL-ASS JURIDICA 8.788,36 878,84 0,00 0,00 0,00 0,00 9.667,20 1.172,77 1.818,83 0,00 2.991,60 6.675,60 457,00 994,32 30/09/2013
900 539000 FERNANDA BARBOSA ALVES ANALISTA DO MP ATIVO CANÁPOLIS - COMARCA; CANAPOLIS-PJ-SECRETARIA 4.553,46 0,00 0,00 0,00 0,00 0,00 4.553,46 560,99 457,61 0,00 1.018,60 3.534,86 457,00 546,42 30/09/2013
901 451200 FERNANDA BLOISE PRADO OFICIAL DO MP ATIVO BELO HORIZONTE - COMARCA; NUCLEO DE NEGOCIACAO DE CONFLITOS AMBIENTAIS 3.469,26 208,16 0,00 0,00 0,00 0,00 3.677,42 404,52 170,34 0,00 574,86 3.102,56 457,00 0,00 30/09/2013
902 427900 FERNANDA BRAGA CARNEIRO BICALHO ANALISTA DO MP ATIVO PEÇANHA - COMARCA; PECANHA-PJ-SECRETARIA 6.379,14 382,75 0,00 0,00 0,00 0,00 6.761,89 743,81 817,10 0,00 1.560,91 5.200,98 457,00 0,00 30/09/2013
903 507100 FERNANDA CABRINI VAZ MOTA ANALISTA DO MP ATIVO BELO HORIZONTE - COMARCA; ASSESSORIA JURIDICO-ADMINISTRATIVA 4.701,73 0,00 0,00 0,00 0,00 0,00 4.701,73 561,53 458,83 0,00 1.020,36 3.681,37 457,00 403,10 30/09/2013
904 259800 FERNANDA CALZAVARA DE SOUSA COORDENADOR/OFICIAL ATIVO BELO HORIZONTE - COMARCA; DIRET DE FORMACAO, APERFEIC. E POS-GRADUACAO 0,00 1.934,99 9.674,93 0,00 0,00 0,00 11.609,92 752,16 2.195,30 0,00 2.947,46 8.662,46 457,00 0,00 30/09/2013
905 550300 FERNANDA CAMARGOS CALDEIRA BRANT ANALISTA DO MP ATIVO CONTAGEM - COMARCA; CONTAGEM-PJ-10PJ 4.553,46 0,00 0,00 0,00 0,00 0,00 4.553,46 500,88 334,83 0,00 835,71 3.717,75 457,00 0,00 30/09/2013
906 494400 FERNANDA CAMPOS BARATA OFICIAL DO MP ATIVO JUIZ DE FORA - COMARCA; JUIZ DE FORA-PJ-SECRETARIA 3.051,96 0,00 0,00 0,00 0,00 0,00 3.051,96 335,72 86,84 0,00 422,56 2.629,40 692,00 0,00 30/09/2013
907 555600 FERNANDA CAROLINE RIBEIRO ANALISTA DO MP ATIVO BELO HORIZONTE - COMARCA; EXTINTA - DIRETORIA DE CONTRATOS E CONVÊNIOS 4.553,46 0,00 0,00 0,00 0,00 0,00 4.553,46 500,88 334,83 0,00 835,71 3.717,75 457,00 0,00 30/09/2013
908 294500 FERNANDA COSTA FLORES OFICIAL DO MP ATIVO PARÁ DE MINAS - COMARCA; PARA DE MINAS-PJ-04PJ 5.883,73 588,37 0,00 0,00 0,00 0,00 6.472,10 711,93 746,18 0,00 1.458,11 5.013,99 457,00 0,00 30/09/2013
909 344500 FERNANDA CRISTINA DE SOUZA PAZ ASSESSOR ATIVO BELO HORIZONTE - COMARCA; CENTRAL DE APOIO TECN-SETOR DE MEIO AMBIENTE 0,00 0,00 3.698,79 0,00 0,00 0,00 3.698,79 457,14 182,61 0,00 639,75 3.059,04 927,00 0,00 30/09/2013
910 538100 FERNANDA CRISTINA DOS SANTOS ROSA MOREIRA OFICIAL DO MP ATIVO RIBEIRÃO DAS NEVES - COMARCA; RIBEIRAO DAS NEVES-PJ-SEC CIVEL 2.684,83 0,00 0,00 0,00 0,00 0,00 2.684,83 295,33 50,90 0,00 346,23 2.338,60 457,00 0,00 30/09/2013
911 337800 FERNANDA CRISTINA REIS ROLAND CLIMACO DA SILVA ASSESSOR/OFICIAL ATIVO BELO HORIZONTE - COMARCA; DIRETORIA-GERAL 0,00 824,28 8.242,82 0,00 0,00 0,00 9.067,10 626,30 1.530,64 0,00 2.156,94 6.910,16 457,00 0,00 30/09/2013
912 545400 FERNANDA CUNHA GUIMARAES ANALISTA DO MP ATIVO BELO HORIZONTE - COMARCA; EXTINTA - COORD DEFESA DO DIREITO DE FAMILIA 4.136,15 0,00 0,00 0,00 0,00 0,00 4.136,15 454,98 212,57 0,00 667,55 3.468,60 457,00 0,00 30/09/2013
913 429801 FERNANDA CUNHA PINHEIRO DA SILVA ANALISTA DO MP ATIVO BELO HORIZONTE - COMARCA; DIRETORIA DE PRODUCAO EDITORIAL 4.701,73 0,00 0,00 0,00 0,00 0,00 4.701,73 517,19 364,52 0,00 881,71 3.820,02 457,00 0,00 30/09/2013
914 408000 FERNANDA DAS NEVES RAMOS ANALISTA DO MP ATIVO BELO HORIZONTE - COMARCA; CENTRAL DE APOIO TECNICO-SETOR CONTABIL 6.379,14 382,75 0,00 0,00 0,00 0,00 6.761,89 743,81 864,39 0,00 1.608,20 5.153,69 457,00 0,00 30/09/2013
915 496000 FERNANDA DE ALMEIDA VIANA ANALISTA DO MP ATIVO BELO HORIZONTE - COMARCA; PROC JUST RECURSOS ESP E EXTRAORD CRIMINAIS 5.698,20 0,00 0,00 0,00 0,00 0,00 5.698,20 735,94 846,88 0,00 1.582,82 4.115,38 3.833,47 1.301,65 30/09/2013
916 266700 FERNANDA DE CASTRO LUCAS ASSESSOR/OFICIAL ATIVO BELO HORIZONTE - COMARCA; DIRET DE DESENV DE RECURSOS HUMANOS-DDRH 0,00 1.497,49 7.487,46 0,00 0,00 0,00 8.984,95 776,65 1.466,70 0,00 2.243,35 6.741,60 457,00 0,00 30/09/2013
917 433200 FERNANDA DE FIGUEIREDO NORTE ANALISTA DO MP ATIVO BELO HORIZONTE - COMARCA; ASSESS JUR DO CONS SUPERIOR DO MINISTERIO PUB 6.379,14 382,75 0,00 0,00 0,00 0,00 6.761,89 743,81 864,39 0,00 1.608,20 5.153,69 692,00 0,00 30/09/2013
918 419200 FERNANDA DE MIRANDA MARTINS SIMOES ANALISTA DO MP ATIVO UBERLÂNDIA - COMARCA; UBERLANDIA-PJ-19PJ 6.379,14 382,75 0,00 0,00 0,00 0,00 6.761,89 743,81 864,39 0,00 1.608,20 5.153,69 1.137,66 62,39 30/09/2013
919 441400 FERNANDA DE MORAIS PINTO ANALISTA DO MP ATIVO BELO HORIZONTE - COMARCA; PROC. JUSTICA DIR. DIFUSOS E COLETIVOS-SEC 5.883,73 353,02 0,00 0,00 0,00 0,00 6.236,75 686,04 735,87 0,00 1.421,91 4.814,84 457,00 0,00 30/09/2013
920 432200 FERNANDA DE MOURA GUIMARAES ANALISTA DO MP ATIVO BELO HORIZONTE - COMARCA; ASSESS TECNICO-JUR JUNTO AS PROC. DE JUST 6.379,14 382,75 0,00 0,00 0,00 0,00 6.761,89 743,81 864,39 0,00 1.608,20 5.153,69 457,00 0,00 30/09/2013
921 461800 FERNANDA DE OLIVEIRA SANTOS ANALISTA DO MP ATIVO JUIZ DE FORA - COMARCA; JUIZ DE FORA-PJ-21PJ 5.698,20 0,00 0,00 0,00 0,00 0,00 5.698,20 626,80 604,06 0,00 1.230,86 4.467,34 457,00 0,00 30/09/2013
922 432500 FERNANDA DE PAULA ABRANTES ANALISTA DO MP ATIVO BELO HORIZONTE - COMARCA; PROC JUST RECURSOS ESP E EXTRAORD CRIMINAIS 6.379,14 382,75 0,00 0,00 0,00 0,00 6.761,89 743,81 864,39 0,00 1.608,20 5.153,69 457,00 0,00 30/09/2013
923 431600 FERNANDA DIAS BARBOSA MENEZES ANALISTA DO MP ATIVO OURO BRANCO - COMARCA; OURO BRANCO-PJ-UNPJ 6.379,14 382,75 0,00 0,00 0,00 0,00 6.761,89 743,81 817,10 0,00 1.560,91 5.200,98 457,00 0,00 30/09/2013
924 162200 FERNANDA FERNANDES MONTEIRO ASSESSOR ATIVO BELO HORIZONTE - COMARCA; CAO-DH APOIO COMUNITARIO-SEC ADM 0,00 1.109,64 3.698,79 0,00 0,00 0,00 4.808,43 457,49 389,73 0,00 847,22 3.961,21 692,00 0,00 30/09/2013
925 512800 FERNANDA FERREIRA BARBOSA MOREIRA ANALISTA DO MP ATIVO IPATINGA - COMARCA; IPATINGA-PJ-05PJ 4.701,73 0,00 0,00 0,00 0,00 0,00 4.701,73 517,19 364,52 0,00 881,71 3.820,02 457,00 0,00 30/09/2013
926 329200 FERNANDA GABRIEL GUZELLA OFICIAL DO MP ATIVO BELO HORIZONTE - COMARCA; ASSESS ESPECIAL DO PGJ ATUACAO JUNTO A PGJAI 4.701,73 470,17 0,00 0,00 0,00 0,00 5.171,90 568,91 475,24 0,00 1.044,15 4.127,75 457,00 0,00 30/09/2013
927 324200 FERNANDA GEORGIA NEVES ZAHAN OFICIAL DO MP ATIVO IPANEMA - COMARCA; IPANEMA-PJ-SECRETARIA 4.409,86 2.204,93 0,00 0,00 0,00 0,00 6.614,79 727,63 733,81 0,00 1.461,44 5.153,35 457,00 0,00 30/09/2013
928 548200 FERNANDA GONCALVES DE CARVALHO ZUZA OFICIAL DO MP ATIVO TUPACIGUARA - COMARCA; TUPACIGUARA-PJ-UNPJ 2.684,83 0,00 0,00 0,00 0,00 0,00 2.684,83 295,33 50,90 0,00 346,23 2.338,60 457,00 0,00 30/09/2013
929 355400 FERNANDA HELENA BASQUES OFICIAL DO MP ATIVO SABARÁ - COMARCA; SABARA-PJ-01PJ 4.854,78 485,48 0,00 0,00 0,00 0,00 5.340,26 587,43 516,45 0,00 1.103,88 4.236,38 457,00 0,00 30/09/2013
930 454800 FERNANDA IATAROLA BARBOSA DIAS ANALISTA DO MP ATIVO BARBACENA - COMARCA; BARBACENA-PJ-01PJ 5.883,73 353,02 0,00 0,00 0,00 0,00 6.236,75 744,85 819,42 0,00 1.564,27 4.672,48 457,00 534,60 30/09/2013
931 515500 FERNANDA LILIANE MARUGEIRO ANALISTA DO MP ATIVO VESPASIANO - COMARCA; VESPASIANO-PJ-02PJ 5.176,02 0,00 0,00 0,00 0,00 0,00 5.176,02 569,36 476,25 0,00 1.045,61 4.130,41 457,00 0,00 30/09/2013
932 392900 FERNANDA MAGALHAES SILVA COORDENADOR/ANALISTA ATIVO BELO HORIZONTE - COMARCA; DIRETORIA DE IMPRENSA 0,00 967,49 9.674,93 0,00 0,00 0,00 10.642,42 797,01 1.916,91 0,00 2.713,92 7.928,50 457,00 0,00 30/09/2013
933 409200 FERNANDA MAIA SANTIAGO ANALISTA DO MP ATIVO PIRAPORA - COMARCA; PIRAPORA-PJ-02PJ 5.344,58 320,67 0,00 0,00 0,00 0,00 5.665,25 623,18 595,99 0,00 1.219,17 4.446,08 457,00 0,00 30/09/2013
934 556500 FERNANDA OTERO COSTA ANALISTA DO MP ATIVO BELO HORIZONTE - COMARCA; ASSESS TECNICO-JUR JUNTO AS PROC. DE JUST 4.136,15 0,00 0,00 0,00 0,00 0,00 4.136,15 454,98 251,26 0,00 706,24 3.429,91 457,00 0,00 30/09/2013
935 412900 FERNANDA PORTELA ROSA ANALISTA DO MP ATIVO BELO HORIZONTE - COMARCA; BH-08PJ JUIZADO ESPECIAL-SECRETARIA 6.379,14 382,75 0,00 0,00 0,00 0,00 6.761,89 801,19 992,06 0,00 1.793,25 4.968,64 457,00 521,64 30/09/2013
936 274301 FERNANDA QUEIROZ PARREIRA ANALISTA DO MP ATIVO PATOS DE MINAS - COMARCA; COORD REG PJ DEF EDU DIR CRI ADO AL PAR NOROE 5.698,20 0,00 0,00 0,00 0,00 0,00 5.698,20 735,94 846,88 0,00 1.582,82 4.115,38 457,00 992,14 30/09/2013
937 467900 FERNANDA QUEIROZ SIMOES GANNAM ANALISTA DO MP ATIVO SÃO LOURENÇO - COMARCA; SAO LOURENCO-PJ-02PJ 5.698,20 0,00 0,00 0,00 0,00 0,00 5.698,20 626,80 604,06 0,00 1.230,86 4.467,34 457,00 0,00 30/09/2013
938 255500 FERNANDA SIMOES LOPES MENDES ANALISTA DO MP ATIVO BELO HORIZONTE - COMARCA; BH-17PJ PATRIMONIO PUBLICO-SECRETARIA 9.074,45 1.814,89 0,00 0,00 0,00 0,00 10.889,34 1.197,83 1.780,00 0,00 2.977,83 7.911,51 927,00 0,00 30/09/2013
939 481700 FERNANDA VIANA FROES DA SILVA OFICIAL DO MP ATIVO GOVERNADOR VALADARES - COMARCA; GOVERNADOR VALADARES-PJ-09PJ 3.698,79 0,00 0,00 0,00 0,00 0,00 3.698,79 406,87 173,19 0,00 580,06 3.118,73 692,00 0,00 30/09/2013
940 123900 FERNANDO ANTONIO FARIA ABREU ASSESSOR/ANALISTA ATIVO BELO HORIZONTE - COMARCA; PROCURADORIA-GERAL ADJUNTA ADMINISTRATIVA 19.062,49 20.229,91 0,00 0,00 0,00 2.785,59 42.077,99 2.785,59 3.805,64 13.968,90 20.560,13 21.517,86 457,00 0,00 30/09/2013
941 416900 FERNANDO APARECIDO DA SILVA ANALISTA DO MP ATIVO BOM DESPACHO - COMARCA; BOM DESPACHO-PJ-01PJ 6.379,14 2.551,65 0,00 0,00 0,00 0,00 8.930,79 982,39 1.300,65 0,00 2.283,04 6.647,75 692,00 0,00 30/09/2013
942 395900 FERNANDO AUGUSTO ETO LAGES ANALISTA DO MP ATIVO BELO HORIZONTE - COMARCA; CENTRAL DE APOIO TECN-SETOR DE MEIO AMBIENTE 6.586,88 658,69 0,00 0,00 0,00 0,00 7.245,57 797,01 982,77 0,00 1.779,78 5.465,79 3.833,47 309,51 30/09/2013
943 380500 FERNANDO BONES COSTA OFICIAL DO MP ATIVO BELO HORIZONTE - COMARCA; EXTINTA - DIVISÃO DE MATERIAL PERMANENTE 3.582,21 358,22 0,00 0,00 0,00 0,00 3.940,43 433,45 212,07 0,00 645,52 3.294,91 457,00 0,00 30/09/2013
944 500100 FERNANDO CEZAR PINTO OFICIAL DO MP ATIVO BELO HORIZONTE - COMARCA; EXTINTA - DIVISÃO DE MATERIAL PERMANENTE 3.051,96 0,00 0,00 0,00 0,00 0,00 3.051,96 335,72 62,51 0,00 398,23 2.653,73 692,00 0,00 30/09/2013
945 346100 FERNANDO EUSTAQUIO CAMPOS UTSCH MOREIRA COORDENADOR/ANALISTA ATIVO BELO HORIZONTE - COMARCA; DIRETORIA DE REDES E BANCOS DE DADOS 0,00 967,49 9.674,93 0,00 0,00 0,00 10.642,42 965,93 1.728,58 0,00 2.694,51 7.947,91 4.068,47 309,51 30/09/2013
946 103500 FERNANDO LUIZ DA SILVA JUNIOR COORDENADOR/OFICIAL ATIVO BELO HORIZONTE - COMARCA; DIVISAO DE ATENDIMENTO E CONSULTA JURIDICA 11.161,27 6.274,56 0,00 0,00 0,00 0,00 17.435,83 1.718,84 3.531,59 0,00 5.250,43 12.185,40 457,00 0,00 30/09/2013
947 287300 FERNANDO MARCIO ALVES MARTINS OFICIAL DO MP ATIVO LEOPOLDINA - COMARCA; LEOPOLDINA-PJ-01PJ 4.409,86 440,99 0,00 0,00 0,00 0,00 4.850,85 533,59 278,30 0,00 811,89 4.038,96 457,00 0,00 30/09/2013
948 262200 FERNANDO MARCIO RESENDE PEREIRA COORDENADOR/OFICIAL ATIVO BELO HORIZONTE - COMARCA; BH-12PJ JUIZO CRIMINAL-SECRETARIA 0,00 1.702,24 8.511,21 0,00 0,00 0,00 10.213,45 683,23 1.830,23 0,00 2.513,46 7.699,99 457,00 0,00 30/09/2013
949 472900 FERNANDO RODRIGUES DE FREITAS ANALISTA DO MP ATIVO BELO HORIZONTE - COMARCA; BH-15PJ M AMB PAT HIST CULT-ASS TECNICA 5.176,02 0,00 0,00 0,00 0,00 0,00 5.176,02 569,36 428,96 0,00 998,32 4.177,70 457,00 0,00 30/09/2013
950 219600 FERNANDO SOARES MIRANDA COORDENADOR/ANALISTA ATIVO BELO HORIZONTE - COMARCA; PROCON-MG-GAB DO COORDENADOR DO PROCON-MG 10.997,69 13.659,96 0,00 0,00 0,00 2.298,52 26.956,17 2.298,52 5.895,69 0,00 8.194,21 18.761,96 1.656,89 109,99 30/09/2013
951 421400 FERNANDO TEODORO MACIEL ANALISTA DO MP ATIVO SANTA VITÓRIA - COMARCA; SANTA VITORIA-PJ-UNPJ 5.883,73 353,02 0,00 0,00 0,00 0,00 6.236,75 786,01 911,01 0,00 1.697,02 4.539,73 692,00 908,82 30/09/2013
952 446300 FERNANDO VITOR DE OLIVEIRA ANALISTA DO MP ATIVO MONTES CLAROS - COMARCA; COORD REG BACIA RIOS VERDE GRANDE E PARDO 5.883,73 353,02 0,00 0,00 0,00 0,00 6.236,75 744,85 866,71 0,00 1.611,56 4.625,19 457,00 534,60 30/09/2013
953 398400 FLAVIA ALVARES GUIMARAES OFICIAL DO MP ATIVO BELO HORIZONTE - COMARCA; CORREGEDORIA-GERAL 3.582,21 358,22 0,00 0,00 0,00 0,00 3.940,43 433,45 179,65 0,00 613,10 3.327,33 457,00 0,00 30/09/2013
954 398200 FLAVIA ALVES DE ASSUNCAO RODRIGUES ANALISTA DO MP ATIVO DIVINÓPOLIS - COMARCA; COORD REG DO MA DA BACIA DO ALTO SAO FRANC 6.586,88 658,69 0,00 0,00 0,00 0,00 7.245,57 797,01 982,77 0,00 1.779,78 5.465,79 949,63 45,16 30/09/2013
955 554400 FLAVIA BAO TRAVIZANI ANALISTA DO MP ATIVO SETE LAGOAS - COMARCA; SETE LAGOAS-PJ-11PJ 4.553,46 0,00 0,00 0,00 0,00 0,00 4.553,46 500,88 334,83 0,00 835,71 3.717,75 457,00 0,00 30/09/2013
956 318500 FLAVIA BEATRIZ NUNES CRUZ VIEIRA ANALISTA DO MP ATIVO BARBACENA - COMARCA; BARBACENA-PJ-SECRETARIA 7.982,93 798,29 0,00 0,00 0,00 0,00 8.781,22 965,93 1.311,33 0,00 2.277,26 6.503,96 692,00 0,00 30/09/2013
957 496500 FLAVIA CARAM BORLIDO ANALISTA DO MP ATIVO BELO HORIZONTE - COMARCA; EXTINTA - DIVISAO DE SERVICOS GERAIS 5.698,20 0,00 0,00 0,00 0,00 0,00 5.698,20 741,68 859,66 0,00 1.601,34 4.096,86 457,00 1.044,36 30/09/2013
958 534800 FLAVIA CONDE SOARES ANALISTA DO MP ATIVO RIBEIRÃO DAS NEVES - COMARCA; RIBEIRAO DAS NEVES-PJ-10PJ 4.553,46 0,00 0,00 0,00 0,00 0,00 4.553,46 500,88 334,83 0,00 835,71 3.717,75 457,00 0,00 30/09/2013
959 219500 FLAVIA CRISTINA ANCELMO OFICIAL DO MP ATIVO BELO HORIZONTE - COMARCA; BH-17PJ PATRIMONIO PUBLICO-SECRETARIA 5.518,54 1.103,71 0,00 0,00 0,00 0,00 6.622,25 728,45 830,22 0,00 1.558,67 5.063,58 457,00 0,00 30/09/2013
960 329600 FLAVIA CRISTINA DE MATOS XAVIER ANALISTA DO MP ATIVO UBERABA - COMARCA; UBERABA-PJ-15PJ 7.982,93 1.596,59 0,00 0,00 0,00 0,00 9.579,52 1.053,75 1.459,42 0,00 2.513,17 7.066,35 692,00 0,00 30/09/2013
961 207600 FLAVIA DE ANDRADE MANCINI ANALISTA DO MP ATIVO BELO HORIZONTE - COMARCA; ASSESSORIA JURIDICO-ADMINISTRATIVA 10.315,17 2.063,03 0,00 0,00 0,00 0,00 12.378,20 1.361,60 2.097,11 0,00 3.458,71 8.919,49 927,00 0,00 30/09/2013
962 402801 FLAVIA MARIA DE RESENDE NASCIMENTO ANALISTA DO MP ATIVO SÃO JOÃO DEL REI - COMARCA; SAO JOAO DEL REI-PJ-04PJ 5.176,02 0,00 0,00 0,00 0,00 0,00 5.176,02 569,36 476,25 0,00 1.045,61 4.130,41 692,00 0,00 30/09/2013
963 437500 FLAVIA MARIA TORRES MARCHETTI ANALISTA DO MP ATIVO BELO HORIZONTE - COMARCA; BH-13ª PJ JUÍXO DE TÓXICOS 6.379,14 382,75 0,00 0,00 0,00 0,00 6.761,89 1.020,92 1.480,97 0,00 2.501,89 4.260,00 3.161,76 2.767,15 30/09/2013
964 386000 FLAVIA NEVES BRIGIDO OFICIAL DO MP ATIVO BELO HORIZONTE - COMARCA; PROMOT ESTADUAL DE DEF PATRI CULT E TUR DE MG 3.582,21 358,22 0,00 0,00 0,00 0,00 3.940,43 433,45 212,07 0,00 645,52 3.294,91 457,00 0,00 30/09/2013
965 488600 FLAVIA PEREIRA COSTA ANALISTA DO MP ATIVO BELO HORIZONTE - COMARCA; SERVICO MEDICO-DEPTO PERIC MEDICA SAUDE OCUP 5.698,20 0,00 0,00 0,00 0,00 0,00 5.698,20 626,80 604,06 0,00 1.230,86 4.467,34 3.833,47 309,51 30/09/2013
966 365400 FLAVIA PEREIRA DA SILVA OFICIAL DO MP ATIVO BELO HORIZONTE - COMARCA; BH-15PJ M AMB 16PJ HAB URB-SECRETARIA 5.012,79 501,28 0,00 0,00 0,00 0,00 5.514,07 715,85 802,19 0,00 1.518,04 3.996,03 457,00 993,68 30/09/2013
967 515400 FLAVIA RODRIGUES DE OLIVEIRA E SILVA PAIVA ANALISTA DO MP ATIVO CARATINGA - COMARCA; CARATINGA-PJ-01PJ 5.176,02 0,00 0,00 0,00 0,00 0,00 5.176,02 569,36 304,73 0,00 874,09 4.301,93 457,00 0,00 30/09/2013
968 535800 FLAVIA SILVA VALADAO OFICIAL DO MP ATIVO TRÊS CORACOES - COMARCA; TRES CORACOES-PJ-04PJ 2.684,83 0,00 0,00 0,00 0,00 0,00 2.684,83 295,33 50,90 0,00 346,23 2.338,60 927,00 0,00 30/09/2013
969 515300 FLAVIA VIEIRA OLIVEIRA ANALISTA DO MP ATIVO BELO HORIZONTE - COMARCA; CAO-CRIMINAL-SECRETARIA 5.176,02 0,00 0,00 0,00 0,00 0,00 5.176,02 569,36 476,25 0,00 1.045,61 4.130,41 457,00 0,00 30/09/2013
970 377500 FLAVIANA GONCALVES DE OLIVEIRA ANALISTA DO MP ATIVO AÇUCENA - COMARCA; ACUCENA-PJ-UNPJ 6.586,88 658,69 0,00 0,00 0,00 0,00 7.245,57 797,01 982,77 0,00 1.779,78 5.465,79 457,00 0,00 30/09/2013
971 273100 FLAVIANE DOS SANTOS CASTRO OFICIAL DO MP ATIVO CAXAMBU - COMARCA; CAXAMBU-PJ-SECRETARIA 5.698,20 569,82 0,00 0,00 0,00 0,00 6.268,02 689,48 648,94 0,00 1.338,42 4.929,60 927,00 0,00 30/09/2013
972 310600 FLAVIANE NAVES ALCANTARA ASSESSOR/OFICIAL ATIVO BELO HORIZONTE - COMARCA; COMB CRIMES PRAT POR AG POL MUN-SECRETARIA 0,00 748,75 7.487,46 0,00 0,00 0,00 8.236,21 646,69 1.606,22 0,00 2.252,91 5.983,30 457,00 1.126,13 30/09/2013
973 455800 FLAVIO ANTONIO RIBEIRO OFICIAL DO MP ATIVO PASSA TEMPO - COMARCA; PASSA TEMPO-PJ-SECRETARIA 3.151,29 189,08 0,00 0,00 0,00 0,00 3.340,37 412,46 179,97 0,00 592,43 2.747,94 457,00 409,24 30/09/2013
974 458200 FLAVIO AUGUSTO BRAGA SOARES ANALISTA DO MP ATIVO BELO HORIZONTE - COMARCA; DIRETORIA DE MANUTENCAO PREDIAL 5.698,20 0,00 0,00 0,00 0,00 0,00 5.698,20 626,80 604,06 0,00 1.230,86 4.467,34 457,00 0,00 30/09/2013
975 516500 FLAVIO AUGUSTO RODRIGUES CORREA ANALISTA DO MP ATIVO BELO HORIZONTE - COMARCA; COORD REG BACIAS RIO VELHAS E PARAOPEBA 4.701,73 0,00 0,00 0,00 0,00 0,00 4.701,73 517,19 364,52 0,00 881,71 3.820,02 457,00 0,00 30/09/2013
976 84300 FLAVIO DE FARIA BELTRAO OFICIAL DO MP ATIVO BELO HORIZONTE - COMARCA; DIRETORIA DE ADMINISTRACAO FINANCEIRA 17.108,05 11.975,64 0,00 0,00 0,00 0,00 29.083,69 2.785,59 5.360,05 3.760,19 11.905,83 17.177,86 457,00 0,00 30/09/2013
977 266600 FLAVIO GUIMARAES LANA ANALISTA DO MP ATIVO BELO HORIZONTE - COMARCA; CENTRAL DE APOIO TECN-SETOR DE MEIO AMBIENTE 7.022,72 1.404,54 0,00 0,00 0,00 0,00 8.427,26 927,00 1.271,99 0,00 2.198,99 6.228,27 457,00 0,00 30/09/2013
978 552600 FLAVIO HENRIQUE EVARISTO GOMES ANALISTA DO MP ATIVO BELO HORIZONTE - COMARCA; DIRETORIA DE SUPORTE E MANUTENCAO 4.553,46 0,00 0,00 0,00 0,00 0,00 4.553,46 552,40 438,51 0,00 990,91 3.562,55 457,00 468,36 30/09/2013
979 241500 FLAVIO HENRIQUE SILVA MARTINS LAGE OFICIAL DO MP ATIVO BELO HORIZONTE - COMARCA; CAO-DIREITOS HUMANOS E APOIO COMUNITARIO 5.344,58 1.603,37 0,00 0,00 0,00 0,00 6.947,95 764,27 909,93 0,00 1.674,20 5.273,75 457,00 0,00 30/09/2013
980 86700 FLAVIO LUCAS TOMAZ AGENTE DO MP ATIVO BELO HORIZONTE - COMARCA; BH-06PJ JUIZO CIVEL-SECRETARIA 4.701,73 2.350,87 0,00 0,00 0,00 0,00 7.052,60 775,79 575,15 0,00 1.350,94 5.701,66 457,00 0,00 30/09/2013
981 407200 FLAVIO LUCIO MONTEIRO PENA ANALISTA DO MP ATIVO BELO HORIZONTE - COMARCA; DIRETORIA DE IMPRENSA 5.883,73 353,02 0,00 0,00 0,00 0,00 6.236,75 686,04 735,87 0,00 1.421,91 4.814,84 457,00 0,00 30/09/2013
982 451700 FLAVIO MAGALHAES PEREIRA ANALISTA DO MP ATIVO BELO HORIZONTE - COMARCA; BH-12PJ JUIZO CRIMINAL-GAB 098PJ 5.883,73 353,02 0,00 0,00 0,00 0,00 6.236,75 686,04 735,87 0,00 1.421,91 4.814,84 457,00 0,00 30/09/2013
983 481500 FLAVIO NEVES GUELBER DE MACEDO OFICIAL DO MP ATIVO SÃO JOÃO NEPOMUCENO - COMARCA; SAO JOAO NEPOMUCENO-PJ-02PJ 3.359,85 0,00 0,00 0,00 0,00 0,00 3.359,85 369,58 127,94 0,00 497,52 2.862,33 457,00 0,00 30/09/2013
984 547500 FRANCELINO MOREIRA DA SILVA ANALISTA DO MP ATIVO GRAO MOGOL - COMARCA; GRAO MOGOL-PJ-UNPJ 4.136,15 0,00 0,00 0,00 0,00 0,00 4.136,15 454,98 251,26 0,00 706,24 3.429,91 457,00 0,00 30/09/2013
985 278100 FRANCIANE MARY DE SOUZA DOMENICI DE BRITO E CASTRO ANALISTA DO MP ATIVO BELO HORIZONTE - COMARCA; BH-12PJ JUIZO CRIMINAL 8.788,36 878,84 0,00 0,00 0,00 0,00 9.667,20 1.063,39 1.528,18 0,00 2.591,57 7.075,63 457,00 0,00 30/09/2013
986 192501 FRANCIELLE REIS DE OLIVEIRA ANALISTA DO MP ATIVO PASSOS - COMARCA; PASSOS-PJ-04PJ 8.788,36 878,84 0,00 0,00 0,00 0,00 9.667,20 1.063,39 1.433,59 0,00 2.496,98 7.170,22 692,00 0,00 30/09/2013
987 523600 FRANCINE MOURA LIMIRIO OFICIAL DO MP ATIVO UBERABA - COMARCA; UBERABA-PJ-02PJ 2.772,23 0,00 0,00 0,00 0,00 0,00 2.772,23 304,95 56,74 0,00 361,69 2.410,54 457,00 0,00 30/09/2013
988 467200 FRANCINI RENNO ANALISTA DO MP ATIVO SILVIANÓPOLIS - COMARCA; SILVIANOPOLIS-PJ-UNPJ 5.176,02 0,00 0,00 0,00 0,00 0,00 5.176,02 569,36 476,25 0,00 1.045,61 4.130,41 457,00 0,00 30/09/2013
989 189300 FRANCIS BERNARDO DO NASCIMENTO OFICIAL DO MP ATIVO VARGINHA - COMARCA; VARGINHA-PJ-05PJ 7.731,26 1.546,25 0,00 0,00 0,00 0,00 9.277,51 1.020,53 1.480,09 0,00 2.500,62 6.776,89 692,00 0,00 30/09/2013
990 207800 FRANCISCO CAMPOS PIRES DE MORAIS ANALISTA DO MP ATIVO BELO HORIZONTE - COMARCA; CENTRAL DE APOIO TECN-SETOR DE MEIO AMBIENTE 12.062,58 2.412,52 0,00 0,00 0,00 0,00 14.475,10 1.592,26 2.657,62 0,00 4.249,88 10.225,22 457,00 118,28 30/09/2013
991 424200 FRANCISCO DE FREITAS JUNIOR ANALISTA DO MP ATIVO MONTE AZUL - COMARCA; MONTE AZUL-PJ-UNPJ 5.344,58 320,67 0,00 0,00 0,00 0,00 5.665,25 623,18 595,99 0,00 1.219,17 4.446,08 587,94 0,00 30/09/2013
992 204600 FRANCISCO FERREIRA NOVAIS OFICIAL DO MP ATIVO IPATINGA - COMARCA; IPATINGA-PJ-08PJ 5.883,73 1.765,12 0,00 0,00 0,00 0,00 7.648,85 841,37 986,89 0,00 1.828,26 5.820,59 692,00 23,11 30/09/2013
993 60500 FRANCISCO OLIMPIO TEIXEIRA AGENTE DO MP ATIVO BELO HORIZONTE - COMARCA; EXTINTA - DIVISAO DE TRANSPORTES 4.409,86 3.527,89 0,00 0,00 0,00 1.247,37 9.185,12 1.247,37 2.185,98 0,00 3.433,35 5.751,77 692,00 3.402,00 30/09/2013
994 411600 FRANCISCO PAIVA BRITO ANALISTA DO MP ATIVO BELO HORIZONTE - COMARCA; TRIBUNAL DO JURI-07 PJ-02 TRIBUNAL 5.883,73 353,02 0,00 0,00 0,00 0,00 6.236,75 686,04 735,87 0,00 1.421,91 4.814,84 457,00 0,00 30/09/2013
995 515800 FRANCISCO RAFAEL DA SILVA NETO ANALISTA DO MP ATIVO SACRAMENTO - COMARCA; SACRAMENTO-PJ-01PJ 4.270,85 0,00 0,00 0,00 0,00 0,00 4.270,85 469,79 172,17 0,00 641,96 3.628,89 2.165,34 42,71 30/09/2013
996 515200 FRANCISLEI ELIAS GONCALVES OFICIAL DO MP ATIVO PASSOS - COMARCA; PASSOS-PJ-01PJ 2.772,23 554,45 0,00 0,00 0,00 0,00 3.326,68 365,93 42,16 0,00 408,09 2.918,59 457,00 0,00 30/09/2013
997 443600 FRANCISLEI MARTINS DE SOUSA ANALISTA DO MP ATIVO TIMÓTEO - COMARCA; TIMOTEO-PJ-01PJ 5.883,73 353,02 0,00 0,00 0,00 0,00 6.236,75 686,04 735,87 0,00 1.421,91 4.814,84 332,79 0,00 30/09/2013
998 424500 FREDERICO AUGUSTO COBRA MULLER ANALISTA DO MP ATIVO POUSO ALEGRE - COMARCA; POUSO ALEGRE-PJ-03PJ 6.379,14 382,75 0,00 0,00 0,00 0,00 6.761,89 743,81 864,39 0,00 1.608,20 5.153,69 457,00 0,00 30/09/2013
999 473100 FREDERICO AUGUSTO LIMA FELICIO ANALISTA DO MP ATIVO CONCEIÇÃO DO MATO DENTRO - COMARCA; CONCEICAO DO MATO DENTRO-PJ-UNPJ 5.176,02 0,00 0,00 0,00 0,00 0,00 5.176,02 569,36 476,25 0,00 1.045,61 4.130,41 457,00 0,00 30/09/2013
1000 318100 FREDERICO BIANCHINI JOVIANO DOS SANTOS ASSESSOR/OFICIAL ATIVO BELO HORIZONTE - COMARCA; PROMOT ESTADUAL DE DEF PATRI CULT E TUR DE MG 0,00 748,75 7.487,46 0,00 0,00 0,00 8.236,21 533,59 1.327,64 0,00 1.861,23 6.374,98 457,00 0,00 30/09/2013
1001 124200 FREDERICO DE SOUZA ROCHA OFICIAL DO MP ATIVO ESPINOSA - COMARCA; ESPINOSA-PJ-SECRETARIA 8.511,21 5.957,84 0,00 0,00 0,00 0,00 14.469,05 1.728,02 2.912,38 0,00 4.640,40 9.828,65 606,76 1.240,20 30/09/2013
1002 177100 FREDERICO FERNANDES DE ANDRADE ASSESSOR/OFICIAL ATIVO BELO HORIZONTE - COMARCA; DIRETORIA DE SUPORTE E MANUTENCAO 0,00 1.497,49 7.487,46 0,00 0,00 0,00 8.984,95 842,05 1.448,72 0,00 2.290,77 6.694,18 457,00 0,00 30/09/2013
1003 456200 FREDERICO FERNANDES PASSOS ANALISTA DO MP ATIVO BELO HORIZONTE - COMARCA; DIRETORIA DE REDES E BANCOS DE DADOS 5.698,20 341,89 0,00 0,00 0,00 0,00 6.040,09 710,94 743,96 0,00 1.454,90 4.585,19 457,00 422,98 30/09/2013
1004 400900 FREDERICO LUCIANO BORGES REIS ANALISTA DO MP ATIVO BELO HORIZONTE - COMARCA; DIRETORIA DE SISTEMAS DE INFORMACAO 6.586,88 658,69 0,00 0,00 0,00 0,00 7.245,57 824,34 1.043,57 0,00 1.867,91 5.377,66 1.427,87 337,40 30/09/2013
1005 466200 FREDERICO LUIS FERNANDES ANALISTA DO MP ATIVO BELO HORIZONTE - COMARCA; BH-12PJ JUIZO CRIMINAL-GAB 106PJ 5.176,02 0,00 0,00 0,00 0,00 0,00 5.176,02 569,36 428,96 0,00 998,32 4.177,70 457,00 0,00 30/09/2013
1006 419700 FREDERICO MECKLER SANTOS ANALISTA DO MP ATIVO CLÁUDIO - COMARCA; CLAUDIO-PJ-UNPJ 6.379,14 382,75 0,00 0,00 0,00 0,00 6.761,89 743,81 864,39 0,00 1.608,20 5.153,69 457,00 0,00 30/09/2013
1007 257100 FULVIA HERONVILLE DA SILVA OFICIAL DO MP ATIVO BELO HORIZONTE - COMARCA; DIVISAO DE MEMORIA INSTITUCIONAL 5.698,20 1.139,64 0,00 0,00 0,00 0,00 6.837,84 752,16 835,69 0,00 1.587,85 5.249,99 692,00 0,00 30/09/2013
1008 397200 GABRIEL DEIVID MARTINS LEITE OFICIAL DO MP ATIVO MONTE CARMELO - COMARCA; MONTE CARMELO-PJ-02PJ 4.553,46 455,35 0,00 0,00 1.669,60 0,00 6.678,41 550,97 894,47 0,00 1.445,44 5.232,97 516,01 0,00 30/09/2013
1009 540800 GABRIEL MOREIRA COURA ANALISTA DO MP ATIVO ABRE CAMPO - COMARCA; ABRE CAMPO-PJ-SECRETARIA 4.136,15 0,00 0,00 0,00 0,00 0,00 4.136,15 454,98 251,26 0,00 706,24 3.429,91 457,00 0,00 30/09/2013
1010 386800 GABRIELA SIMOES CHAVES ANALISTA DO MP ATIVO BELO HORIZONTE - COMARCA; EXTINTA - DIVISÃO DE COMPRAS 6.586,88 658,69 0,00 0,00 0,00 0,00 7.245,57 933,63 1.286,75 0,00 2.220,38 5.025,19 457,00 1.242,00 30/09/2013
1011 449700 GABRIELE COSTA FERREIRA OFICIAL DO MP ATIVO BELO HORIZONTE - COMARCA; DIRETORIA DE ORCAMENTO-DIOR/SPC 3.151,29 189,08 0,00 0,00 0,00 0,00 3.340,37 367,44 125,34 0,00 492,78 2.847,59 457,00 0,00 30/09/2013
1012 357600 GABRIELLA CRUZ EMRICH OFICIAL DO MP ATIVO BELO HORIZONTE - COMARCA; BH-12PJ JUIZO CRIMINAL 4.005,77 400,58 0,00 0,00 0,00 0,00 4.406,35 509,67 350,83 0,00 860,50 3.545,85 457,00 227,01 30/09/2013
1013 470600 GABRIELLA SPIRANDELLI COIMBRA ANALISTA DO MP ATIVO UBERLÂNDIA - COMARCA; UBERLANDIA-PJ-19PJ 5.698,20 0,00 0,00 0,00 0,00 0,00 5.698,20 626,80 604,06 0,00 1.230,86 4.467,34 457,00 0,00 30/09/2013
1014 86000 GASPAR GOMES DE SOUSA AGENTE DO MP ATIVO BELO HORIZONTE - COMARCA; BH-15PJ M AMB PAT HIST CULT-RECEPCAO 17.108,05 11.975,65 0,00 0,00 0,00 0,00 29.083,70 2.785,59 5.407,35 3.760,20 11.953,14 17.130,56 3.833,47 309,51 30/09/2013
1015 183100 GECIELLE FERNANDA SILVA OFICIAL DO MP ATIVO PITANGUI - COMARCA; PITANGUI-PJ-02PJ 7.731,26 1.546,25 0,00 0,00 0,00 0,00 9.277,51 1.020,53 1.480,09 0,00 2.500,62 6.776,89 457,00 0,00 30/09/2013
1016 387300 GEOFFREY GIULLIANO OLIVEIRA ALMEIDA ANALISTA DO MP ATIVO JANAÚBA - COMARCA; JANAUBA-PJ-03PJ 6.075,32 607,53 0,00 0,00 0,00 0,00 6.682,85 735,11 845,05 0,00 1.580,16 5.102,69 457,00 0,00 30/09/2013
1017 277700 GEORGIA CRISTINA BASILIO MEDRADO ANALISTA DO MP ATIVO BELO HORIZONTE - COMARCA; SERVICO MEDICO-DEPTO PERIC MEDICA SAUDE OCUP 8.788,36 878,84 0,00 0,00 0,00 0,00 9.667,20 1.063,39 1.528,18 0,00 2.591,57 7.075,63 457,00 0,00 30/09/2013
1018 512100 GEOVANI VICENTIN ANALISTA DO MP ATIVO SANTA RITA DE CALDAS - COMARCA; SANTA RITA DE CALDAS-PJ-UNPJ 4.701,73 0,00 0,00 0,00 0,00 0,00 4.701,73 517,19 364,52 0,00 881,71 3.820,02 457,00 0,00 30/09/2013
1019 116300 GEOVANNA DAS GRACAS ROSA REQUEIJO AGENTE DO MP ATIVO SANTA LUZIA - COMARCA; SANTA LUZIA-PJ-06PJ 12.540,10 5.016,04 0,00 0,00 0,00 0,00 17.556,14 1.931,18 3.411,70 0,00 5.342,88 12.213,26 4.068,47 309,51 30/09/2013
1020 207200 GERALDO AFONSO DE MOURA CALDEIRA ANALISTA DO MP ATIVO BELO HORIZONTE - COMARCA; BH-17PJ PATRIMONIO PUBLICO 12.062,58 2.412,52 0,00 0,00 0,00 1.592,26 16.067,36 1.592,26 3.190,07 0,00 4.782,33 11.285,03 457,00 0,00 30/09/2013
1021 274901 GERALDO ANDRE DE OLIVEIRA ANALISTA DO MP ATIVO CONTAGEM - COMARCA; CONTAGEM-PJ-18PJ 5.176,02 1.035,20 0,00 0,00 0,00 0,00 6.211,22 683,23 729,62 0,00 1.412,85 4.798,37 457,00 0,00 30/09/2013
1022 270900 GERALDO BATISTA BRITES OFICIAL DO MP ATIVO BOM DESPACHO - COMARCA; BOM DESPACHO-PJ-01PJ 5.883,73 1.176,75 0,00 0,00 0,00 0,00 7.060,48 776,65 795,60 0,00 1.572,25 5.488,23 692,00 0,00 30/09/2013
1023 204200 GERALDO CELIO ARAUJO SOARES OFICIAL DO MP ATIVO GOVERNADOR VALADARES - COMARCA; GOVERNADOR VALADARES-PJ-12PJ 7.731,26 2.319,38 0,00 0,00 0,00 0,00 10.050,64 1.105,57 1.622,02 0,00 2.727,59 7.323,05 692,00 0,00 30/09/2013
1024 66900 GERALDO DIAS CYRINO OFICIAL DO MP ATIVO BELO HORIZONTE - COMARCA; DIRET DE INFORMACAO E CONHECIMENTO-DINC/CEAF 11.161,27 7.812,89 0,00 0,00 0,00 0,00 18.974,16 2.087,16 3.806,05 0,00 5.893,21 13.080,95 457,00 0,00 30/09/2013
1025 366500 GERALDO LEVY ROMUALDO DA SILVA OFICIAL DO MP ATIVO RIO POMBA - COMARCA; RIO POMBA-PJ-SECRETARIA 3.879,42 387,94 0,00 0,00 0,00 0,00 4.267,36 469,41 238,85 0,00 708,26 3.559,10 457,00 0,00 30/09/2013
1026 124300 GERALDO MARCIO GOMES DA SILVA COORDENADOR/ANALISTA ATIVO BELO HORIZONTE - COMARCA; EXTINTA - DIRETORIA SERVIÇOS GERAIS E TRANS 16.456,57 15.874,25 0,00 0,00 0,00 2.785,59 35.116,41 2.785,59 6.031,51 7.007,32 15.824,42 19.291,99 2.145,18 154,75 30/09/2013
1027 124400 GERALDO MAURICIO DE FARIA ROCHA OFICIAL DO MP ATIVO BELO HORIZONTE - COMARCA; BH-13ª PJ JUÍXO DE TÓXICOS 7.022,72 4.915,91 0,00 0,00 0,00 0,00 11.938,63 1.313,25 2.036,82 0,00 3.350,07 8.588,56 457,00 0,00 30/09/2013
1028 472800 GERALDO MONTEIRO CAMARGO JUNIOR ANALISTA DO MP ATIVO ESPINOSA - COMARCA; ESPINOSA-PJ-UNPJ 4.701,73 940,35 0,00 0,00 0,00 0,00 5.642,08 620,63 590,32 0,00 1.210,95 4.431,13 465,78 0,80 30/09/2013
1029 124500 GERALDO ROGERIO GOMES SILVEIRA COORDENADOR/OFICIAL ATIVO BELO HORIZONTE - COMARCA; DIRETORIA DE PESSOAL ADMINISTRATIVO - DPAD 8.788,36 8.667,35 0,00 0,00 0,00 0,00 17.455,71 1.643,42 3.510,51 0,00 5.153,93 12.301,78 457,00 34,72 30/09/2013
1030 445900 GERALDO TAVARES FERREIRA ANALISTA DO MP ATIVO FORMIGA - COMARCA; FORMIGA-PJ-03PJ 5.883,73 353,02 0,00 0,00 0,00 0,00 6.236,75 686,04 735,87 0,00 1.421,91 4.814,84 457,00 0,00 30/09/2013
1031 521000 GERALDO VINICIUS IRENO ANALISTA DO MP ATIVO CURVELO - COMARCA; CURVELO-PJ-01PJ 4.701,73 0,00 0,00 0,00 1.567,24 0,00 6.268,97 517,19 791,16 0,00 1.308,35 4.960,62 457,00 0,00 30/09/2013
1032 325400 GERSONI FERREIRA LUCENA OFICIAL DO MP ATIVO POÇOS DE CALDAS - COMARCA; POCOS DE CALDAS-PJ-02PJ 4.553,46 455,35 0,00 0,00 0,00 0,00 5.008,81 579,30 361,52 0,00 940,82 4.067,99 692,00 257,58 30/09/2013
1033 445600 GERUSA E SILVA CASTRO LOPEZ ANALISTA DO MP ATIVO BELO HORIZONTE - COMARCA; ASSESSORIA JURIDICO-ADMINISTRATIVA 5.344,58 320,67 0,00 0,00 0,00 0,00 5.665,25 676,59 714,84 0,00 1.391,43 4.273,82 457,00 485,60 30/09/2013
1034 468600 GILDA MARIA SANTOS DE FILIPPO ANDRADE OFICIAL DO MP ATIVO UBÁ - COMARCA; COORD REG BACIA DO RIO PARAIBA DO SUL 3.698,79 0,00 0,00 0,00 0,00 0,00 3.698,79 406,87 173,19 0,00 580,06 3.118,73 457,00 0,00 30/09/2013
1035 508300 GILMAR ALVES FERREIRA OFICIAL DO MP ATIVO BELO HORIZONTE - COMARCA; BH-13ª PJ JUÍXO DE TÓXICOS 2.772,23 0,00 0,00 0,00 0,00 0,00 2.772,23 304,95 56,74 0,00 361,69 2.410,54 457,00 0,00 30/09/2013
1036 455400 GILMAR DIAS NASCIMENTO OFICIAL DO MP ATIVO SÃO FRANCISCO - COMARCA; SAO FRANCISCO-PJ-01PJ 3.151,29 189,08 0,00 0,00 0,00 0,00 3.340,37 387,90 129,64 0,00 517,54 2.822,83 457,00 221,11 30/09/2013
1037 213000 GILMAR JOSE DA SILVA OFICIAL DO MP ATIVO DIVINÓPOLIS - COMARCA; DIVINOPOLIS-PJ-SECRETARIA 7.731,26 1.546,25 0,00 0,00 0,00 0,00 9.277,51 1.020,53 1.480,09 0,00 2.500,62 6.776,89 457,00 0,00 30/09/2013
1038 496900 GILSON NOGUEIRA GUIMARAES ANALISTA DO MP ATIVO MANHUMIRIM - COMARCA; MANHUMIRIM-PJ-01PJ 5.525,67 0,00 0,00 0,00 0,00 0,00 5.525,67 735,94 800,01 0,00 1.535,95 3.989,72 457,00 1.166,20 30/09/2013
1039 552000 GILVANIA MACEDO DE SA OFICIAL DO MP ATIVO BONFINÓPOLIS DE MINAS - COMARCA; BONFINOPOLIS DE MINAS-PJ-UNPJ 2.684,83 0,00 0,00 0,00 0,00 0,00 2.684,83 295,33 50,90 0,00 346,23 2.338,60 457,00 0,00 30/09/2013
1040 476600 GIMENNI JULIANA VILELA MACHADO MOREIRA OFICIAL DO MP ATIVO CONTAGEM - COMARCA; CONTAGEM-PJ-12PJ 3.359,85 0,00 0,00 0,00 0,00 0,00 3.359,85 369,58 76,35 0,00 445,93 2.913,92 692,00 0,00 30/09/2013
1041 391700 GIORDANI LOPES TAVARES ANALISTA DO MP ATIVO BELO HORIZONTE - COMARCA; SUPERINTENDÊNCIA DE ENGENHARIA E ARQUITETURA 6.586,88 658,69 0,00 0,00 0,00 0,00 7.245,57 797,01 982,77 0,00 1.779,78 5.465,79 457,00 0,00 30/09/2013
1042 251300 GIOVANE SOUZA PEREIRA OFICIAL DO MP ATIVO PARAGUAÇU - COMARCA; PARAGUACU-PJ-SECRETARIA 4.701,73 940,35 0,00 0,00 0,00 0,00 5.642,08 620,63 495,74 0,00 1.116,37 4.525,71 692,00 0,00 30/09/2013
1043 438800 GIOVANNA BRANDAO DE ARAUJO ANALISTA DO MP ATIVO ALMENARA - COMARCA; ALMENARA-PJ-01PJ 5.883,73 353,02 0,00 0,00 0,00 0,00 6.236,75 686,04 735,87 0,00 1.421,91 4.814,84 457,00 0,00 30/09/2013
1044 243400 GIOVANNA FRANCA BISTENE ASSESSOR/OFICIAL ATIVO BELO HORIZONTE - COMARCA; ASSESS EXECUTIVA DO CONSELHO SUPERIOR DO MP 0,00 1.648,56 8.242,82 0,00 0,00 0,00 9.891,38 801,94 1.614,43 0,00 2.416,37 7.475,01 927,00 0,00 30/09/2013
1045 124600 GIOVANNI ANANIAS CAMILO DO VALLE ANALISTA DO MP ATIVO OLIVEIRA - COMARCA; OLIVEIRA-PJ-01PJ 13.036,58 9.125,60 0,00 0,00 0,00 0,00 22.162,18 2.437,84 4.633,61 0,00 7.071,45 15.090,73 457,00 0,00 30/09/2013
1046 366700 GIOVANNI DE SOUZA ANDRADE OFICIAL DO MP ATIVO PASSOS - COMARCA; PASSOS-PJ-01PJ 3.879,42 387,94 0,00 0,00 0,00 0,00 4.267,36 469,41 171,71 0,00 641,12 3.626,24 457,00 0,00 30/09/2013
1047 124700 GIOVANNI REIS CONDE OFICIAL DO MP ATIVO MERCÊS - COMARCA; MERCES-PJ-SECRETARIA 5.518,54 3.862,97 0,00 0,00 0,00 0,00 9.381,51 1.031,97 1.223,23 0,00 2.255,20 7.126,31 457,00 0,00 30/09/2013
1048 219000 GIRLEI DE FATIMA SOUSA ASSESSOR ATIVO BELO HORIZONTE - COMARCA; OUVIDORIA DO MPMG 0,00 1.648,56 8.242,82 0,00 0,00 0,00 9.891,38 457,49 1.882,12 0,00 2.339,61 7.551,77 457,00 0,00 30/09/2013
1049 444600 GISELE ADRIANE FONSECA ANALISTA DO MP ATIVO BETIM - COMARCA; BETIM-PJ-03PJ 5.883,73 353,02 0,00 0,00 0,00 0,00 6.236,75 686,04 735,87 0,00 1.421,91 4.814,84 457,00 0,00 30/09/2013
1050 536600 GISELE APARECIDA VAZ DO CARMO ANALISTA DO MP ATIVO OURO PRETO - COMARCA; OURO PRETO-PJ-02PJ 4.136,15 0,00 0,00 0,00 0,00 0,00 4.136,15 454,98 251,26 0,00 706,24 3.429,91 457,00 0,00 30/09/2013
1051 445100 GISELE DE CAMPOS VERSIANI COORDENADOR/OFICIAL ATIVO BELO HORIZONTE - COMARCA; DIRET DE INFORMACAO E EXPEDICAO DE PROCESSOS 0,00 545,50 9.091,60 0,00 0,00 0,00 9.637,10 336,50 1.767,09 0,00 2.103,59 7.533,51 457,00 0,00 30/09/2013
1052 542000 GISELE GOMES ROCHA OFICIAL DO MP ATIVO ITUIUTABA - COMARCA; ITUIUTABA-PJ-04PJ 2.955,70 0,00 0,00 0,00 0,00 0,00 2.955,70 325,13 73,99 0,00 399,12 2.556,58 457,00 0,00 30/09/2013
1053 423000 GISELE MEGALE SANTINI ANALISTA DO MP ATIVO BELO HORIZONTE - COMARCA; BH-09PJ AUDITORIA MILITAR-SECRETARIA 6.379,14 382,75 0,00 0,00 0,00 0,00 6.761,89 743,81 864,39 0,00 1.608,20 5.153,69 457,00 0,00 30/09/2013
1054 425300 GISELE MENEZES RIBEIRO DE OLIVEIRA ANALISTA DO MP ATIVO SANTA LUZIA - COMARCA; SANTA LUZIA-PJ-01PJ 6.379,14 382,75 0,00 0,00 0,00 0,00 6.761,89 743,81 817,10 0,00 1.560,91 5.200,98 457,00 0,00 30/09/2013
1055 478200 GISELLE BRESCIA SOARES DE SOUZA CUNHA ANALISTA DO MP ATIVO ITAÚNA - COMARCA; ITAUNA-PJ-04PJ 5.698,20 0,00 0,00 0,00 0,00 0,00 5.698,20 626,80 556,76 0,00 1.183,56 4.514,64 692,00 0,00 30/09/2013
1056 289300 GISELLE CASTRO MACHADO ANALISTA DO MP ATIVO BELO HORIZONTE - COMARCA; EXTINTA - SECRETARIA ADMINISTRATIVA 5.883,73 588,37 0,00 0,00 0,00 0,00 6.472,10 711,93 793,47 0,00 1.505,40 4.966,70 457,00 0,00 30/09/2013
1057 345400 GISELLE CORREIA BORGES DIRETOR/ANALISTA ATIVO BELO HORIZONTE - COMARCA; SUPERINTENDENCIA DE COMUNICACAO INTEGRADA 0,00 1.254,01 12.540,10 0,00 0,00 0,00 13.794,11 965,93 2.737,17 0,00 3.703,10 10.091,01 457,00 0,00 30/09/2013
1058 399100 GISELLE DE VIVEIROS LEITAO OFICIAL DO MP ATIVO MATIAS BARBOSA - COMARCA; MATIAS BARBOSA-PJ-SECRETARIA 3.582,21 358,22 0,00 0,00 0,00 0,00 3.940,43 433,45 212,07 0,00 645,52 3.294,91 457,00 0,00 30/09/2013
1059 357401 GISELLE GUIMARAES DE OLIVEIRA REZENDE ANALISTA DO MP ATIVO BELO HORIZONTE - COMARCA; COMB CRIMES PRAT POR AG POL MUN-ASSESSORIA 6.586,88 658,69 0,00 0,00 0,00 0,00 7.245,57 797,01 982,77 0,00 1.779,78 5.465,79 457,00 0,00 30/09/2013
1060 492200 GISELLE MUNIZ DE AGUIAR ANALISTA DO MP ATIVO BRASÍLIA DE MINAS - COMARCA; BRASILIA DE MINAS-PJ-02PJ 5.698,20 0,00 0,00 0,00 0,00 0,00 5.698,20 680,53 723,59 0,00 1.404,12 4.294,08 457,00 488,40 30/09/2013
1061 520300 GISELLE NORMANDIA GONCALVES ANALISTA DO MP ATIVO SANTO ANTÔNIO DO MONTE - COMARCA; SANTO ANTONIO DO MONTE-PJ-UNPJ 5.176,02 0,00 0,00 0,00 0,00 0,00 5.176,02 569,36 476,25 0,00 1.045,61 4.130,41 457,00 0,00 30/09/2013
1062 112300 GISELLE VILELA RIBEIRO AGENTE DO MP ATIVO BELO HORIZONTE - COMARCA; BH-07PJ 01 TRIBUNAL DO JURI 8.788,36 4.394,18 0,00 0,00 0,00 0,00 13.182,54 1.450,08 2.435,85 0,00 3.885,93 9.296,61 3.833,47 309,51 30/09/2013
1063 459800 GISELLI FERNANDES COSTA ANALISTA DO MP ATIVO GOVERNADOR VALADARES - COMARCA; GOVERNADOR VALADARES-PJ-03PJ 5.698,20 1.139,64 0,00 0,00 0,00 0,00 6.837,84 816,63 1.026,43 0,00 1.843,06 4.994,78 457,00 586,10 30/09/2013
1064 149600 GISLAINE FERNANDES MAGNO OFICIAL DO MP ATIVO BELO HORIZONTE - COMARCA; SUPRIN DE FORMACAO E APERFEICOAMENTO-SFA/CEAF 8.788,36 3.515,34 0,00 0,00 0,00 0,00 12.303,70 1.353,41 2.126,17 0,00 3.479,58 8.824,12 457,00 0,00 30/09/2013
1065 85800 GISLANDIA MARTINS ABREU E SILVA OFICIAL DO MP ATIVO BELO HORIZONTE - COMARCA; JUNTA RECURSAL DO PROCON ESTADUAL 19.713,97 7.885,59 0,00 0,00 0,00 0,00 27.599,56 2.785,59 5.312,76 2.276,06 10.374,41 17.225,15 3.833,47 309,51 30/09/2013
1066 112700 GISLEIA MARTINS DA SILVA OFICIAL DO MP ATIVO BELO HORIZONTE - COMARCA; ASSESSORIA ESPECIAL DO PGJ 8.788,36 3.515,35 0,00 0,00 0,00 0,00 12.303,71 1.353,41 2.078,88 0,00 3.432,29 8.871,42 692,00 0,00 30/09/2013
1067 250100 GISLEIDE GONALVES DE OLIVEIRA OFICIAL DO MP ATIVO JANAÚBA - COMARCA; JANAUBA-PJ-01PJ 5.344,58 1.068,92 0,00 0,00 0,00 0,00 6.413,50 705,49 731,83 0,00 1.437,32 4.976,18 692,00 0,00 30/09/2013
1068 335300 GISLENE FAUSTINO DIAS DE ALMEIDA OFICIAL DO MP ATIVO UBERLÂNDIA - COMARCA; UBERLANDIA-COORD CONJ-FAMÍLIA E JUIZ ESP CRIM 5.344,58 534,46 0,00 0,00 0,00 0,00 5.879,04 646,69 648,32 0,00 1.295,01 4.584,03 457,00 0,00 30/09/2013
1069 492400 GISLENE GOMIDE GUIMARAES CREPALDE ANALISTA DO MP ATIVO CARATINGA - COMARCA; CARATINGA-PJ-02PJ 5.698,20 0,00 0,00 0,00 0,00 0,00 5.698,20 632,17 616,01 0,00 1.248,18 4.450,02 457,00 48,84 30/09/2013
1070 329800 GISLENE MENDES MARTINS OFICIAL DO MP ATIVO BELO HORIZONTE - COMARCA; BH-17PJ PATRIMONIO PUBLICO-SECRETARIA 5.176,02 517,60 0,00 0,00 0,00 0,00 5.693,62 626,30 602,93 0,00 1.229,23 4.464,39 457,00 0,00 30/09/2013
1071 327200 GISLEY CERQUEIRA SCAPOLATEMPORE BERNIS COORDENADOR/OFICIAL ATIVO BELO HORIZONTE - COMARCA; CGMP-DIVIS DE APOIO FISC ORIENTACAO FUNCIONAL 0,00 851,12 8.511,21 0,00 0,00 0,00 9.362,33 626,30 1.564,54 0,00 2.190,84 7.171,49 457,00 0,00 30/09/2013
1072 525300 GIULIANO LOMBARDI ASSUMPCAO OFICIAL DO MP ATIVO BELO HORIZONTE - COMARCA; GAECO - SECRETARIA 3.359,85 0,00 0,00 0,00 0,00 0,00 3.359,85 369,58 127,94 0,00 497,52 2.862,33 457,00 0,00 30/09/2013
1073 503100 GIULLIANA MATTIOLI OFICIAL DO MP ATIVO ITAJUBA - COMARCA; ITAJUBA-PJ-02PJ 3.051,96 0,00 0,00 0,00 0,00 0,00 3.051,96 335,72 62,51 0,00 398,23 2.653,73 812,00 0,00 30/09/2013
1074 459300 GLADSON LIMA DE SOUZA OFICIAL DO MP ATIVO PATOS DE MINAS - COMARCA; PATOS DE MINAS-PJ-05PJ 3.051,96 0,00 0,00 0,00 0,00 0,00 3.051,96 335,72 62,51 0,00 398,23 2.653,73 457,00 0,00 30/09/2013
1075 148300 GLADSTON ALMEIDA CAJA AGENTE DO MP ATIVO BELO HORIZONTE - COMARCA; PROCON-MG-SECRETARIA DE FISCALIZACOES 5.518,54 3.248,20 0,00 0,00 0,00 0,00 8.766,74 924,25 1.552,10 0,00 2.476,35 6.290,39 457,00 676,35 30/09/2013
1076 333800 GLADSTON CIRILO TAVARES GOMES OFICIAL DO MP ATIVO JUIZ DE FORA - COMARCA; JUIZ DE FORA-PJ-24PJ 5.012,79 501,28 0,00 0,00 0,00 0,00 5.514,07 606,55 558,99 0,00 1.165,54 4.348,53 457,00 0,00 30/09/2013
1077 391600 GLAUBER COELHO CARVALHO ANALISTA DO MP ATIVO JANUÁRIA - COMARCA; JANUARIA-PJ-02PJ 6.586,88 658,69 0,00 0,00 0,00 0,00 7.245,57 824,34 1.043,57 0,00 1.867,91 5.377,66 692,00 248,40 30/09/2013
1078 478700 GLAUCIA TAVARES ANALISTA DO MP ATIVO RIBEIRÃO DAS NEVES - COMARCA; RIBEIRAO DAS NEVES-PJ-01PJ 5.176,02 0,00 0,00 0,00 0,00 0,00 5.176,02 569,36 476,25 0,00 1.045,61 4.130,41 457,00 0,00 30/09/2013
1079 263800 GLAUDITON FERREIRA DE MATOS ASSESSOR ATIVO BELO HORIZONTE - COMARCA; DIRETORIA DE SUPORTE E MANUTENCAO 0,00 739,76 3.698,79 0,00 0,00 0,00 4.438,55 457,49 429,89 0,00 887,38 3.551,17 457,00 0,00 30/09/2013
1080 444500 GLAYSSON PEREIRA DA COSTA ANALISTA DO MP ATIVO BELO HORIZONTE - COMARCA; ASSESS JUR DO CONS SUPERIOR DO MINISTERIO PUB 5.883,73 1.176,75 0,00 0,00 0,00 0,00 7.060,48 776,65 937,47 0,00 1.714,12 5.346,36 3.833,47 309,51 30/09/2013
1081 238900 GLEICE LUCIA FRANCO OFICIAL DO MP ATIVO BELO HORIZONTE - COMARCA; BH-13ª PJ JUÍXO DE TÓXICOS 6.075,32 1.215,06 0,00 0,00 0,00 0,00 7.290,38 801,94 993,74 0,00 1.795,68 5.494,70 457,00 0,00 30/09/2013
1082 276400 GLEICE RENATA DE AMORIM FREITAS OFICIAL DO MP ATIVO BELO HORIZONTE - COMARCA; CGMP-DIVISAO DE APOIO ADMINISTRATIVO 5.518,54 551,85 0,00 0,00 0,00 0,00 6.070,39 667,74 695,15 0,00 1.362,89 4.707,50 457,00 0,00 30/09/2013
1083 410900 GLEICIANE GARCIA LAGARES RESENDE ANALISTA DO MP ATIVO IPATINGA - COMARCA; IPATINGA-PJ-03PJ 5.883,73 353,02 0,00 0,00 0,00 0,00 6.236,75 686,04 688,57 0,00 1.374,61 4.862,14 692,00 0,00 30/09/2013
1084 423200 GLEISON SOUZA CREPALDE ANALISTA DO MP ATIVO RAUL SOARES - COMARCA; RAUL SOARES-PJ-UNPJ 6.379,14 382,75 0,00 0,00 0,00 0,00 6.761,89 743,81 864,39 0,00 1.608,20